<?xml version="1.0" encoding="UTF-8" standalone="no" ?>
<gpx xmlns="http://www.topografix.com/GPX/1/1" xmlns:xsi="http://www.w3.org/2001/XMLSchema-instance" xsi:schemaLocation="http://www.topografix.com/GPX/1/1 http://www.topografix.com/GPX/1/1/gpx.xsd" version="1.1" creator="VisuGPX - https://www.visugpx.com">
  <metadata>
    <name>Col de la fougère </name>
    <desc><![CDATA[Problème avec le dénivelé.
Rando pas trop intéressante. 
Pas d'effet waouh !
]]></desc>
  </metadata>
  <trk>
    <name><![CDATA[20200713_102648.gpx]]></name>
    <trkseg>
      <trkpt lat="45.64574" lon="6.23725">
        <ele>1000.7</ele>
        <time>2020-07-13T06:26:59Z</time>
      </trkpt>
      <trkpt lat="45.64583" lon="6.23728">
        <ele>1001.4</ele>
        <time>2020-07-13T06:27:04Z</time>
      </trkpt>
      <trkpt lat="45.64592" lon="6.23716">
        <ele>-105.807</ele>
        <time>2020-07-13T06:27:44Z</time>
      </trkpt>
      <trkpt lat="45.64592" lon="6.23717">
        <ele>-22.04</ele>
        <time>2020-07-13T06:28:19Z</time>
      </trkpt>
      <trkpt lat="45.64597" lon="6.23731">
        <ele>-22.04</ele>
        <time>2020-07-13T06:28:34Z</time>
      </trkpt>
      <trkpt lat="45.64607" lon="6.2375">
        <ele>-22.04</ele>
        <time>2020-07-13T06:28:44Z</time>
      </trkpt>
      <trkpt lat="45.64609" lon="6.23763">
        <ele>-22.04</ele>
        <time>2020-07-13T06:28:54Z</time>
      </trkpt>
      <trkpt lat="45.64613" lon="6.23768">
        <ele>-22.04</ele>
        <time>2020-07-13T06:28:59Z</time>
      </trkpt>
      <trkpt lat="45.64618" lon="6.23774">
        <ele>-22.04</ele>
        <time>2020-07-13T06:29:04Z</time>
      </trkpt>
      <trkpt lat="45.6462" lon="6.23781">
        <ele>-22.04</ele>
        <time>2020-07-13T06:29:09Z</time>
      </trkpt>
      <trkpt lat="45.64621" lon="6.23789">
        <ele>-22.04</ele>
        <time>2020-07-13T06:29:19Z</time>
      </trkpt>
      <trkpt lat="45.64625" lon="6.23796">
        <ele>-22.04</ele>
        <time>2020-07-13T06:29:33Z</time>
      </trkpt>
      <trkpt lat="45.6463" lon="6.23799">
        <ele>-22.04</ele>
        <time>2020-07-13T06:29:39Z</time>
      </trkpt>
      <trkpt lat="45.64635" lon="6.23802">
        <ele>-22.04</ele>
        <time>2020-07-13T06:29:44Z</time>
      </trkpt>
      <trkpt lat="45.6464" lon="6.23806">
        <ele>-22.04</ele>
        <time>2020-07-13T06:29:49Z</time>
      </trkpt>
      <trkpt lat="45.64645" lon="6.23811">
        <ele>-22.04</ele>
        <time>2020-07-13T06:29:54Z</time>
      </trkpt>
      <trkpt lat="45.64654" lon="6.23815">
        <ele>-22.04</ele>
        <time>2020-07-13T06:30:04Z</time>
      </trkpt>
      <trkpt lat="45.64666" lon="6.23821">
        <ele>-22.04</ele>
        <time>2020-07-13T06:30:14Z</time>
      </trkpt>
      <trkpt lat="45.64672" lon="6.23825">
        <ele>-22.04</ele>
        <time>2020-07-13T06:30:19Z</time>
      </trkpt>
      <trkpt lat="45.64677" lon="6.2383">
        <ele>-22.04</ele>
        <time>2020-07-13T06:30:24Z</time>
      </trkpt>
      <trkpt lat="45.64684" lon="6.23833">
        <ele>-22.04</ele>
        <time>2020-07-13T06:30:29Z</time>
      </trkpt>
      <trkpt lat="45.64688" lon="6.23836">
        <ele>-22.04</ele>
        <time>2020-07-13T06:30:34Z</time>
      </trkpt>
      <trkpt lat="45.6469" lon="6.23843">
        <ele>-22.04</ele>
        <time>2020-07-13T06:30:39Z</time>
      </trkpt>
      <trkpt lat="45.64696" lon="6.23853">
        <ele>-22.04</ele>
        <time>2020-07-13T06:30:49Z</time>
      </trkpt>
      <trkpt lat="45.64709" lon="6.23862">
        <ele>-22.04</ele>
        <time>2020-07-13T06:30:59Z</time>
      </trkpt>
      <trkpt lat="45.64714" lon="6.23865">
        <ele>-22.04</ele>
        <time>2020-07-13T06:31:04Z</time>
      </trkpt>
      <trkpt lat="45.6472" lon="6.23872">
        <ele>-22.04</ele>
        <time>2020-07-13T06:31:19Z</time>
      </trkpt>
      <trkpt lat="45.64722" lon="6.23875">
        <ele>-22.04</ele>
        <time>2020-07-13T06:31:24Z</time>
      </trkpt>
      <trkpt lat="45.64729" lon="6.23876">
        <ele>-22.04</ele>
        <time>2020-07-13T06:31:34Z</time>
      </trkpt>
      <trkpt lat="45.64738" lon="6.23882">
        <ele>-22.04</ele>
        <time>2020-07-13T06:31:44Z</time>
      </trkpt>
      <trkpt lat="45.64737" lon="6.2388">
        <ele>-22.04</ele>
        <time>2020-07-13T06:31:59Z</time>
      </trkpt>
      <trkpt lat="45.64734" lon="6.23884">
        <ele>-22.04</ele>
        <time>2020-07-13T06:32:09Z</time>
      </trkpt>
      <trkpt lat="45.64737" lon="6.23891">
        <ele>-22.04</ele>
        <time>2020-07-13T06:32:19Z</time>
      </trkpt>
      <trkpt lat="45.64743" lon="6.23894">
        <ele>-22.04</ele>
        <time>2020-07-13T06:32:29Z</time>
      </trkpt>
      <trkpt lat="45.64747" lon="6.23898">
        <ele>-22.04</ele>
        <time>2020-07-13T06:32:34Z</time>
      </trkpt>
      <trkpt lat="45.64752" lon="6.23899">
        <ele>-22.04</ele>
        <time>2020-07-13T06:32:39Z</time>
      </trkpt>
      <trkpt lat="45.64761" lon="6.23901">
        <ele>-22.04</ele>
        <time>2020-07-13T06:32:44Z</time>
      </trkpt>
      <trkpt lat="45.64772" lon="6.23913">
        <ele>-22.04</ele>
        <time>2020-07-13T06:32:54Z</time>
      </trkpt>
      <trkpt lat="45.64782" lon="6.23922">
        <ele>-22.04</ele>
        <time>2020-07-13T06:33:04Z</time>
      </trkpt>
      <trkpt lat="45.64788" lon="6.23925">
        <ele>-22.04</ele>
        <time>2020-07-13T06:33:14Z</time>
      </trkpt>
      <trkpt lat="45.64794" lon="6.23934">
        <ele>-22.04</ele>
        <time>2020-07-13T06:33:24Z</time>
      </trkpt>
      <trkpt lat="45.64796" lon="6.23945">
        <ele>-22.04</ele>
        <time>2020-07-13T06:33:29Z</time>
      </trkpt>
      <trkpt lat="45.64802" lon="6.2397">
        <ele>-22.04</ele>
        <time>2020-07-13T06:33:39Z</time>
      </trkpt>
      <trkpt lat="45.64816" lon="6.23994">
        <ele>-22.04</ele>
        <time>2020-07-13T06:33:49Z</time>
      </trkpt>
      <trkpt lat="45.64827" lon="6.24017">
        <ele>-22.04</ele>
        <time>2020-07-13T06:33:59Z</time>
      </trkpt>
      <trkpt lat="45.64834" lon="6.24027">
        <ele>-22.04</ele>
        <time>2020-07-13T06:34:04Z</time>
      </trkpt>
      <trkpt lat="45.6484" lon="6.24035">
        <ele>-22.04</ele>
        <time>2020-07-13T06:34:09Z</time>
      </trkpt>
      <trkpt lat="45.64844" lon="6.24043">
        <ele>-22.04</ele>
        <time>2020-07-13T06:34:14Z</time>
      </trkpt>
      <trkpt lat="45.64855" lon="6.24058">
        <ele>-22.04</ele>
        <time>2020-07-13T06:34:24Z</time>
      </trkpt>
      <trkpt lat="45.64869" lon="6.2408">
        <ele>-22.04</ele>
        <time>2020-07-13T06:34:34Z</time>
      </trkpt>
      <trkpt lat="45.64879" lon="6.24098">
        <ele>-22.04</ele>
        <time>2020-07-13T06:34:44Z</time>
      </trkpt>
      <trkpt lat="45.64885" lon="6.24102">
        <ele>-22.04</ele>
        <time>2020-07-13T06:34:49Z</time>
      </trkpt>
      <trkpt lat="45.64891" lon="6.24106">
        <ele>-22.04</ele>
        <time>2020-07-13T06:34:54Z</time>
      </trkpt>
      <trkpt lat="45.64899" lon="6.24111">
        <ele>-22.04</ele>
        <time>2020-07-13T06:34:59Z</time>
      </trkpt>
      <trkpt lat="45.64921" lon="6.24123">
        <ele>-22.04</ele>
        <time>2020-07-13T06:35:09Z</time>
      </trkpt>
      <trkpt lat="45.64928" lon="6.24143">
        <ele>-22.04</ele>
        <time>2020-07-13T06:35:19Z</time>
      </trkpt>
      <trkpt lat="45.64938" lon="6.24149">
        <ele>-22.04</ele>
        <time>2020-07-13T06:35:29Z</time>
      </trkpt>
      <trkpt lat="45.64948" lon="6.24154">
        <ele>-22.04</ele>
        <time>2020-07-13T06:35:34Z</time>
      </trkpt>
      <trkpt lat="45.64951" lon="6.24164">
        <ele>-22.04</ele>
        <time>2020-07-13T06:35:39Z</time>
      </trkpt>
      <trkpt lat="45.64959" lon="6.24172">
        <ele>-22.04</ele>
        <time>2020-07-13T06:35:44Z</time>
      </trkpt>
      <trkpt lat="45.64969" lon="6.24193">
        <ele>-22.04</ele>
        <time>2020-07-13T06:35:54Z</time>
      </trkpt>
      <trkpt lat="45.64974" lon="6.24212">
        <ele>-22.04</ele>
        <time>2020-07-13T06:36:04Z</time>
      </trkpt>
      <trkpt lat="45.64979" lon="6.24222">
        <ele>-22.04</ele>
        <time>2020-07-13T06:36:14Z</time>
      </trkpt>
      <trkpt lat="45.64987" lon="6.2423">
        <ele>-22.04</ele>
        <time>2020-07-13T06:36:19Z</time>
      </trkpt>
      <trkpt lat="45.64991" lon="6.24235">
        <ele>-22.04</ele>
        <time>2020-07-13T06:36:24Z</time>
      </trkpt>
      <trkpt lat="45.64997" lon="6.24235">
        <ele>-22.04</ele>
        <time>2020-07-13T06:36:29Z</time>
      </trkpt>
      <trkpt lat="45.6501" lon="6.24238">
        <ele>-22.04</ele>
        <time>2020-07-13T06:36:39Z</time>
      </trkpt>
      <trkpt lat="45.65017" lon="6.24247">
        <ele>-22.04</ele>
        <time>2020-07-13T06:36:49Z</time>
      </trkpt>
      <trkpt lat="45.65014" lon="6.24256">
        <ele>-22.04</ele>
        <time>2020-07-13T06:36:54Z</time>
      </trkpt>
      <trkpt lat="45.65009" lon="6.24263">
        <ele>-22.04</ele>
        <time>2020-07-13T06:36:59Z</time>
      </trkpt>
      <trkpt lat="45.65006" lon="6.24271">
        <ele>-22.04</ele>
        <time>2020-07-13T06:37:04Z</time>
      </trkpt>
      <trkpt lat="45.65002" lon="6.2428">
        <ele>-22.04</ele>
        <time>2020-07-13T06:37:09Z</time>
      </trkpt>
      <trkpt lat="45.65004" lon="6.24287">
        <ele>-22.04</ele>
        <time>2020-07-13T06:37:14Z</time>
      </trkpt>
      <trkpt lat="45.65008" lon="6.24296">
        <ele>-22.04</ele>
        <time>2020-07-13T06:37:24Z</time>
      </trkpt>
      <trkpt lat="45.65018" lon="6.24299">
        <ele>-22.04</ele>
        <time>2020-07-13T06:37:34Z</time>
      </trkpt>
      <trkpt lat="45.65022" lon="6.24311">
        <ele>-22.04</ele>
        <time>2020-07-13T06:37:54Z</time>
      </trkpt>
      <trkpt lat="45.65027" lon="6.24312">
        <ele>-22.04</ele>
        <time>2020-07-13T06:38:23Z</time>
      </trkpt>
      <trkpt lat="45.65033" lon="6.24316">
        <ele>-22.04</ele>
        <time>2020-07-13T06:38:29Z</time>
      </trkpt>
      <trkpt lat="45.65039" lon="6.24321">
        <ele>-22.04</ele>
        <time>2020-07-13T06:38:34Z</time>
      </trkpt>
      <trkpt lat="45.65044" lon="6.24325">
        <ele>-22.04</ele>
        <time>2020-07-13T06:38:39Z</time>
      </trkpt>
      <trkpt lat="45.65046" lon="6.24324">
        <ele>-22.04</ele>
        <time>2020-07-13T06:38:58Z</time>
      </trkpt>
      <trkpt lat="45.65043" lon="6.24331">
        <ele>-22.04</ele>
        <time>2020-07-13T06:39:08Z</time>
      </trkpt>
      <trkpt lat="45.65038" lon="6.24332">
        <ele>-22.04</ele>
        <time>2020-07-13T06:39:19Z</time>
      </trkpt>
      <trkpt lat="45.65025" lon="6.24329">
        <ele>-22.04</ele>
        <time>2020-07-13T06:39:29Z</time>
      </trkpt>
      <trkpt lat="45.64999" lon="6.24335">
        <ele>-22.04</ele>
        <time>2020-07-13T06:39:39Z</time>
      </trkpt>
      <trkpt lat="45.64983" lon="6.24333">
        <ele>-22.04</ele>
        <time>2020-07-13T06:39:49Z</time>
      </trkpt>
      <trkpt lat="45.64976" lon="6.24331">
        <ele>-22.04</ele>
        <time>2020-07-13T06:39:54Z</time>
      </trkpt>
      <trkpt lat="45.64969" lon="6.2433">
        <ele>-22.04</ele>
        <time>2020-07-13T06:39:59Z</time>
      </trkpt>
      <trkpt lat="45.64963" lon="6.24327">
        <ele>-22.04</ele>
        <time>2020-07-13T06:40:09Z</time>
      </trkpt>
      <trkpt lat="45.64957" lon="6.2432">
        <ele>-22.04</ele>
        <time>2020-07-13T06:40:18Z</time>
      </trkpt>
      <trkpt lat="45.64951" lon="6.2431">
        <ele>-22.04</ele>
        <time>2020-07-13T06:40:24Z</time>
      </trkpt>
      <trkpt lat="45.6494" lon="6.24298">
        <ele>-22.04</ele>
        <time>2020-07-13T06:40:34Z</time>
      </trkpt>
      <trkpt lat="45.64933" lon="6.24294">
        <ele>-22.04</ele>
        <time>2020-07-13T06:40:39Z</time>
      </trkpt>
      <trkpt lat="45.64923" lon="6.24281">
        <ele>-22.04</ele>
        <time>2020-07-13T06:40:44Z</time>
      </trkpt>
      <trkpt lat="45.64917" lon="6.24276">
        <ele>-22.04</ele>
        <time>2020-07-13T06:40:49Z</time>
      </trkpt>
      <trkpt lat="45.64916" lon="6.24284">
        <ele>-22.04</ele>
        <time>2020-07-13T06:40:54Z</time>
      </trkpt>
      <trkpt lat="45.6492" lon="6.2429">
        <ele>-22.04</ele>
        <time>2020-07-13T06:40:59Z</time>
      </trkpt>
      <trkpt lat="45.64927" lon="6.24298">
        <ele>-22.04</ele>
        <time>2020-07-13T06:41:09Z</time>
      </trkpt>
      <trkpt lat="45.64936" lon="6.24315">
        <ele>-22.04</ele>
        <time>2020-07-13T06:41:19Z</time>
      </trkpt>
      <trkpt lat="45.6494" lon="6.24321">
        <ele>-22.04</ele>
        <time>2020-07-13T06:41:24Z</time>
      </trkpt>
      <trkpt lat="45.64944" lon="6.24327">
        <ele>-22.04</ele>
        <time>2020-07-13T06:41:29Z</time>
      </trkpt>
      <trkpt lat="45.64947" lon="6.24334">
        <ele>-22.04</ele>
        <time>2020-07-13T06:41:34Z</time>
      </trkpt>
      <trkpt lat="45.64951" lon="6.24342">
        <ele>-22.04</ele>
        <time>2020-07-13T06:41:39Z</time>
      </trkpt>
      <trkpt lat="45.64957" lon="6.24351">
        <ele>-22.04</ele>
        <time>2020-07-13T06:41:48Z</time>
      </trkpt>
      <trkpt lat="45.64964" lon="6.24359">
        <ele>-22.04</ele>
        <time>2020-07-13T06:41:54Z</time>
      </trkpt>
      <trkpt lat="45.64964" lon="6.24358">
        <ele>-22.04</ele>
        <time>2020-07-13T06:42:04Z</time>
      </trkpt>
      <trkpt lat="45.6496" lon="6.24354">
        <ele>-22.04</ele>
        <time>2020-07-13T06:42:09Z</time>
      </trkpt>
      <trkpt lat="45.64957" lon="6.24349">
        <ele>-22.04</ele>
        <time>2020-07-13T06:42:14Z</time>
      </trkpt>
      <trkpt lat="45.6495" lon="6.24344">
        <ele>-22.04</ele>
        <time>2020-07-13T06:42:24Z</time>
      </trkpt>
      <trkpt lat="45.64941" lon="6.24339">
        <ele>-22.04</ele>
        <time>2020-07-13T06:42:33Z</time>
      </trkpt>
      <trkpt lat="45.64937" lon="6.24332">
        <ele>-22.04</ele>
        <time>2020-07-13T06:42:39Z</time>
      </trkpt>
      <trkpt lat="45.64927" lon="6.24331">
        <ele>-22.04</ele>
        <time>2020-07-13T06:42:49Z</time>
      </trkpt>
      <trkpt lat="45.64917" lon="6.24327">
        <ele>-22.04</ele>
        <time>2020-07-13T06:42:59Z</time>
      </trkpt>
      <trkpt lat="45.64912" lon="6.24322">
        <ele>-22.04</ele>
        <time>2020-07-13T06:43:04Z</time>
      </trkpt>
      <trkpt lat="45.64905" lon="6.24324">
        <ele>-22.04</ele>
        <time>2020-07-13T06:43:09Z</time>
      </trkpt>
      <trkpt lat="45.64903" lon="6.24332">
        <ele>-22.04</ele>
        <time>2020-07-13T06:43:14Z</time>
      </trkpt>
      <trkpt lat="45.64913" lon="6.24339">
        <ele>-22.04</ele>
        <time>2020-07-13T06:43:24Z</time>
      </trkpt>
      <trkpt lat="45.64919" lon="6.24349">
        <ele>-22.04</ele>
        <time>2020-07-13T06:43:34Z</time>
      </trkpt>
      <trkpt lat="45.64925" lon="6.24357">
        <ele>-22.04</ele>
        <time>2020-07-13T06:43:44Z</time>
      </trkpt>
      <trkpt lat="45.64928" lon="6.24365">
        <ele>-22.04</ele>
        <time>2020-07-13T06:43:49Z</time>
      </trkpt>
      <trkpt lat="45.64931" lon="6.24369">
        <ele>-22.04</ele>
        <time>2020-07-13T06:43:54Z</time>
      </trkpt>
      <trkpt lat="45.64934" lon="6.24375">
        <ele>-22.04</ele>
        <time>2020-07-13T06:43:59Z</time>
      </trkpt>
      <trkpt lat="45.6494" lon="6.24386">
        <ele>-22.04</ele>
        <time>2020-07-13T06:44:09Z</time>
      </trkpt>
      <trkpt lat="45.64946" lon="6.24398">
        <ele>-22.04</ele>
        <time>2020-07-13T06:44:19Z</time>
      </trkpt>
      <trkpt lat="45.6495" lon="6.24408">
        <ele>-22.04</ele>
        <time>2020-07-13T06:44:29Z</time>
      </trkpt>
      <trkpt lat="45.64954" lon="6.24413">
        <ele>-22.04</ele>
        <time>2020-07-13T06:44:34Z</time>
      </trkpt>
      <trkpt lat="45.64958" lon="6.24418">
        <ele>-22.04</ele>
        <time>2020-07-13T06:44:39Z</time>
      </trkpt>
      <trkpt lat="45.64963" lon="6.24425">
        <ele>-22.04</ele>
        <time>2020-07-13T06:44:48Z</time>
      </trkpt>
      <trkpt lat="45.64967" lon="6.2443">
        <ele>-22.04</ele>
        <time>2020-07-13T06:44:54Z</time>
      </trkpt>
      <trkpt lat="45.64974" lon="6.24435">
        <ele>-22.04</ele>
        <time>2020-07-13T06:45:04Z</time>
      </trkpt>
      <trkpt lat="45.64981" lon="6.24445">
        <ele>-22.04</ele>
        <time>2020-07-13T06:45:14Z</time>
      </trkpt>
      <trkpt lat="45.64985" lon="6.24453">
        <ele>-22.04</ele>
        <time>2020-07-13T06:45:24Z</time>
      </trkpt>
      <trkpt lat="45.64989" lon="6.24458">
        <ele>-22.04</ele>
        <time>2020-07-13T06:45:29Z</time>
      </trkpt>
      <trkpt lat="45.64995" lon="6.24462">
        <ele>-22.04</ele>
        <time>2020-07-13T06:45:39Z</time>
      </trkpt>
      <trkpt lat="45.64993" lon="6.24468">
        <ele>-22.04</ele>
        <time>2020-07-13T06:45:53Z</time>
      </trkpt>
      <trkpt lat="45.6499" lon="6.24473">
        <ele>-22.04</ele>
        <time>2020-07-13T06:46:03Z</time>
      </trkpt>
      <trkpt lat="45.64993" lon="6.24466">
        <ele>-22.04</ele>
        <time>2020-07-13T06:47:09Z</time>
      </trkpt>
      <trkpt lat="45.64987" lon="6.24463">
        <ele>-22.04</ele>
        <time>2020-07-13T06:47:19Z</time>
      </trkpt>
      <trkpt lat="45.64983" lon="6.24463">
        <ele>-22.04</ele>
        <time>2020-07-13T06:47:33Z</time>
      </trkpt>
      <trkpt lat="45.64978" lon="6.24466">
        <ele>-22.04</ele>
        <time>2020-07-13T06:47:39Z</time>
      </trkpt>
      <trkpt lat="45.64973" lon="6.24464">
        <ele>-22.04</ele>
        <time>2020-07-13T06:47:44Z</time>
      </trkpt>
      <trkpt lat="45.64968" lon="6.24462">
        <ele>-22.04</ele>
        <time>2020-07-13T06:47:49Z</time>
      </trkpt>
      <trkpt lat="45.64963" lon="6.24457">
        <ele>-22.04</ele>
        <time>2020-07-13T06:47:59Z</time>
      </trkpt>
      <trkpt lat="45.64959" lon="6.24453">
        <ele>-22.04</ele>
        <time>2020-07-13T06:48:04Z</time>
      </trkpt>
      <trkpt lat="45.64949" lon="6.2444">
        <ele>-22.04</ele>
        <time>2020-07-13T06:48:14Z</time>
      </trkpt>
      <trkpt lat="45.64943" lon="6.24434">
        <ele>-22.04</ele>
        <time>2020-07-13T06:48:24Z</time>
      </trkpt>
      <trkpt lat="45.64936" lon="6.2443">
        <ele>-22.04</ele>
        <time>2020-07-13T06:48:29Z</time>
      </trkpt>
      <trkpt lat="45.64933" lon="6.24435">
        <ele>-22.04</ele>
        <time>2020-07-13T06:48:34Z</time>
      </trkpt>
      <trkpt lat="45.64935" lon="6.2444">
        <ele>-22.04</ele>
        <time>2020-07-13T06:48:39Z</time>
      </trkpt>
      <trkpt lat="45.64941" lon="6.24446">
        <ele>-22.04</ele>
        <time>2020-07-13T06:48:49Z</time>
      </trkpt>
      <trkpt lat="45.64946" lon="6.24452">
        <ele>-22.04</ele>
        <time>2020-07-13T06:48:59Z</time>
      </trkpt>
      <trkpt lat="45.6495" lon="6.2446">
        <ele>-22.04</ele>
        <time>2020-07-13T06:49:09Z</time>
      </trkpt>
      <trkpt lat="45.64957" lon="6.24471">
        <ele>-22.04</ele>
        <time>2020-07-13T06:49:19Z</time>
      </trkpt>
      <trkpt lat="45.6496" lon="6.24478">
        <ele>-22.04</ele>
        <time>2020-07-13T06:49:24Z</time>
      </trkpt>
      <trkpt lat="45.64965" lon="6.24483">
        <ele>-22.04</ele>
        <time>2020-07-13T06:49:29Z</time>
      </trkpt>
      <trkpt lat="45.64965" lon="6.24494">
        <ele>-22.04</ele>
        <time>2020-07-13T06:49:44Z</time>
      </trkpt>
      <trkpt lat="45.64969" lon="6.24505">
        <ele>-22.04</ele>
        <time>2020-07-13T06:49:54Z</time>
      </trkpt>
      <trkpt lat="45.64971" lon="6.24514">
        <ele>-22.04</ele>
        <time>2020-07-13T06:50:04Z</time>
      </trkpt>
      <trkpt lat="45.64974" lon="6.24514">
        <ele>-22.04</ele>
        <time>2020-07-13T06:50:14Z</time>
      </trkpt>
      <trkpt lat="45.64971" lon="6.24513">
        <ele>-22.04</ele>
        <time>2020-07-13T06:50:39Z</time>
      </trkpt>
      <trkpt lat="45.64972" lon="6.2452">
        <ele>-22.04</ele>
        <time>2020-07-13T06:50:44Z</time>
      </trkpt>
      <trkpt lat="45.64969" lon="6.24518">
        <ele>-22.04</ele>
        <time>2020-07-13T06:50:54Z</time>
      </trkpt>
      <trkpt lat="45.64966" lon="6.24514">
        <ele>-22.04</ele>
        <time>2020-07-13T06:51:04Z</time>
      </trkpt>
      <trkpt lat="45.64965" lon="6.24516">
        <ele>-22.04</ele>
        <time>2020-07-13T06:51:14Z</time>
      </trkpt>
      <trkpt lat="45.64962" lon="6.24511">
        <ele>-22.04</ele>
        <time>2020-07-13T06:51:28Z</time>
      </trkpt>
      <trkpt lat="45.64958" lon="6.24505">
        <ele>-22.04</ele>
        <time>2020-07-13T06:51:38Z</time>
      </trkpt>
      <trkpt lat="45.64954" lon="6.245">
        <ele>-22.04</ele>
        <time>2020-07-13T06:51:44Z</time>
      </trkpt>
      <trkpt lat="45.64948" lon="6.24499">
        <ele>-22.04</ele>
        <time>2020-07-13T06:51:49Z</time>
      </trkpt>
      <trkpt lat="45.64941" lon="6.24493">
        <ele>-22.04</ele>
        <time>2020-07-13T06:51:59Z</time>
      </trkpt>
      <trkpt lat="45.64928" lon="6.24489">
        <ele>-22.04</ele>
        <time>2020-07-13T06:52:09Z</time>
      </trkpt>
      <trkpt lat="45.64919" lon="6.24494">
        <ele>-22.04</ele>
        <time>2020-07-13T06:52:19Z</time>
      </trkpt>
      <trkpt lat="45.64924" lon="6.24499">
        <ele>-22.04</ele>
        <time>2020-07-13T06:52:29Z</time>
      </trkpt>
      <trkpt lat="45.64926" lon="6.24507">
        <ele>-22.04</ele>
        <time>2020-07-13T06:52:38Z</time>
      </trkpt>
      <trkpt lat="45.64929" lon="6.24512">
        <ele>-22.04</ele>
        <time>2020-07-13T06:52:48Z</time>
      </trkpt>
      <trkpt lat="45.64932" lon="6.24518">
        <ele>-22.04</ele>
        <time>2020-07-13T06:52:58Z</time>
      </trkpt>
      <trkpt lat="45.64935" lon="6.24525">
        <ele>-22.04</ele>
        <time>2020-07-13T06:53:04Z</time>
      </trkpt>
      <trkpt lat="45.64943" lon="6.24529">
        <ele>-22.04</ele>
        <time>2020-07-13T06:53:19Z</time>
      </trkpt>
      <trkpt lat="45.64949" lon="6.24534">
        <ele>-22.04</ele>
        <time>2020-07-13T06:53:29Z</time>
      </trkpt>
      <trkpt lat="45.64944" lon="6.24529">
        <ele>-22.04</ele>
        <time>2020-07-13T06:53:39Z</time>
      </trkpt>
      <trkpt lat="45.64941" lon="6.24523">
        <ele>-22.04</ele>
        <time>2020-07-13T06:53:49Z</time>
      </trkpt>
      <trkpt lat="45.64933" lon="6.24517">
        <ele>-22.04</ele>
        <time>2020-07-13T06:53:59Z</time>
      </trkpt>
      <trkpt lat="45.64928" lon="6.24515">
        <ele>-22.04</ele>
        <time>2020-07-13T06:54:14Z</time>
      </trkpt>
      <trkpt lat="45.64921" lon="6.24509">
        <ele>-22.04</ele>
        <time>2020-07-13T06:54:28Z</time>
      </trkpt>
      <trkpt lat="45.64917" lon="6.24506">
        <ele>-22.04</ele>
        <time>2020-07-13T06:54:34Z</time>
      </trkpt>
      <trkpt lat="45.64911" lon="6.24507">
        <ele>-22.04</ele>
        <time>2020-07-13T06:54:44Z</time>
      </trkpt>
      <trkpt lat="45.6491" lon="6.24501">
        <ele>-22.04</ele>
        <time>2020-07-13T06:54:54Z</time>
      </trkpt>
      <trkpt lat="45.64904" lon="6.24506">
        <ele>-22.04</ele>
        <time>2020-07-13T06:55:09Z</time>
      </trkpt>
      <trkpt lat="45.64901" lon="6.24504">
        <ele>-22.04</ele>
        <time>2020-07-13T06:55:19Z</time>
      </trkpt>
      <trkpt lat="45.64897" lon="6.24503">
        <ele>-22.04</ele>
        <time>2020-07-13T06:55:24Z</time>
      </trkpt>
      <trkpt lat="45.64894" lon="6.24501">
        <ele>-22.04</ele>
        <time>2020-07-13T06:55:34Z</time>
      </trkpt>
      <trkpt lat="45.64893" lon="6.24494">
        <ele>-22.04</ele>
        <time>2020-07-13T06:55:39Z</time>
      </trkpt>
      <trkpt lat="45.64889" lon="6.2449">
        <ele>-22.04</ele>
        <time>2020-07-13T06:55:48Z</time>
      </trkpt>
      <trkpt lat="45.64886" lon="6.245">
        <ele>-22.04</ele>
        <time>2020-07-13T06:55:58Z</time>
      </trkpt>
      <trkpt lat="45.64886" lon="6.24507">
        <ele>-22.04</ele>
        <time>2020-07-13T06:56:04Z</time>
      </trkpt>
      <trkpt lat="45.64886" lon="6.24514">
        <ele>-22.04</ele>
        <time>2020-07-13T06:56:14Z</time>
      </trkpt>
      <trkpt lat="45.64888" lon="6.24522">
        <ele>-22.04</ele>
        <time>2020-07-13T06:56:24Z</time>
      </trkpt>
      <trkpt lat="45.64894" lon="6.2453">
        <ele>-22.04</ele>
        <time>2020-07-13T06:56:33Z</time>
      </trkpt>
      <trkpt lat="45.64897" lon="6.24535">
        <ele>-22.04</ele>
        <time>2020-07-13T06:56:39Z</time>
      </trkpt>
      <trkpt lat="45.64902" lon="6.24544">
        <ele>-22.04</ele>
        <time>2020-07-13T06:56:49Z</time>
      </trkpt>
      <trkpt lat="45.64905" lon="6.24549">
        <ele>-22.04</ele>
        <time>2020-07-13T06:56:54Z</time>
      </trkpt>
      <trkpt lat="45.64909" lon="6.24551">
        <ele>-22.04</ele>
        <time>2020-07-13T06:56:59Z</time>
      </trkpt>
      <trkpt lat="45.64904" lon="6.24554">
        <ele>-22.04</ele>
        <time>2020-07-13T06:57:09Z</time>
      </trkpt>
      <trkpt lat="45.64906" lon="6.24559">
        <ele>-22.04</ele>
        <time>2020-07-13T06:57:24Z</time>
      </trkpt>
      <trkpt lat="45.64916" lon="6.24567">
        <ele>-22.04</ele>
        <time>2020-07-13T06:57:34Z</time>
      </trkpt>
      <trkpt lat="45.64917" lon="6.24577">
        <ele>-22.04</ele>
        <time>2020-07-13T06:57:39Z</time>
      </trkpt>
      <trkpt lat="45.64917" lon="6.24585">
        <ele>-22.04</ele>
        <time>2020-07-13T06:57:44Z</time>
      </trkpt>
      <trkpt lat="45.64924" lon="6.2459">
        <ele>-22.04</ele>
        <time>2020-07-13T06:57:54Z</time>
      </trkpt>
      <trkpt lat="45.64929" lon="6.24599">
        <ele>-22.04</ele>
        <time>2020-07-13T06:58:03Z</time>
      </trkpt>
      <trkpt lat="45.64933" lon="6.24603">
        <ele>-22.04</ele>
        <time>2020-07-13T06:58:09Z</time>
      </trkpt>
      <trkpt lat="45.64936" lon="6.24614">
        <ele>-22.04</ele>
        <time>2020-07-13T06:58:19Z</time>
      </trkpt>
      <trkpt lat="45.64938" lon="6.24623">
        <ele>-22.04</ele>
        <time>2020-07-13T06:58:29Z</time>
      </trkpt>
      <trkpt lat="45.64942" lon="6.24633">
        <ele>-22.04</ele>
        <time>2020-07-13T06:58:39Z</time>
      </trkpt>
      <trkpt lat="45.64943" lon="6.24644">
        <ele>-22.04</ele>
        <time>2020-07-13T06:58:48Z</time>
      </trkpt>
      <trkpt lat="45.64944" lon="6.24651">
        <ele>-22.04</ele>
        <time>2020-07-13T06:58:54Z</time>
      </trkpt>
      <trkpt lat="45.64949" lon="6.24664">
        <ele>-22.04</ele>
        <time>2020-07-13T06:59:04Z</time>
      </trkpt>
      <trkpt lat="45.64953" lon="6.24668">
        <ele>-22.04</ele>
        <time>2020-07-13T06:59:09Z</time>
      </trkpt>
      <trkpt lat="45.64954" lon="6.24672">
        <ele>-22.04</ele>
        <time>2020-07-13T06:59:19Z</time>
      </trkpt>
      <trkpt lat="45.64952" lon="6.24663">
        <ele>-22.04</ele>
        <time>2020-07-13T06:59:29Z</time>
      </trkpt>
      <trkpt lat="45.64949" lon="6.2465">
        <ele>-22.04</ele>
        <time>2020-07-13T06:59:39Z</time>
      </trkpt>
      <trkpt lat="45.64945" lon="6.24641">
        <ele>-22.04</ele>
        <time>2020-07-13T06:59:49Z</time>
      </trkpt>
      <trkpt lat="45.64944" lon="6.2463">
        <ele>-22.04</ele>
        <time>2020-07-13T06:59:59Z</time>
      </trkpt>
      <trkpt lat="45.6494" lon="6.24624">
        <ele>-22.04</ele>
        <time>2020-07-13T07:00:09Z</time>
      </trkpt>
      <trkpt lat="45.64933" lon="6.24621">
        <ele>-22.04</ele>
        <time>2020-07-13T07:00:18Z</time>
      </trkpt>
      <trkpt lat="45.64929" lon="6.24617">
        <ele>-22.04</ele>
        <time>2020-07-13T07:00:24Z</time>
      </trkpt>
      <trkpt lat="45.64922" lon="6.24607">
        <ele>-22.04</ele>
        <time>2020-07-13T07:00:34Z</time>
      </trkpt>
      <trkpt lat="45.64914" lon="6.246">
        <ele>-22.04</ele>
        <time>2020-07-13T07:00:44Z</time>
      </trkpt>
      <trkpt lat="45.64908" lon="6.24589">
        <ele>-22.04</ele>
        <time>2020-07-13T07:00:54Z</time>
      </trkpt>
      <trkpt lat="45.64906" lon="6.24583">
        <ele>-22.04</ele>
        <time>2020-07-13T07:00:59Z</time>
      </trkpt>
      <trkpt lat="45.64902" lon="6.2458">
        <ele>-22.04</ele>
        <time>2020-07-13T07:01:09Z</time>
      </trkpt>
      <trkpt lat="45.64898" lon="6.24577">
        <ele>-22.04</ele>
        <time>2020-07-13T07:01:19Z</time>
      </trkpt>
      <trkpt lat="45.64885" lon="6.24575">
        <ele>-22.04</ele>
        <time>2020-07-13T07:01:29Z</time>
      </trkpt>
      <trkpt lat="45.64877" lon="6.24573">
        <ele>-22.04</ele>
        <time>2020-07-13T07:01:39Z</time>
      </trkpt>
      <trkpt lat="45.64872" lon="6.24569">
        <ele>-22.04</ele>
        <time>2020-07-13T07:01:44Z</time>
      </trkpt>
      <trkpt lat="45.64866" lon="6.24562">
        <ele>-22.04</ele>
        <time>2020-07-13T07:01:54Z</time>
      </trkpt>
      <trkpt lat="45.64861" lon="6.2456">
        <ele>-22.04</ele>
        <time>2020-07-13T07:02:04Z</time>
      </trkpt>
      <trkpt lat="45.64861" lon="6.24569">
        <ele>-22.04</ele>
        <time>2020-07-13T07:02:14Z</time>
      </trkpt>
      <trkpt lat="45.6486" lon="6.24567">
        <ele>-22.04</ele>
        <time>2020-07-13T07:02:39Z</time>
      </trkpt>
      <trkpt lat="45.64858" lon="6.24573">
        <ele>-22.04</ele>
        <time>2020-07-13T07:02:59Z</time>
      </trkpt>
      <trkpt lat="45.64853" lon="6.24567">
        <ele>-22.04</ele>
        <time>2020-07-13T07:03:04Z</time>
      </trkpt>
      <trkpt lat="45.64847" lon="6.24567">
        <ele>-22.04</ele>
        <time>2020-07-13T07:03:18Z</time>
      </trkpt>
      <trkpt lat="45.64844" lon="6.24568">
        <ele>-22.04</ele>
        <time>2020-07-13T07:03:48Z</time>
      </trkpt>
      <trkpt lat="45.64848" lon="6.24574">
        <ele>-22.04</ele>
        <time>2020-07-13T07:03:54Z</time>
      </trkpt>
      <trkpt lat="45.64851" lon="6.2458">
        <ele>-22.04</ele>
        <time>2020-07-13T07:03:59Z</time>
      </trkpt>
      <trkpt lat="45.64857" lon="6.2459">
        <ele>-22.04</ele>
        <time>2020-07-13T07:04:09Z</time>
      </trkpt>
      <trkpt lat="45.64867" lon="6.24601">
        <ele>-22.04</ele>
        <time>2020-07-13T07:04:19Z</time>
      </trkpt>
      <trkpt lat="45.64875" lon="6.24609">
        <ele>-22.04</ele>
        <time>2020-07-13T07:04:29Z</time>
      </trkpt>
      <trkpt lat="45.64877" lon="6.24618">
        <ele>-22.04</ele>
        <time>2020-07-13T07:04:39Z</time>
      </trkpt>
      <trkpt lat="45.64881" lon="6.24626">
        <ele>-22.04</ele>
        <time>2020-07-13T07:04:48Z</time>
      </trkpt>
      <trkpt lat="45.64882" lon="6.24632">
        <ele>-22.04</ele>
        <time>2020-07-13T07:04:54Z</time>
      </trkpt>
      <trkpt lat="45.64882" lon="6.24641">
        <ele>-22.04</ele>
        <time>2020-07-13T07:05:04Z</time>
      </trkpt>
      <trkpt lat="45.64883" lon="6.24652">
        <ele>-22.04</ele>
        <time>2020-07-13T07:05:14Z</time>
      </trkpt>
      <trkpt lat="45.64884" lon="6.24659">
        <ele>-22.04</ele>
        <time>2020-07-13T07:05:19Z</time>
      </trkpt>
      <trkpt lat="45.64885" lon="6.24665">
        <ele>-22.04</ele>
        <time>2020-07-13T07:05:24Z</time>
      </trkpt>
      <trkpt lat="45.64888" lon="6.24673">
        <ele>-22.04</ele>
        <time>2020-07-13T07:05:33Z</time>
      </trkpt>
      <trkpt lat="45.6489" lon="6.24681">
        <ele>-22.04</ele>
        <time>2020-07-13T07:05:39Z</time>
      </trkpt>
      <trkpt lat="45.64888" lon="6.24676">
        <ele>-22.04</ele>
        <time>2020-07-13T07:05:53Z</time>
      </trkpt>
      <trkpt lat="45.64886" lon="6.2467">
        <ele>-22.04</ele>
        <time>2020-07-13T07:05:59Z</time>
      </trkpt>
      <trkpt lat="45.64882" lon="6.24663">
        <ele>-22.04</ele>
        <time>2020-07-13T07:06:09Z</time>
      </trkpt>
      <trkpt lat="45.64876" lon="6.24657">
        <ele>-22.04</ele>
        <time>2020-07-13T07:06:18Z</time>
      </trkpt>
      <trkpt lat="45.64876" lon="6.24647">
        <ele>-22.04</ele>
        <time>2020-07-13T07:06:24Z</time>
      </trkpt>
      <trkpt lat="45.64869" lon="6.24637">
        <ele>-22.04</ele>
        <time>2020-07-13T07:06:34Z</time>
      </trkpt>
      <trkpt lat="45.64862" lon="6.24629">
        <ele>-22.04</ele>
        <time>2020-07-13T07:06:44Z</time>
      </trkpt>
      <trkpt lat="45.64858" lon="6.24623">
        <ele>-22.04</ele>
        <time>2020-07-13T07:06:54Z</time>
      </trkpt>
      <trkpt lat="45.64854" lon="6.24615">
        <ele>-22.04</ele>
        <time>2020-07-13T07:07:09Z</time>
      </trkpt>
      <trkpt lat="45.6485" lon="6.2461">
        <ele>-22.04</ele>
        <time>2020-07-13T07:07:19Z</time>
      </trkpt>
      <trkpt lat="45.64843" lon="6.24607">
        <ele>-22.04</ele>
        <time>2020-07-13T07:07:29Z</time>
      </trkpt>
      <trkpt lat="45.64837" lon="6.24604">
        <ele>-22.04</ele>
        <time>2020-07-13T07:07:39Z</time>
      </trkpt>
      <trkpt lat="45.6483" lon="6.24599">
        <ele>-22.04</ele>
        <time>2020-07-13T07:07:48Z</time>
      </trkpt>
      <trkpt lat="45.64825" lon="6.24598">
        <ele>-22.04</ele>
        <time>2020-07-13T07:07:54Z</time>
      </trkpt>
      <trkpt lat="45.64828" lon="6.24614">
        <ele>-22.04</ele>
        <time>2020-07-13T07:08:04Z</time>
      </trkpt>
      <trkpt lat="45.64829" lon="6.24624">
        <ele>-22.04</ele>
        <time>2020-07-13T07:08:14Z</time>
      </trkpt>
      <trkpt lat="45.6483" lon="6.2463">
        <ele>-22.04</ele>
        <time>2020-07-13T07:08:19Z</time>
      </trkpt>
      <trkpt lat="45.64831" lon="6.24639">
        <ele>-22.04</ele>
        <time>2020-07-13T07:08:24Z</time>
      </trkpt>
      <trkpt lat="45.64833" lon="6.24645">
        <ele>-22.04</ele>
        <time>2020-07-13T07:08:29Z</time>
      </trkpt>
      <trkpt lat="45.64837" lon="6.24652">
        <ele>-22.04</ele>
        <time>2020-07-13T07:08:39Z</time>
      </trkpt>
      <trkpt lat="45.64844" lon="6.24656">
        <ele>-22.04</ele>
        <time>2020-07-13T07:08:49Z</time>
      </trkpt>
      <trkpt lat="45.64844" lon="6.24664">
        <ele>-22.04</ele>
        <time>2020-07-13T07:08:59Z</time>
      </trkpt>
      <trkpt lat="45.64844" lon="6.24671">
        <ele>-22.04</ele>
        <time>2020-07-13T07:09:09Z</time>
      </trkpt>
      <trkpt lat="45.64845" lon="6.24682">
        <ele>-22.04</ele>
        <time>2020-07-13T07:09:18Z</time>
      </trkpt>
      <trkpt lat="45.64849" lon="6.24687">
        <ele>-22.04</ele>
        <time>2020-07-13T07:09:24Z</time>
      </trkpt>
      <trkpt lat="45.64852" lon="6.24701">
        <ele>-22.04</ele>
        <time>2020-07-13T07:09:34Z</time>
      </trkpt>
      <trkpt lat="45.64855" lon="6.24715">
        <ele>-22.04</ele>
        <time>2020-07-13T07:09:44Z</time>
      </trkpt>
      <trkpt lat="45.64858" lon="6.24723">
        <ele>-22.04</ele>
        <time>2020-07-13T07:09:54Z</time>
      </trkpt>
      <trkpt lat="45.64861" lon="6.2473">
        <ele>-22.04</ele>
        <time>2020-07-13T07:09:59Z</time>
      </trkpt>
      <trkpt lat="45.64862" lon="6.24735">
        <ele>-22.04</ele>
        <time>2020-07-13T07:10:09Z</time>
      </trkpt>
      <trkpt lat="45.64859" lon="6.24731">
        <ele>-22.04</ele>
        <time>2020-07-13T07:10:19Z</time>
      </trkpt>
      <trkpt lat="45.64858" lon="6.24721">
        <ele>-22.04</ele>
        <time>2020-07-13T07:10:29Z</time>
      </trkpt>
      <trkpt lat="45.64854" lon="6.24712">
        <ele>-22.04</ele>
        <time>2020-07-13T07:10:39Z</time>
      </trkpt>
      <trkpt lat="45.64851" lon="6.247">
        <ele>-22.04</ele>
        <time>2020-07-13T07:10:48Z</time>
      </trkpt>
      <trkpt lat="45.64848" lon="6.24691">
        <ele>-22.04</ele>
        <time>2020-07-13T07:10:54Z</time>
      </trkpt>
      <trkpt lat="45.64845" lon="6.24681">
        <ele>-22.04</ele>
        <time>2020-07-13T07:11:04Z</time>
      </trkpt>
      <trkpt lat="45.64843" lon="6.24673">
        <ele>-22.04</ele>
        <time>2020-07-13T07:11:14Z</time>
      </trkpt>
      <trkpt lat="45.64836" lon="6.24671">
        <ele>-21.099</ele>
        <time>2020-07-13T07:11:24Z</time>
      </trkpt>
      <trkpt lat="45.64831" lon="6.24667">
        <ele>-21.099</ele>
        <time>2020-07-13T07:11:29Z</time>
      </trkpt>
      <trkpt lat="45.64825" lon="6.24657">
        <ele>-21.099</ele>
        <time>2020-07-13T07:11:39Z</time>
      </trkpt>
      <trkpt lat="45.64824" lon="6.2465">
        <ele>-21.099</ele>
        <time>2020-07-13T07:11:49Z</time>
      </trkpt>
      <trkpt lat="45.64818" lon="6.24644">
        <ele>-21.099</ele>
        <time>2020-07-13T07:11:59Z</time>
      </trkpt>
      <trkpt lat="45.64813" lon="6.24638">
        <ele>-21.099</ele>
        <time>2020-07-13T07:12:09Z</time>
      </trkpt>
      <trkpt lat="45.6481" lon="6.24633">
        <ele>-21.099</ele>
        <time>2020-07-13T07:12:14Z</time>
      </trkpt>
      <trkpt lat="45.64804" lon="6.24647">
        <ele>-17.134</ele>
        <time>2020-07-13T07:12:24Z</time>
      </trkpt>
      <trkpt lat="45.64803" lon="6.24656">
        <ele>-17.134</ele>
        <time>2020-07-13T07:12:34Z</time>
      </trkpt>
      <trkpt lat="45.64801" lon="6.24668">
        <ele>-17.134</ele>
        <time>2020-07-13T07:12:44Z</time>
      </trkpt>
      <trkpt lat="45.64806" lon="6.24674">
        <ele>-17.134</ele>
        <time>2020-07-13T07:12:49Z</time>
      </trkpt>
      <trkpt lat="45.64809" lon="6.24679">
        <ele>-17.134</ele>
        <time>2020-07-13T07:12:54Z</time>
      </trkpt>
      <trkpt lat="45.64806" lon="6.24685">
        <ele>-17.134</ele>
        <time>2020-07-13T07:12:59Z</time>
      </trkpt>
      <trkpt lat="45.64811" lon="6.24695">
        <ele>-17.134</ele>
        <time>2020-07-13T07:13:09Z</time>
      </trkpt>
      <trkpt lat="45.64815" lon="6.24706">
        <ele>-17.134</ele>
        <time>2020-07-13T07:13:19Z</time>
      </trkpt>
      <trkpt lat="45.64818" lon="6.2471">
        <ele>-17.134</ele>
        <time>2020-07-13T07:13:29Z</time>
      </trkpt>
      <trkpt lat="45.64824" lon="6.24708">
        <ele>-17.134</ele>
        <time>2020-07-13T07:15:14Z</time>
      </trkpt>
      <trkpt lat="45.64822" lon="6.24717">
        <ele>-12.837</ele>
        <time>2020-07-13T07:17:18Z</time>
      </trkpt>
      <trkpt lat="45.64822" lon="6.24723">
        <ele>-12.837</ele>
        <time>2020-07-13T07:17:24Z</time>
      </trkpt>
      <trkpt lat="45.64822" lon="6.2473">
        <ele>-12.837</ele>
        <time>2020-07-13T07:17:29Z</time>
      </trkpt>
      <trkpt lat="45.64824" lon="6.2474">
        <ele>-12.837</ele>
        <time>2020-07-13T07:17:39Z</time>
      </trkpt>
      <trkpt lat="45.64827" lon="6.24747">
        <ele>-12.837</ele>
        <time>2020-07-13T07:17:49Z</time>
      </trkpt>
      <trkpt lat="45.64827" lon="6.24755">
        <ele>-12.837</ele>
        <time>2020-07-13T07:17:59Z</time>
      </trkpt>
      <trkpt lat="45.64824" lon="6.24764">
        <ele>-12.837</ele>
        <time>2020-07-13T07:18:09Z</time>
      </trkpt>
      <trkpt lat="45.64821" lon="6.24766">
        <ele>-12.837</ele>
        <time>2020-07-13T07:18:14Z</time>
      </trkpt>
      <trkpt lat="45.6482" lon="6.24766">
        <ele>-12.837</ele>
        <time>2020-07-13T07:18:24Z</time>
      </trkpt>
      <trkpt lat="45.64815" lon="6.24752">
        <ele>-12.837</ele>
        <time>2020-07-13T07:18:34Z</time>
      </trkpt>
      <trkpt lat="45.64808" lon="6.24741">
        <ele>-12.837</ele>
        <time>2020-07-13T07:18:44Z</time>
      </trkpt>
      <trkpt lat="45.64807" lon="6.24735">
        <ele>-12.837</ele>
        <time>2020-07-13T07:18:49Z</time>
      </trkpt>
      <trkpt lat="45.64805" lon="6.24735">
        <ele>-12.837</ele>
        <time>2020-07-13T07:18:59Z</time>
      </trkpt>
      <trkpt lat="45.64802" lon="6.24729">
        <ele>-12.837</ele>
        <time>2020-07-13T07:19:09Z</time>
      </trkpt>
      <trkpt lat="45.64798" lon="6.24717">
        <ele>-12.837</ele>
        <time>2020-07-13T07:19:19Z</time>
      </trkpt>
      <trkpt lat="45.64794" lon="6.24707">
        <ele>-12.837</ele>
        <time>2020-07-13T07:19:29Z</time>
      </trkpt>
      <trkpt lat="45.64793" lon="6.24713">
        <ele>-12.837</ele>
        <time>2020-07-13T07:19:54Z</time>
      </trkpt>
      <trkpt lat="45.64787" lon="6.24701">
        <ele>-12.837</ele>
        <time>2020-07-13T07:20:04Z</time>
      </trkpt>
      <trkpt lat="45.6478" lon="6.24689">
        <ele>-12.837</ele>
        <time>2020-07-13T07:20:14Z</time>
      </trkpt>
      <trkpt lat="45.64777" lon="6.24686">
        <ele>-12.837</ele>
        <time>2020-07-13T07:20:19Z</time>
      </trkpt>
      <trkpt lat="45.64775" lon="6.2469">
        <ele>-12.837</ele>
        <time>2020-07-13T07:20:29Z</time>
      </trkpt>
      <trkpt lat="45.64783" lon="6.24697">
        <ele>-12.837</ele>
        <time>2020-07-13T07:20:39Z</time>
      </trkpt>
      <trkpt lat="45.64785" lon="6.24702">
        <ele>-12.837</ele>
        <time>2020-07-13T07:20:49Z</time>
      </trkpt>
      <trkpt lat="45.64783" lon="6.24711">
        <ele>-12.837</ele>
        <time>2020-07-13T07:20:59Z</time>
      </trkpt>
      <trkpt lat="45.64782" lon="6.24717">
        <ele>-12.837</ele>
        <time>2020-07-13T07:21:04Z</time>
      </trkpt>
      <trkpt lat="45.64781" lon="6.24724">
        <ele>-12.837</ele>
        <time>2020-07-13T07:21:14Z</time>
      </trkpt>
      <trkpt lat="45.64779" lon="6.24734">
        <ele>-12.837</ele>
        <time>2020-07-13T07:21:28Z</time>
      </trkpt>
      <trkpt lat="45.64775" lon="6.24743">
        <ele>-12.837</ele>
        <time>2020-07-13T07:21:34Z</time>
      </trkpt>
      <trkpt lat="45.64772" lon="6.2476">
        <ele>-12.837</ele>
        <time>2020-07-13T07:21:44Z</time>
      </trkpt>
      <trkpt lat="45.64771" lon="6.24773">
        <ele>-12.837</ele>
        <time>2020-07-13T07:21:54Z</time>
      </trkpt>
      <trkpt lat="45.64767" lon="6.2478">
        <ele>-12.837</ele>
        <time>2020-07-13T07:21:59Z</time>
      </trkpt>
      <trkpt lat="45.64761" lon="6.24792">
        <ele>-12.837</ele>
        <time>2020-07-13T07:22:09Z</time>
      </trkpt>
      <trkpt lat="45.64757" lon="6.24806">
        <ele>-12.837</ele>
        <time>2020-07-13T07:22:19Z</time>
      </trkpt>
      <trkpt lat="45.64753" lon="6.24817">
        <ele>-12.837</ele>
        <time>2020-07-13T07:22:29Z</time>
      </trkpt>
      <trkpt lat="45.64751" lon="6.24823">
        <ele>-12.837</ele>
        <time>2020-07-13T07:22:34Z</time>
      </trkpt>
      <trkpt lat="45.6475" lon="6.24829">
        <ele>-12.837</ele>
        <time>2020-07-13T07:22:44Z</time>
      </trkpt>
      <trkpt lat="45.64747" lon="6.24817">
        <ele>-12.837</ele>
        <time>2020-07-13T07:22:54Z</time>
      </trkpt>
      <trkpt lat="45.64745" lon="6.24805">
        <ele>-12.837</ele>
        <time>2020-07-13T07:23:04Z</time>
      </trkpt>
      <trkpt lat="45.64743" lon="6.24789">
        <ele>-12.837</ele>
        <time>2020-07-13T07:23:14Z</time>
      </trkpt>
      <trkpt lat="45.64744" lon="6.24778">
        <ele>-12.837</ele>
        <time>2020-07-13T07:23:24Z</time>
      </trkpt>
      <trkpt lat="45.64742" lon="6.24769">
        <ele>-12.837</ele>
        <time>2020-07-13T07:23:29Z</time>
      </trkpt>
      <trkpt lat="45.64739" lon="6.24758">
        <ele>-12.837</ele>
        <time>2020-07-13T07:23:39Z</time>
      </trkpt>
      <trkpt lat="45.64733" lon="6.24748">
        <ele>-12.837</ele>
        <time>2020-07-13T07:23:49Z</time>
      </trkpt>
      <trkpt lat="45.64729" lon="6.24734">
        <ele>-12.837</ele>
        <time>2020-07-13T07:23:59Z</time>
      </trkpt>
      <trkpt lat="45.64728" lon="6.24728">
        <ele>-12.837</ele>
        <time>2020-07-13T07:24:04Z</time>
      </trkpt>
      <trkpt lat="45.64725" lon="6.24721">
        <ele>-12.837</ele>
        <time>2020-07-13T07:24:09Z</time>
      </trkpt>
      <trkpt lat="45.6472" lon="6.24712">
        <ele>-12.837</ele>
        <time>2020-07-13T07:24:14Z</time>
      </trkpt>
      <trkpt lat="45.64718" lon="6.24703">
        <ele>-12.837</ele>
        <time>2020-07-13T07:24:24Z</time>
      </trkpt>
      <trkpt lat="45.64721" lon="6.247">
        <ele>-12.837</ele>
        <time>2020-07-13T07:24:48Z</time>
      </trkpt>
      <trkpt lat="45.64719" lon="6.24698">
        <ele>-12.837</ele>
        <time>2020-07-13T07:24:59Z</time>
      </trkpt>
      <trkpt lat="45.64716" lon="6.24692">
        <ele>-12.837</ele>
        <time>2020-07-13T07:25:04Z</time>
      </trkpt>
      <trkpt lat="45.64714" lon="6.24685">
        <ele>-12.837</ele>
        <time>2020-07-13T07:25:09Z</time>
      </trkpt>
      <trkpt lat="45.64708" lon="6.2468">
        <ele>-12.837</ele>
        <time>2020-07-13T07:25:19Z</time>
      </trkpt>
      <trkpt lat="45.647" lon="6.24678">
        <ele>-12.837</ele>
        <time>2020-07-13T07:25:29Z</time>
      </trkpt>
      <trkpt lat="45.64696" lon="6.24677">
        <ele>-12.837</ele>
        <time>2020-07-13T07:25:34Z</time>
      </trkpt>
      <trkpt lat="45.64696" lon="6.24689">
        <ele>-12.837</ele>
        <time>2020-07-13T07:25:44Z</time>
      </trkpt>
      <trkpt lat="45.64701" lon="6.24694">
        <ele>-12.837</ele>
        <time>2020-07-13T07:25:49Z</time>
      </trkpt>
      <trkpt lat="45.64704" lon="6.247">
        <ele>-12.837</ele>
        <time>2020-07-13T07:25:54Z</time>
      </trkpt>
      <trkpt lat="45.64719" lon="6.24707">
        <ele>-12.837</ele>
        <time>2020-07-13T07:26:04Z</time>
      </trkpt>
      <trkpt lat="45.64723" lon="6.24717">
        <ele>-12.837</ele>
        <time>2020-07-13T07:26:14Z</time>
      </trkpt>
      <trkpt lat="45.64726" lon="6.24724">
        <ele>-12.837</ele>
        <time>2020-07-13T07:26:19Z</time>
      </trkpt>
      <trkpt lat="45.64725" lon="6.24731">
        <ele>-12.837</ele>
        <time>2020-07-13T07:26:29Z</time>
      </trkpt>
      <trkpt lat="45.64721" lon="6.24737">
        <ele>-12.837</ele>
        <time>2020-07-13T07:26:39Z</time>
      </trkpt>
      <trkpt lat="45.64716" lon="6.24747">
        <ele>-12.837</ele>
        <time>2020-07-13T07:26:49Z</time>
      </trkpt>
      <trkpt lat="45.6471" lon="6.24753">
        <ele>-12.837</ele>
        <time>2020-07-13T07:26:59Z</time>
      </trkpt>
      <trkpt lat="45.64705" lon="6.24759">
        <ele>-12.837</ele>
        <time>2020-07-13T07:27:09Z</time>
      </trkpt>
      <trkpt lat="45.64701" lon="6.24766">
        <ele>-12.837</ele>
        <time>2020-07-13T07:27:14Z</time>
      </trkpt>
      <trkpt lat="45.64697" lon="6.24772">
        <ele>-12.837</ele>
        <time>2020-07-13T07:27:19Z</time>
      </trkpt>
      <trkpt lat="45.64693" lon="6.24775">
        <ele>-12.837</ele>
        <time>2020-07-13T07:27:24Z</time>
      </trkpt>
      <trkpt lat="45.64688" lon="6.24778">
        <ele>-12.837</ele>
        <time>2020-07-13T07:27:34Z</time>
      </trkpt>
      <trkpt lat="45.64682" lon="6.24789">
        <ele>-12.837</ele>
        <time>2020-07-13T07:27:44Z</time>
      </trkpt>
      <trkpt lat="45.64679" lon="6.24796">
        <ele>-12.837</ele>
        <time>2020-07-13T07:27:49Z</time>
      </trkpt>
      <trkpt lat="45.64675" lon="6.24803">
        <ele>-12.837</ele>
        <time>2020-07-13T07:27:59Z</time>
      </trkpt>
      <trkpt lat="45.64669" lon="6.24812">
        <ele>-12.837</ele>
        <time>2020-07-13T07:28:09Z</time>
      </trkpt>
      <trkpt lat="45.6466" lon="6.24824">
        <ele>-12.837</ele>
        <time>2020-07-13T07:28:19Z</time>
      </trkpt>
      <trkpt lat="45.64654" lon="6.24833">
        <ele>-12.837</ele>
        <time>2020-07-13T07:28:29Z</time>
      </trkpt>
      <trkpt lat="45.64647" lon="6.24847">
        <ele>-12.837</ele>
        <time>2020-07-13T07:28:39Z</time>
      </trkpt>
      <trkpt lat="45.6464" lon="6.24859">
        <ele>-12.837</ele>
        <time>2020-07-13T07:28:49Z</time>
      </trkpt>
      <trkpt lat="45.64636" lon="6.24864">
        <ele>-12.837</ele>
        <time>2020-07-13T07:28:54Z</time>
      </trkpt>
      <trkpt lat="45.64632" lon="6.24878">
        <ele>-12.837</ele>
        <time>2020-07-13T07:29:04Z</time>
      </trkpt>
      <trkpt lat="45.6463" lon="6.2489">
        <ele>-12.837</ele>
        <time>2020-07-13T07:29:14Z</time>
      </trkpt>
      <trkpt lat="45.64625" lon="6.24906">
        <ele>-9.067</ele>
        <time>2020-07-13T07:29:24Z</time>
      </trkpt>
      <trkpt lat="45.64624" lon="6.24913">
        <ele>-9.067</ele>
        <time>2020-07-13T07:29:29Z</time>
      </trkpt>
      <trkpt lat="45.64624" lon="6.24918">
        <ele>-9.067</ele>
        <time>2020-07-13T07:29:43Z</time>
      </trkpt>
      <trkpt lat="45.64622" lon="6.24925">
        <ele>-9.067</ele>
        <time>2020-07-13T07:29:53Z</time>
      </trkpt>
      <trkpt lat="45.6462" lon="6.24938">
        <ele>-9.067</ele>
        <time>2020-07-13T07:29:59Z</time>
      </trkpt>
      <trkpt lat="45.64614" lon="6.24933">
        <ele>-9.067</ele>
        <time>2020-07-13T07:30:09Z</time>
      </trkpt>
      <trkpt lat="45.64607" lon="6.24926">
        <ele>-6.263</ele>
        <time>2020-07-13T07:30:19Z</time>
      </trkpt>
      <trkpt lat="45.64603" lon="6.24922">
        <ele>-6.263</ele>
        <time>2020-07-13T07:30:24Z</time>
      </trkpt>
      <trkpt lat="45.64598" lon="6.24909">
        <ele>-6.263</ele>
        <time>2020-07-13T07:30:34Z</time>
      </trkpt>
      <trkpt lat="45.64593" lon="6.24899">
        <ele>-6.263</ele>
        <time>2020-07-13T07:30:44Z</time>
      </trkpt>
      <trkpt lat="45.64586" lon="6.2489">
        <ele>-6.263</ele>
        <time>2020-07-13T07:30:54Z</time>
      </trkpt>
      <trkpt lat="45.64583" lon="6.24882">
        <ele>-6.263</ele>
        <time>2020-07-13T07:30:59Z</time>
      </trkpt>
      <trkpt lat="45.6458" lon="6.24874">
        <ele>-6.263</ele>
        <time>2020-07-13T07:31:04Z</time>
      </trkpt>
      <trkpt lat="45.64577" lon="6.24867">
        <ele>-6.263</ele>
        <time>2020-07-13T07:31:09Z</time>
      </trkpt>
      <trkpt lat="45.64576" lon="6.24859">
        <ele>-6.263</ele>
        <time>2020-07-13T07:31:19Z</time>
      </trkpt>
      <trkpt lat="45.64573" lon="6.24846">
        <ele>-6.263</ele>
        <time>2020-07-13T07:31:29Z</time>
      </trkpt>
      <trkpt lat="45.6457" lon="6.24835">
        <ele>-6.263</ele>
        <time>2020-07-13T07:31:39Z</time>
      </trkpt>
      <trkpt lat="45.64569" lon="6.24828">
        <ele>-6.263</ele>
        <time>2020-07-13T07:31:44Z</time>
      </trkpt>
      <trkpt lat="45.64566" lon="6.2482">
        <ele>-6.263</ele>
        <time>2020-07-13T07:31:54Z</time>
      </trkpt>
      <trkpt lat="45.64566" lon="6.2481">
        <ele>-6.263</ele>
        <time>2020-07-13T07:32:04Z</time>
      </trkpt>
      <trkpt lat="45.64568" lon="6.24805">
        <ele>-6.263</ele>
        <time>2020-07-13T07:32:14Z</time>
      </trkpt>
      <trkpt lat="45.6457" lon="6.24791">
        <ele>-6.263</ele>
        <time>2020-07-13T07:32:24Z</time>
      </trkpt>
      <trkpt lat="45.64573" lon="6.24785">
        <ele>-6.263</ele>
        <time>2020-07-13T07:32:29Z</time>
      </trkpt>
      <trkpt lat="45.64575" lon="6.24778">
        <ele>-6.263</ele>
        <time>2020-07-13T07:32:34Z</time>
      </trkpt>
      <trkpt lat="45.64578" lon="6.2477">
        <ele>-6.263</ele>
        <time>2020-07-13T07:32:39Z</time>
      </trkpt>
      <trkpt lat="45.64581" lon="6.2476">
        <ele>-6.263</ele>
        <time>2020-07-13T07:32:49Z</time>
      </trkpt>
      <trkpt lat="45.64585" lon="6.24747">
        <ele>-6.263</ele>
        <time>2020-07-13T07:32:59Z</time>
      </trkpt>
      <trkpt lat="45.64591" lon="6.24733">
        <ele>-6.263</ele>
        <time>2020-07-13T07:33:09Z</time>
      </trkpt>
      <trkpt lat="45.64594" lon="6.24727">
        <ele>-6.263</ele>
        <time>2020-07-13T07:33:14Z</time>
      </trkpt>
      <trkpt lat="45.64597" lon="6.24718">
        <ele>-6.263</ele>
        <time>2020-07-13T07:33:19Z</time>
      </trkpt>
      <trkpt lat="45.64596" lon="6.24708">
        <ele>-6.263</ele>
        <time>2020-07-13T07:33:28Z</time>
      </trkpt>
      <trkpt lat="45.64593" lon="6.24705">
        <ele>-6.263</ele>
        <time>2020-07-13T07:33:38Z</time>
      </trkpt>
      <trkpt lat="45.64591" lon="6.24699">
        <ele>-6.263</ele>
        <time>2020-07-13T07:33:44Z</time>
      </trkpt>
      <trkpt lat="45.64584" lon="6.24692">
        <ele>-6.263</ele>
        <time>2020-07-13T07:33:54Z</time>
      </trkpt>
      <trkpt lat="45.64576" lon="6.24686">
        <ele>-6.263</ele>
        <time>2020-07-13T07:34:04Z</time>
      </trkpt>
      <trkpt lat="45.64579" lon="6.24682">
        <ele>-6.263</ele>
        <time>2020-07-13T07:34:09Z</time>
      </trkpt>
      <trkpt lat="45.64588" lon="6.24685">
        <ele>-6.263</ele>
        <time>2020-07-13T07:34:19Z</time>
      </trkpt>
      <trkpt lat="45.64583" lon="6.24673">
        <ele>-6.263</ele>
        <time>2020-07-13T07:34:29Z</time>
      </trkpt>
      <trkpt lat="45.64578" lon="6.24658">
        <ele>-6.263</ele>
        <time>2020-07-13T07:34:39Z</time>
      </trkpt>
      <trkpt lat="45.64573" lon="6.24654">
        <ele>-6.263</ele>
        <time>2020-07-13T07:34:49Z</time>
      </trkpt>
      <trkpt lat="45.64565" lon="6.24649">
        <ele>-6.263</ele>
        <time>2020-07-13T07:34:58Z</time>
      </trkpt>
      <trkpt lat="45.64562" lon="6.24646">
        <ele>-6.263</ele>
        <time>2020-07-13T07:35:04Z</time>
      </trkpt>
      <trkpt lat="45.64555" lon="6.24644">
        <ele>-6.263</ele>
        <time>2020-07-13T07:35:14Z</time>
      </trkpt>
      <trkpt lat="45.64549" lon="6.24637">
        <ele>-6.263</ele>
        <time>2020-07-13T07:35:24Z</time>
      </trkpt>
      <trkpt lat="45.64544" lon="6.24632">
        <ele>-6.263</ele>
        <time>2020-07-13T07:35:34Z</time>
      </trkpt>
      <trkpt lat="45.64537" lon="6.24628">
        <ele>-6.263</ele>
        <time>2020-07-13T07:35:43Z</time>
      </trkpt>
      <trkpt lat="45.64533" lon="6.24623">
        <ele>-6.263</ele>
        <time>2020-07-13T07:35:53Z</time>
      </trkpt>
      <trkpt lat="45.64527" lon="6.2462">
        <ele>-6.263</ele>
        <time>2020-07-13T07:35:59Z</time>
      </trkpt>
      <trkpt lat="45.64522" lon="6.24608">
        <ele>-6.263</ele>
        <time>2020-07-13T07:36:09Z</time>
      </trkpt>
      <trkpt lat="45.64521" lon="6.24599">
        <ele>-6.263</ele>
        <time>2020-07-13T07:36:19Z</time>
      </trkpt>
      <trkpt lat="45.6452" lon="6.24591">
        <ele>-6.263</ele>
        <time>2020-07-13T07:36:24Z</time>
      </trkpt>
      <trkpt lat="45.64517" lon="6.24579">
        <ele>-6.263</ele>
        <time>2020-07-13T07:36:34Z</time>
      </trkpt>
      <trkpt lat="45.64513" lon="6.24573">
        <ele>-6.263</ele>
        <time>2020-07-13T07:36:44Z</time>
      </trkpt>
      <trkpt lat="45.64508" lon="6.24563">
        <ele>-6.263</ele>
        <time>2020-07-13T07:36:54Z</time>
      </trkpt>
      <trkpt lat="45.645" lon="6.24562">
        <ele>-6.263</ele>
        <time>2020-07-13T07:37:04Z</time>
      </trkpt>
      <trkpt lat="45.64497" lon="6.24565">
        <ele>-6.263</ele>
        <time>2020-07-13T07:37:23Z</time>
      </trkpt>
      <trkpt lat="45.64499" lon="6.24565">
        <ele>-6.263</ele>
        <time>2020-07-13T07:38:14Z</time>
      </trkpt>
      <trkpt lat="45.64502" lon="6.24575">
        <ele>-6.263</ele>
        <time>2020-07-13T07:38:28Z</time>
      </trkpt>
      <trkpt lat="45.64502" lon="6.24586">
        <ele>-6.263</ele>
        <time>2020-07-13T07:38:34Z</time>
      </trkpt>
      <trkpt lat="45.64504" lon="6.24595">
        <ele>-6.263</ele>
        <time>2020-07-13T07:38:43Z</time>
      </trkpt>
      <trkpt lat="45.64506" lon="6.24601">
        <ele>-6.263</ele>
        <time>2020-07-13T07:38:59Z</time>
      </trkpt>
      <trkpt lat="45.64507" lon="6.24597">
        <ele>-6.263</ele>
        <time>2020-07-13T07:39:24Z</time>
      </trkpt>
      <trkpt lat="45.64509" lon="6.24593">
        <ele>-6.263</ele>
        <time>2020-07-13T07:39:34Z</time>
      </trkpt>
      <trkpt lat="45.64513" lon="6.24596">
        <ele>-6.263</ele>
        <time>2020-07-13T07:39:54Z</time>
      </trkpt>
      <trkpt lat="45.64515" lon="6.24601">
        <ele>-6.263</ele>
        <time>2020-07-13T07:40:23Z</time>
      </trkpt>
      <trkpt lat="45.64514" lon="6.24598">
        <ele>-6.263</ele>
        <time>2020-07-13T07:40:49Z</time>
      </trkpt>
      <trkpt lat="45.64515" lon="6.24597">
        <ele>-6.263</ele>
        <time>2020-07-13T07:41:04Z</time>
      </trkpt>
      <trkpt lat="45.64518" lon="6.24613">
        <ele>-6.263</ele>
        <time>2020-07-13T07:41:14Z</time>
      </trkpt>
      <trkpt lat="45.64521" lon="6.24629">
        <ele>-6.263</ele>
        <time>2020-07-13T07:41:24Z</time>
      </trkpt>
      <trkpt lat="45.64523" lon="6.24636">
        <ele>-6.263</ele>
        <time>2020-07-13T07:41:29Z</time>
      </trkpt>
      <trkpt lat="45.64525" lon="6.24644">
        <ele>-6.263</ele>
        <time>2020-07-13T07:41:34Z</time>
      </trkpt>
      <trkpt lat="45.64528" lon="6.24651">
        <ele>-6.263</ele>
        <time>2020-07-13T07:41:39Z</time>
      </trkpt>
      <trkpt lat="45.64532" lon="6.24659">
        <ele>-6.263</ele>
        <time>2020-07-13T07:41:49Z</time>
      </trkpt>
      <trkpt lat="45.64536" lon="6.24668">
        <ele>-6.263</ele>
        <time>2020-07-13T07:41:59Z</time>
      </trkpt>
      <trkpt lat="45.64544" lon="6.24676">
        <ele>-6.263</ele>
        <time>2020-07-13T07:42:09Z</time>
      </trkpt>
      <trkpt lat="45.64545" lon="6.24685">
        <ele>-6.263</ele>
        <time>2020-07-13T07:42:19Z</time>
      </trkpt>
      <trkpt lat="45.64545" lon="6.24692">
        <ele>-6.263</ele>
        <time>2020-07-13T07:42:28Z</time>
      </trkpt>
      <trkpt lat="45.64544" lon="6.24696">
        <ele>-6.263</ele>
        <time>2020-07-13T07:42:38Z</time>
      </trkpt>
      <trkpt lat="45.64549" lon="6.24698">
        <ele>-6.263</ele>
        <time>2020-07-13T07:42:54Z</time>
      </trkpt>
      <trkpt lat="45.64549" lon="6.24701">
        <ele>-6.263</ele>
        <time>2020-07-13T07:43:09Z</time>
      </trkpt>
      <trkpt lat="45.64545" lon="6.24703">
        <ele>-6.263</ele>
        <time>2020-07-13T07:43:29Z</time>
      </trkpt>
      <trkpt lat="45.64544" lon="6.2471">
        <ele>-6.263</ele>
        <time>2020-07-13T07:43:44Z</time>
      </trkpt>
      <trkpt lat="45.64544" lon="6.24715">
        <ele>-6.263</ele>
        <time>2020-07-13T07:44:04Z</time>
      </trkpt>
      <trkpt lat="45.6455" lon="6.2471">
        <ele>-6.263</ele>
        <time>2020-07-13T07:44:34Z</time>
      </trkpt>
      <trkpt lat="45.64549" lon="6.24703">
        <ele>-6.263</ele>
        <time>2020-07-13T07:44:49Z</time>
      </trkpt>
      <trkpt lat="45.64547" lon="6.24703">
        <ele>-6.263</ele>
        <time>2020-07-13T07:45:09Z</time>
      </trkpt>
      <trkpt lat="45.64547" lon="6.24715">
        <ele>-6.263</ele>
        <time>2020-07-13T07:45:18Z</time>
      </trkpt>
      <trkpt lat="45.64545" lon="6.24726">
        <ele>-6.263</ele>
        <time>2020-07-13T07:45:24Z</time>
      </trkpt>
      <trkpt lat="45.6454" lon="6.2474">
        <ele>-6.263</ele>
        <time>2020-07-13T07:45:34Z</time>
      </trkpt>
      <trkpt lat="45.64535" lon="6.24745">
        <ele>-6.263</ele>
        <time>2020-07-13T07:45:44Z</time>
      </trkpt>
      <trkpt lat="45.6453" lon="6.24751">
        <ele>-6.263</ele>
        <time>2020-07-13T07:45:49Z</time>
      </trkpt>
      <trkpt lat="45.64523" lon="6.24757">
        <ele>-6.263</ele>
        <time>2020-07-13T07:45:59Z</time>
      </trkpt>
      <trkpt lat="45.64516" lon="6.24766">
        <ele>-6.263</ele>
        <time>2020-07-13T07:46:09Z</time>
      </trkpt>
      <trkpt lat="45.64509" lon="6.24777">
        <ele>-6.263</ele>
        <time>2020-07-13T07:46:19Z</time>
      </trkpt>
      <trkpt lat="45.64503" lon="6.2479">
        <ele>-6.263</ele>
        <time>2020-07-13T07:46:29Z</time>
      </trkpt>
      <trkpt lat="45.645" lon="6.24796">
        <ele>-6.263</ele>
        <time>2020-07-13T07:46:34Z</time>
      </trkpt>
      <trkpt lat="45.64496" lon="6.24805">
        <ele>-6.263</ele>
        <time>2020-07-13T07:46:39Z</time>
      </trkpt>
      <trkpt lat="45.64494" lon="6.24812">
        <ele>-6.263</ele>
        <time>2020-07-13T07:46:44Z</time>
      </trkpt>
      <trkpt lat="45.64489" lon="6.24823">
        <ele>-6.263</ele>
        <time>2020-07-13T07:46:54Z</time>
      </trkpt>
      <trkpt lat="45.64483" lon="6.24834">
        <ele>-6.263</ele>
        <time>2020-07-13T07:47:04Z</time>
      </trkpt>
      <trkpt lat="45.64478" lon="6.24842">
        <ele>-6.263</ele>
        <time>2020-07-13T07:47:14Z</time>
      </trkpt>
      <trkpt lat="45.64478" lon="6.24853">
        <ele>-6.263</ele>
        <time>2020-07-13T07:47:24Z</time>
      </trkpt>
      <trkpt lat="45.64477" lon="6.24861">
        <ele>-6.263</ele>
        <time>2020-07-13T07:47:29Z</time>
      </trkpt>
      <trkpt lat="45.64475" lon="6.24878">
        <ele>-6.263</ele>
        <time>2020-07-13T07:47:39Z</time>
      </trkpt>
      <trkpt lat="45.64473" lon="6.24893">
        <ele>-6.263</ele>
        <time>2020-07-13T07:47:49Z</time>
      </trkpt>
      <trkpt lat="45.64473" lon="6.24908">
        <ele>-6.263</ele>
        <time>2020-07-13T07:47:59Z</time>
      </trkpt>
      <trkpt lat="45.64473" lon="6.24918">
        <ele>-6.263</ele>
        <time>2020-07-13T07:48:04Z</time>
      </trkpt>
      <trkpt lat="45.6447" lon="6.24927">
        <ele>-6.263</ele>
        <time>2020-07-13T07:48:09Z</time>
      </trkpt>
      <trkpt lat="45.64467" lon="6.24933">
        <ele>-6.263</ele>
        <time>2020-07-13T07:48:14Z</time>
      </trkpt>
      <trkpt lat="45.6446" lon="6.24944">
        <ele>-6.263</ele>
        <time>2020-07-13T07:48:24Z</time>
      </trkpt>
      <trkpt lat="45.6446" lon="6.24957">
        <ele>-6.263</ele>
        <time>2020-07-13T07:48:34Z</time>
      </trkpt>
      <trkpt lat="45.64456" lon="6.24969">
        <ele>-6.263</ele>
        <time>2020-07-13T07:48:44Z</time>
      </trkpt>
      <trkpt lat="45.64453" lon="6.24977">
        <ele>-6.263</ele>
        <time>2020-07-13T07:48:49Z</time>
      </trkpt>
      <trkpt lat="45.64453" lon="6.24991">
        <ele>-6.263</ele>
        <time>2020-07-13T07:48:59Z</time>
      </trkpt>
      <trkpt lat="45.64453" lon="6.25008">
        <ele>-6.263</ele>
        <time>2020-07-13T07:49:09Z</time>
      </trkpt>
      <trkpt lat="45.6445" lon="6.25014">
        <ele>-6.263</ele>
        <time>2020-07-13T07:49:19Z</time>
      </trkpt>
      <trkpt lat="45.64451" lon="6.25023">
        <ele>-6.263</ele>
        <time>2020-07-13T07:49:29Z</time>
      </trkpt>
      <trkpt lat="45.6445" lon="6.25029">
        <ele>-6.263</ele>
        <time>2020-07-13T07:49:39Z</time>
      </trkpt>
      <trkpt lat="45.64447" lon="6.25036">
        <ele>-6.263</ele>
        <time>2020-07-13T07:49:48Z</time>
      </trkpt>
      <trkpt lat="45.64445" lon="6.25044">
        <ele>-6.263</ele>
        <time>2020-07-13T07:49:58Z</time>
      </trkpt>
      <trkpt lat="45.64444" lon="6.25054">
        <ele>-6.263</ele>
        <time>2020-07-13T07:50:08Z</time>
      </trkpt>
      <trkpt lat="45.64447" lon="6.25059">
        <ele>-6.263</ele>
        <time>2020-07-13T07:50:14Z</time>
      </trkpt>
      <trkpt lat="45.64444" lon="6.25069">
        <ele>-6.263</ele>
        <time>2020-07-13T07:50:24Z</time>
      </trkpt>
      <trkpt lat="45.64442" lon="6.25073">
        <ele>-6.263</ele>
        <time>2020-07-13T07:50:33Z</time>
      </trkpt>
      <trkpt lat="45.64438" lon="6.25083">
        <ele>-6.263</ele>
        <time>2020-07-13T07:50:43Z</time>
      </trkpt>
      <trkpt lat="45.64438" lon="6.25091">
        <ele>-6.263</ele>
        <time>2020-07-13T07:50:59Z</time>
      </trkpt>
      <trkpt lat="45.64443" lon="6.25089">
        <ele>-6.263</ele>
        <time>2020-07-13T07:51:09Z</time>
      </trkpt>
      <trkpt lat="45.64446" lon="6.25088">
        <ele>-6.263</ele>
        <time>2020-07-13T07:51:28Z</time>
      </trkpt>
      <trkpt lat="45.64449" lon="6.25088">
        <ele>-6.263</ele>
        <time>2020-07-13T07:51:44Z</time>
      </trkpt>
      <trkpt lat="45.64454" lon="6.25087">
        <ele>-6.263</ele>
        <time>2020-07-13T07:51:54Z</time>
      </trkpt>
      <trkpt lat="45.64459" lon="6.25088">
        <ele>-6.263</ele>
        <time>2020-07-13T07:51:59Z</time>
      </trkpt>
      <trkpt lat="45.64467" lon="6.25096">
        <ele>-6.263</ele>
        <time>2020-07-13T07:52:09Z</time>
      </trkpt>
      <trkpt lat="45.64475" lon="6.25098">
        <ele>-6.263</ele>
        <time>2020-07-13T07:52:19Z</time>
      </trkpt>
      <trkpt lat="45.64481" lon="6.25104">
        <ele>-6.263</ele>
        <time>2020-07-13T07:52:29Z</time>
      </trkpt>
      <trkpt lat="45.64489" lon="6.25106">
        <ele>-6.263</ele>
        <time>2020-07-13T07:52:39Z</time>
      </trkpt>
      <trkpt lat="45.64494" lon="6.25113">
        <ele>-6.263</ele>
        <time>2020-07-13T07:52:54Z</time>
      </trkpt>
      <trkpt lat="45.64501" lon="6.25116">
        <ele>-6.263</ele>
        <time>2020-07-13T07:53:04Z</time>
      </trkpt>
      <trkpt lat="45.64509" lon="6.25121">
        <ele>-6.263</ele>
        <time>2020-07-13T07:53:14Z</time>
      </trkpt>
      <trkpt lat="45.6451" lon="6.25128">
        <ele>-6.263</ele>
        <time>2020-07-13T07:53:24Z</time>
      </trkpt>
      <trkpt lat="45.64517" lon="6.25135">
        <ele>-6.263</ele>
        <time>2020-07-13T07:53:33Z</time>
      </trkpt>
      <trkpt lat="45.64521" lon="6.25141">
        <ele>-6.263</ele>
        <time>2020-07-13T07:53:39Z</time>
      </trkpt>
      <trkpt lat="45.64526" lon="6.25146">
        <ele>-6.263</ele>
        <time>2020-07-13T07:53:49Z</time>
      </trkpt>
      <trkpt lat="45.6453" lon="6.25153">
        <ele>-6.263</ele>
        <time>2020-07-13T07:53:59Z</time>
      </trkpt>
      <trkpt lat="45.64534" lon="6.25157">
        <ele>-6.263</ele>
        <time>2020-07-13T07:54:04Z</time>
      </trkpt>
      <trkpt lat="45.64537" lon="6.25162">
        <ele>-6.263</ele>
        <time>2020-07-13T07:54:09Z</time>
      </trkpt>
      <trkpt lat="45.64542" lon="6.25167">
        <ele>-6.263</ele>
        <time>2020-07-13T07:54:18Z</time>
      </trkpt>
      <trkpt lat="45.64536" lon="6.25166">
        <ele>-6.263</ele>
        <time>2020-07-13T07:54:34Z</time>
      </trkpt>
      <trkpt lat="45.64527" lon="6.25159">
        <ele>-6.263</ele>
        <time>2020-07-13T07:54:44Z</time>
      </trkpt>
      <trkpt lat="45.64522" lon="6.2516">
        <ele>-6.263</ele>
        <time>2020-07-13T07:54:49Z</time>
      </trkpt>
      <trkpt lat="45.64514" lon="6.25159">
        <ele>-6.263</ele>
        <time>2020-07-13T07:54:59Z</time>
      </trkpt>
      <trkpt lat="45.64506" lon="6.25158">
        <ele>-6.263</ele>
        <time>2020-07-13T07:55:09Z</time>
      </trkpt>
      <trkpt lat="45.6451" lon="6.25164">
        <ele>-6.263</ele>
        <time>2020-07-13T07:55:23Z</time>
      </trkpt>
      <trkpt lat="45.64515" lon="6.25172">
        <ele>-6.263</ele>
        <time>2020-07-13T07:55:29Z</time>
      </trkpt>
      <trkpt lat="45.64518" lon="6.25176">
        <ele>-6.263</ele>
        <time>2020-07-13T07:55:34Z</time>
      </trkpt>
      <trkpt lat="45.64519" lon="6.25179">
        <ele>-6.263</ele>
        <time>2020-07-13T07:55:44Z</time>
      </trkpt>
      <trkpt lat="45.64515" lon="6.25178">
        <ele>-6.263</ele>
        <time>2020-07-13T07:55:58Z</time>
      </trkpt>
      <trkpt lat="45.64509" lon="6.25178">
        <ele>-6.263</ele>
        <time>2020-07-13T07:56:04Z</time>
      </trkpt>
      <trkpt lat="45.64504" lon="6.25183">
        <ele>-6.263</ele>
        <time>2020-07-13T07:56:14Z</time>
      </trkpt>
      <trkpt lat="45.64498" lon="6.25183">
        <ele>-6.263</ele>
        <time>2020-07-13T07:56:24Z</time>
      </trkpt>
      <trkpt lat="45.64494" lon="6.25186">
        <ele>-6.263</ele>
        <time>2020-07-13T07:56:33Z</time>
      </trkpt>
      <trkpt lat="45.64488" lon="6.25186">
        <ele>-6.263</ele>
        <time>2020-07-13T07:56:43Z</time>
      </trkpt>
      <trkpt lat="45.64483" lon="6.25186">
        <ele>-6.263</ele>
        <time>2020-07-13T07:56:49Z</time>
      </trkpt>
      <trkpt lat="45.64477" lon="6.25189">
        <ele>-6.263</ele>
        <time>2020-07-13T07:56:59Z</time>
      </trkpt>
      <trkpt lat="45.6447" lon="6.25189">
        <ele>-6.263</ele>
        <time>2020-07-13T07:57:09Z</time>
      </trkpt>
      <trkpt lat="45.64468" lon="6.25195">
        <ele>-6.263</ele>
        <time>2020-07-13T07:57:24Z</time>
      </trkpt>
      <trkpt lat="45.64472" lon="6.25203">
        <ele>-6.263</ele>
        <time>2020-07-13T07:57:34Z</time>
      </trkpt>
      <trkpt lat="45.64476" lon="6.25206">
        <ele>-6.263</ele>
        <time>2020-07-13T07:57:44Z</time>
      </trkpt>
      <trkpt lat="45.64484" lon="6.25213">
        <ele>-6.263</ele>
        <time>2020-07-13T07:57:54Z</time>
      </trkpt>
      <trkpt lat="45.64489" lon="6.25217">
        <ele>-6.263</ele>
        <time>2020-07-13T07:58:04Z</time>
      </trkpt>
      <trkpt lat="45.64489" lon="6.25222">
        <ele>-6.263</ele>
        <time>2020-07-13T07:58:13Z</time>
      </trkpt>
      <trkpt lat="45.64494" lon="6.25226">
        <ele>-6.263</ele>
        <time>2020-07-13T07:58:23Z</time>
      </trkpt>
      <trkpt lat="45.64498" lon="6.2523">
        <ele>-6.263</ele>
        <time>2020-07-13T07:58:29Z</time>
      </trkpt>
      <trkpt lat="45.64509" lon="6.25236">
        <ele>-6.263</ele>
        <time>2020-07-13T07:58:39Z</time>
      </trkpt>
      <trkpt lat="45.64513" lon="6.25244">
        <ele>-6.263</ele>
        <time>2020-07-13T07:58:48Z</time>
      </trkpt>
      <trkpt lat="45.64518" lon="6.25248">
        <ele>-6.263</ele>
        <time>2020-07-13T07:58:54Z</time>
      </trkpt>
      <trkpt lat="45.64521" lon="6.25251">
        <ele>-6.263</ele>
        <time>2020-07-13T07:59:04Z</time>
      </trkpt>
      <trkpt lat="45.64526" lon="6.25257">
        <ele>-6.263</ele>
        <time>2020-07-13T07:59:14Z</time>
      </trkpt>
      <trkpt lat="45.64532" lon="6.25261">
        <ele>-6.263</ele>
        <time>2020-07-13T07:59:24Z</time>
      </trkpt>
      <trkpt lat="45.64536" lon="6.25266">
        <ele>-6.263</ele>
        <time>2020-07-13T07:59:29Z</time>
      </trkpt>
      <trkpt lat="45.64541" lon="6.25269">
        <ele>-6.263</ele>
        <time>2020-07-13T07:59:39Z</time>
      </trkpt>
      <trkpt lat="45.64545" lon="6.25279">
        <ele>-6.263</ele>
        <time>2020-07-13T07:59:49Z</time>
      </trkpt>
      <trkpt lat="45.64549" lon="6.25287">
        <ele>-6.263</ele>
        <time>2020-07-13T07:59:59Z</time>
      </trkpt>
      <trkpt lat="45.64553" lon="6.25293">
        <ele>-6.263</ele>
        <time>2020-07-13T08:00:09Z</time>
      </trkpt>
      <trkpt lat="45.64556" lon="6.253">
        <ele>-6.263</ele>
        <time>2020-07-13T08:00:19Z</time>
      </trkpt>
      <trkpt lat="45.64562" lon="6.25308">
        <ele>-6.263</ele>
        <time>2020-07-13T08:00:34Z</time>
      </trkpt>
      <trkpt lat="45.6456" lon="6.25305">
        <ele>-6.263</ele>
        <time>2020-07-13T08:00:44Z</time>
      </trkpt>
      <trkpt lat="45.64554" lon="6.25302">
        <ele>-6.263</ele>
        <time>2020-07-13T08:00:54Z</time>
      </trkpt>
      <trkpt lat="45.6455" lon="6.25305">
        <ele>-6.263</ele>
        <time>2020-07-13T08:01:09Z</time>
      </trkpt>
      <trkpt lat="45.64543" lon="6.25304">
        <ele>-6.263</ele>
        <time>2020-07-13T08:01:23Z</time>
      </trkpt>
      <trkpt lat="45.64538" lon="6.253">
        <ele>-6.263</ele>
        <time>2020-07-13T08:01:33Z</time>
      </trkpt>
      <trkpt lat="45.64538" lon="6.25308">
        <ele>-6.263</ele>
        <time>2020-07-13T08:03:54Z</time>
      </trkpt>
      <trkpt lat="45.64535" lon="6.25311">
        <ele>-6.263</ele>
        <time>2020-07-13T08:04:23Z</time>
      </trkpt>
      <trkpt lat="45.6454" lon="6.25317">
        <ele>-6.263</ele>
        <time>2020-07-13T08:04:49Z</time>
      </trkpt>
      <trkpt lat="45.6454" lon="6.25309">
        <ele>-6.263</ele>
        <time>2020-07-13T08:05:08Z</time>
      </trkpt>
      <trkpt lat="45.64535" lon="6.25301">
        <ele>-6.263</ele>
        <time>2020-07-13T08:07:39Z</time>
      </trkpt>
      <trkpt lat="45.6453" lon="6.25298">
        <ele>-6.263</ele>
        <time>2020-07-13T08:07:49Z</time>
      </trkpt>
      <trkpt lat="45.64525" lon="6.25296">
        <ele>-6.263</ele>
        <time>2020-07-13T08:07:58Z</time>
      </trkpt>
      <trkpt lat="45.64519" lon="6.25292">
        <ele>-6.263</ele>
        <time>2020-07-13T08:08:08Z</time>
      </trkpt>
      <trkpt lat="45.64513" lon="6.2529">
        <ele>-6.263</ele>
        <time>2020-07-13T08:08:18Z</time>
      </trkpt>
      <trkpt lat="45.64507" lon="6.25287">
        <ele>-6.263</ele>
        <time>2020-07-13T08:08:28Z</time>
      </trkpt>
      <trkpt lat="45.64502" lon="6.25285">
        <ele>-6.263</ele>
        <time>2020-07-13T08:08:34Z</time>
      </trkpt>
      <trkpt lat="45.64495" lon="6.25282">
        <ele>-6.263</ele>
        <time>2020-07-13T08:08:43Z</time>
      </trkpt>
      <trkpt lat="45.64497" lon="6.25289">
        <ele>-6.263</ele>
        <time>2020-07-13T08:08:53Z</time>
      </trkpt>
      <trkpt lat="45.64499" lon="6.25296">
        <ele>-6.263</ele>
        <time>2020-07-13T08:08:59Z</time>
      </trkpt>
      <trkpt lat="45.64502" lon="6.25305">
        <ele>-6.263</ele>
        <time>2020-07-13T08:09:09Z</time>
      </trkpt>
      <trkpt lat="45.64509" lon="6.25312">
        <ele>-6.263</ele>
        <time>2020-07-13T08:09:19Z</time>
      </trkpt>
      <trkpt lat="45.64512" lon="6.25318">
        <ele>-6.263</ele>
        <time>2020-07-13T08:09:28Z</time>
      </trkpt>
      <trkpt lat="45.64516" lon="6.25325">
        <ele>-6.263</ele>
        <time>2020-07-13T08:09:38Z</time>
      </trkpt>
      <trkpt lat="45.64519" lon="6.2533">
        <ele>-6.263</ele>
        <time>2020-07-13T08:09:48Z</time>
      </trkpt>
      <trkpt lat="45.64521" lon="6.25337">
        <ele>-6.263</ele>
        <time>2020-07-13T08:09:54Z</time>
      </trkpt>
      <trkpt lat="45.64522" lon="6.25345">
        <ele>-6.263</ele>
        <time>2020-07-13T08:10:03Z</time>
      </trkpt>
      <trkpt lat="45.64525" lon="6.25351">
        <ele>-6.263</ele>
        <time>2020-07-13T08:10:09Z</time>
      </trkpt>
      <trkpt lat="45.64531" lon="6.25356">
        <ele>-6.263</ele>
        <time>2020-07-13T08:10:19Z</time>
      </trkpt>
      <trkpt lat="45.64536" lon="6.25365">
        <ele>-6.263</ele>
        <time>2020-07-13T08:10:29Z</time>
      </trkpt>
      <trkpt lat="45.6454" lon="6.25373">
        <ele>-6.263</ele>
        <time>2020-07-13T08:10:39Z</time>
      </trkpt>
      <trkpt lat="45.64544" lon="6.25377">
        <ele>-6.263</ele>
        <time>2020-07-13T08:10:44Z</time>
      </trkpt>
      <trkpt lat="45.64547" lon="6.25383">
        <ele>-6.263</ele>
        <time>2020-07-13T08:10:49Z</time>
      </trkpt>
      <trkpt lat="45.64553" lon="6.25388">
        <ele>-6.263</ele>
        <time>2020-07-13T08:10:58Z</time>
      </trkpt>
      <trkpt lat="45.64556" lon="6.25386">
        <ele>-6.263</ele>
        <time>2020-07-13T08:11:04Z</time>
      </trkpt>
      <trkpt lat="45.64548" lon="6.25384">
        <ele>-6.263</ele>
        <time>2020-07-13T08:11:14Z</time>
      </trkpt>
      <trkpt lat="45.64552" lon="6.25394">
        <ele>-6.263</ele>
        <time>2020-07-13T08:11:24Z</time>
      </trkpt>
      <trkpt lat="45.64557" lon="6.25397">
        <ele>-6.263</ele>
        <time>2020-07-13T08:11:34Z</time>
      </trkpt>
      <trkpt lat="45.64563" lon="6.25403">
        <ele>-6.263</ele>
        <time>2020-07-13T08:11:43Z</time>
      </trkpt>
      <trkpt lat="45.64567" lon="6.25406">
        <ele>-6.263</ele>
        <time>2020-07-13T08:11:53Z</time>
      </trkpt>
      <trkpt lat="45.6457" lon="6.25412">
        <ele>-6.263</ele>
        <time>2020-07-13T08:11:59Z</time>
      </trkpt>
      <trkpt lat="45.64581" lon="6.25411">
        <ele>-6.263</ele>
        <time>2020-07-13T08:12:09Z</time>
      </trkpt>
      <trkpt lat="45.64588" lon="6.2541">
        <ele>-6.263</ele>
        <time>2020-07-13T08:12:18Z</time>
      </trkpt>
      <trkpt lat="45.64592" lon="6.25409">
        <ele>-6.263</ele>
        <time>2020-07-13T08:12:24Z</time>
      </trkpt>
      <trkpt lat="45.64598" lon="6.25407">
        <ele>-6.263</ele>
        <time>2020-07-13T08:12:34Z</time>
      </trkpt>
      <trkpt lat="45.64597" lon="6.25411">
        <ele>-6.263</ele>
        <time>2020-07-13T08:12:54Z</time>
      </trkpt>
      <trkpt lat="45.64595" lon="6.25411">
        <ele>-6.263</ele>
        <time>2020-07-13T08:13:29Z</time>
      </trkpt>
      <trkpt lat="45.64594" lon="6.25419">
        <ele>-6.263</ele>
        <time>2020-07-13T08:13:39Z</time>
      </trkpt>
      <trkpt lat="45.64597" lon="6.25419">
        <ele>-6.263</ele>
        <time>2020-07-13T08:13:49Z</time>
      </trkpt>
      <trkpt lat="45.64603" lon="6.25421">
        <ele>-6.263</ele>
        <time>2020-07-13T08:13:54Z</time>
      </trkpt>
      <trkpt lat="45.64612" lon="6.25417">
        <ele>-6.263</ele>
        <time>2020-07-13T08:14:04Z</time>
      </trkpt>
      <trkpt lat="45.64619" lon="6.25416">
        <ele>-6.263</ele>
        <time>2020-07-13T08:14:14Z</time>
      </trkpt>
      <trkpt lat="45.64619" lon="6.25415">
        <ele>-6.263</ele>
        <time>2020-07-13T08:14:24Z</time>
      </trkpt>
      <trkpt lat="45.64614" lon="6.25419">
        <ele>-6.263</ele>
        <time>2020-07-13T08:14:29Z</time>
      </trkpt>
      <trkpt lat="45.6461" lon="6.25425">
        <ele>-6.263</ele>
        <time>2020-07-13T08:14:34Z</time>
      </trkpt>
      <trkpt lat="45.64606" lon="6.25431">
        <ele>-6.263</ele>
        <time>2020-07-13T08:14:39Z</time>
      </trkpt>
      <trkpt lat="45.64599" lon="6.25439">
        <ele>-6.263</ele>
        <time>2020-07-13T08:14:49Z</time>
      </trkpt>
      <trkpt lat="45.64596" lon="6.25445">
        <ele>-6.263</ele>
        <time>2020-07-13T08:15:03Z</time>
      </trkpt>
      <trkpt lat="45.64593" lon="6.25451">
        <ele>-6.263</ele>
        <time>2020-07-13T08:15:09Z</time>
      </trkpt>
      <trkpt lat="45.64589" lon="6.25453">
        <ele>-6.263</ele>
        <time>2020-07-13T08:15:19Z</time>
      </trkpt>
      <trkpt lat="45.64592" lon="6.25463">
        <ele>-6.263</ele>
        <time>2020-07-13T08:15:28Z</time>
      </trkpt>
      <trkpt lat="45.64595" lon="6.25469">
        <ele>-6.263</ele>
        <time>2020-07-13T08:15:34Z</time>
      </trkpt>
      <trkpt lat="45.64602" lon="6.2547">
        <ele>-6.263</ele>
        <time>2020-07-13T08:15:44Z</time>
      </trkpt>
      <trkpt lat="45.64607" lon="6.25478">
        <ele>-6.263</ele>
        <time>2020-07-13T08:15:54Z</time>
      </trkpt>
      <trkpt lat="45.64611" lon="6.25484">
        <ele>-6.263</ele>
        <time>2020-07-13T08:16:04Z</time>
      </trkpt>
      <trkpt lat="45.64616" lon="6.25493">
        <ele>-6.263</ele>
        <time>2020-07-13T08:16:13Z</time>
      </trkpt>
      <trkpt lat="45.64619" lon="6.25499">
        <ele>-6.263</ele>
        <time>2020-07-13T08:16:19Z</time>
      </trkpt>
      <trkpt lat="45.64625" lon="6.25507">
        <ele>-6.263</ele>
        <time>2020-07-13T08:16:29Z</time>
      </trkpt>
      <trkpt lat="45.64629" lon="6.25515">
        <ele>-6.263</ele>
        <time>2020-07-13T08:16:39Z</time>
      </trkpt>
      <trkpt lat="45.6463" lon="6.25523">
        <ele>-6.263</ele>
        <time>2020-07-13T08:16:54Z</time>
      </trkpt>
      <trkpt lat="45.64628" lon="6.25523">
        <ele>-6.263</ele>
        <time>2020-07-13T08:17:59Z</time>
      </trkpt>
      <trkpt lat="45.64628" lon="6.25522">
        <ele>-6.263</ele>
        <time>2020-07-13T08:18:58Z</time>
      </trkpt>
      <trkpt lat="45.64632" lon="6.25523">
        <ele>-6.263</ele>
        <time>2020-07-13T08:20:34Z</time>
      </trkpt>
      <trkpt lat="45.64636" lon="6.25522">
        <ele>-6.263</ele>
        <time>2020-07-13T08:20:49Z</time>
      </trkpt>
      <trkpt lat="45.64643" lon="6.25524">
        <ele>-6.263</ele>
        <time>2020-07-13T08:20:59Z</time>
      </trkpt>
      <trkpt lat="45.64651" lon="6.2553">
        <ele>-6.263</ele>
        <time>2020-07-13T08:21:09Z</time>
      </trkpt>
      <trkpt lat="45.64655" lon="6.25533">
        <ele>-6.263</ele>
        <time>2020-07-13T08:21:14Z</time>
      </trkpt>
      <trkpt lat="45.64662" lon="6.25536">
        <ele>-6.263</ele>
        <time>2020-07-13T08:21:19Z</time>
      </trkpt>
      <trkpt lat="45.64669" lon="6.25539">
        <ele>-6.263</ele>
        <time>2020-07-13T08:21:24Z</time>
      </trkpt>
      <trkpt lat="45.64679" lon="6.25549">
        <ele>-6.263</ele>
        <time>2020-07-13T08:21:34Z</time>
      </trkpt>
      <trkpt lat="45.64688" lon="6.25559">
        <ele>-6.263</ele>
        <time>2020-07-13T08:21:44Z</time>
      </trkpt>
      <trkpt lat="45.64696" lon="6.25568">
        <ele>-6.263</ele>
        <time>2020-07-13T08:21:54Z</time>
      </trkpt>
      <trkpt lat="45.647" lon="6.25573">
        <ele>-6.263</ele>
        <time>2020-07-13T08:21:59Z</time>
      </trkpt>
      <trkpt lat="45.64703" lon="6.25577">
        <ele>-6.263</ele>
        <time>2020-07-13T08:22:04Z</time>
      </trkpt>
      <trkpt lat="45.64708" lon="6.25583">
        <ele>-6.263</ele>
        <time>2020-07-13T08:22:09Z</time>
      </trkpt>
      <trkpt lat="45.64716" lon="6.25597">
        <ele>-6.263</ele>
        <time>2020-07-13T08:22:19Z</time>
      </trkpt>
      <trkpt lat="45.64722" lon="6.25605">
        <ele>-6.263</ele>
        <time>2020-07-13T08:22:29Z</time>
      </trkpt>
      <trkpt lat="45.64725" lon="6.25609">
        <ele>-6.263</ele>
        <time>2020-07-13T08:22:39Z</time>
      </trkpt>
      <trkpt lat="45.64732" lon="6.25613">
        <ele>-6.263</ele>
        <time>2020-07-13T08:22:48Z</time>
      </trkpt>
      <trkpt lat="45.64737" lon="6.25617">
        <ele>-6.263</ele>
        <time>2020-07-13T08:22:54Z</time>
      </trkpt>
      <trkpt lat="45.64742" lon="6.25626">
        <ele>-6.263</ele>
        <time>2020-07-13T08:23:04Z</time>
      </trkpt>
      <trkpt lat="45.64754" lon="6.25636">
        <ele>-6.263</ele>
        <time>2020-07-13T08:23:14Z</time>
      </trkpt>
      <trkpt lat="45.64761" lon="6.25649">
        <ele>-6.263</ele>
        <time>2020-07-13T08:23:24Z</time>
      </trkpt>
      <trkpt lat="45.64764" lon="6.25654">
        <ele>-6.263</ele>
        <time>2020-07-13T08:23:29Z</time>
      </trkpt>
      <trkpt lat="45.64768" lon="6.25661">
        <ele>-6.263</ele>
        <time>2020-07-13T08:23:34Z</time>
      </trkpt>
      <trkpt lat="45.64772" lon="6.2567">
        <ele>-6.263</ele>
        <time>2020-07-13T08:23:43Z</time>
      </trkpt>
      <trkpt lat="45.64775" lon="6.25675">
        <ele>-6.263</ele>
        <time>2020-07-13T08:23:49Z</time>
      </trkpt>
      <trkpt lat="45.6478" lon="6.25682">
        <ele>-6.263</ele>
        <time>2020-07-13T08:24:48Z</time>
      </trkpt>
      <trkpt lat="45.64785" lon="6.25695">
        <ele>-6.263</ele>
        <time>2020-07-13T08:25:19Z</time>
      </trkpt>
      <trkpt lat="45.64792" lon="6.2571">
        <ele>-6.263</ele>
        <time>2020-07-13T08:25:29Z</time>
      </trkpt>
      <trkpt lat="45.64798" lon="6.25721">
        <ele>-6.263</ele>
        <time>2020-07-13T08:25:39Z</time>
      </trkpt>
      <trkpt lat="45.64802" lon="6.25729">
        <ele>-6.263</ele>
        <time>2020-07-13T08:25:44Z</time>
      </trkpt>
      <trkpt lat="45.64809" lon="6.2574">
        <ele>-6.263</ele>
        <time>2020-07-13T08:25:54Z</time>
      </trkpt>
      <trkpt lat="45.64812" lon="6.25746">
        <ele>-6.263</ele>
        <time>2020-07-13T08:26:04Z</time>
      </trkpt>
      <trkpt lat="45.64812" lon="6.25746">
        <ele>-6.263</ele>
        <time>2020-07-13T08:26:39Z</time>
      </trkpt>
      <trkpt lat="45.64813" lon="6.25753">
        <ele>-6.263</ele>
        <time>2020-07-13T08:26:49Z</time>
      </trkpt>
      <trkpt lat="45.64813" lon="6.25764">
        <ele>-6.263</ele>
        <time>2020-07-13T08:26:59Z</time>
      </trkpt>
      <trkpt lat="45.64816" lon="6.2577">
        <ele>-6.263</ele>
        <time>2020-07-13T08:27:04Z</time>
      </trkpt>
      <trkpt lat="45.64812" lon="6.25775">
        <ele>-6.263</ele>
        <time>2020-07-13T08:27:18Z</time>
      </trkpt>
      <trkpt lat="45.64816" lon="6.25775">
        <ele>-6.263</ele>
        <time>2020-07-13T08:27:34Z</time>
      </trkpt>
      <trkpt lat="45.64816" lon="6.25778">
        <ele>-6.263</ele>
        <time>2020-07-13T08:27:59Z</time>
      </trkpt>
      <trkpt lat="45.64816" lon="6.25779">
        <ele>-6.263</ele>
        <time>2020-07-13T08:30:54Z</time>
      </trkpt>
      <trkpt lat="45.64819" lon="6.25777">
        <ele>-6.263</ele>
        <time>2020-07-13T08:32:23Z</time>
      </trkpt>
      <trkpt lat="45.64821" lon="6.25773">
        <ele>-6.263</ele>
        <time>2020-07-13T08:33:44Z</time>
      </trkpt>
      <trkpt lat="45.64825" lon="6.25769">
        <ele>-6.263</ele>
        <time>2020-07-13T08:33:49Z</time>
      </trkpt>
      <trkpt lat="45.64831" lon="6.25766">
        <ele>-6.263</ele>
        <time>2020-07-13T08:33:59Z</time>
      </trkpt>
      <trkpt lat="45.6484" lon="6.25767">
        <ele>-6.263</ele>
        <time>2020-07-13T08:34:09Z</time>
      </trkpt>
      <trkpt lat="45.64845" lon="6.25769">
        <ele>-6.263</ele>
        <time>2020-07-13T08:34:19Z</time>
      </trkpt>
      <trkpt lat="45.64852" lon="6.25763">
        <ele>-6.263</ele>
        <time>2020-07-13T08:34:29Z</time>
      </trkpt>
      <trkpt lat="45.64855" lon="6.25764">
        <ele>-6.263</ele>
        <time>2020-07-13T08:34:44Z</time>
      </trkpt>
      <trkpt lat="45.64864" lon="6.25769">
        <ele>-6.263</ele>
        <time>2020-07-13T08:34:54Z</time>
      </trkpt>
      <trkpt lat="45.64874" lon="6.25767">
        <ele>-6.263</ele>
        <time>2020-07-13T08:35:04Z</time>
      </trkpt>
      <trkpt lat="45.64882" lon="6.25768">
        <ele>-6.263</ele>
        <time>2020-07-13T08:35:14Z</time>
      </trkpt>
      <trkpt lat="45.64887" lon="6.25769">
        <ele>-6.263</ele>
        <time>2020-07-13T08:35:23Z</time>
      </trkpt>
      <trkpt lat="45.64893" lon="6.25775">
        <ele>-6.263</ele>
        <time>2020-07-13T08:35:29Z</time>
      </trkpt>
      <trkpt lat="45.64898" lon="6.25791">
        <ele>-6.263</ele>
        <time>2020-07-13T08:35:39Z</time>
      </trkpt>
      <trkpt lat="45.64906" lon="6.25802">
        <ele>-6.263</ele>
        <time>2020-07-13T08:35:49Z</time>
      </trkpt>
      <trkpt lat="45.6491" lon="6.2581">
        <ele>-6.263</ele>
        <time>2020-07-13T08:35:54Z</time>
      </trkpt>
      <trkpt lat="45.64916" lon="6.25816">
        <ele>-6.263</ele>
        <time>2020-07-13T08:36:04Z</time>
      </trkpt>
      <trkpt lat="45.64926" lon="6.25823">
        <ele>-6.263</ele>
        <time>2020-07-13T08:36:14Z</time>
      </trkpt>
      <trkpt lat="45.64935" lon="6.2583">
        <ele>-6.263</ele>
        <time>2020-07-13T08:36:24Z</time>
      </trkpt>
      <trkpt lat="45.6494" lon="6.25836">
        <ele>-6.263</ele>
        <time>2020-07-13T08:36:38Z</time>
      </trkpt>
      <trkpt lat="45.64945" lon="6.25836">
        <ele>-6.263</ele>
        <time>2020-07-13T08:36:43Z</time>
      </trkpt>
      <trkpt lat="45.64949" lon="6.25839">
        <ele>-6.263</ele>
        <time>2020-07-13T08:36:53Z</time>
      </trkpt>
      <trkpt lat="45.64951" lon="6.2584">
        <ele>-6.263</ele>
        <time>2020-07-13T08:37:09Z</time>
      </trkpt>
      <trkpt lat="45.64956" lon="6.2584">
        <ele>-6.263</ele>
        <time>2020-07-13T08:37:19Z</time>
      </trkpt>
      <trkpt lat="45.64959" lon="6.25846">
        <ele>-6.263</ele>
        <time>2020-07-13T08:37:28Z</time>
      </trkpt>
      <trkpt lat="45.64963" lon="6.25848">
        <ele>-6.263</ele>
        <time>2020-07-13T08:37:34Z</time>
      </trkpt>
      <trkpt lat="45.64971" lon="6.25852">
        <ele>-6.263</ele>
        <time>2020-07-13T08:37:44Z</time>
      </trkpt>
      <trkpt lat="45.64978" lon="6.25859">
        <ele>-6.263</ele>
        <time>2020-07-13T08:37:54Z</time>
      </trkpt>
      <trkpt lat="45.64983" lon="6.25862">
        <ele>-6.263</ele>
        <time>2020-07-13T08:38:04Z</time>
      </trkpt>
      <trkpt lat="45.64982" lon="6.2586">
        <ele>-6.263</ele>
        <time>2020-07-13T08:38:23Z</time>
      </trkpt>
      <trkpt lat="45.64984" lon="6.2586">
        <ele>-6.263</ele>
        <time>2020-07-13T08:38:49Z</time>
      </trkpt>
      <trkpt lat="45.64986" lon="6.25864">
        <ele>-6.263</ele>
        <time>2020-07-13T08:38:58Z</time>
      </trkpt>
      <trkpt lat="45.64992" lon="6.25867">
        <ele>-6.263</ele>
        <time>2020-07-13T08:39:04Z</time>
      </trkpt>
      <trkpt lat="45.64998" lon="6.25875">
        <ele>-6.263</ele>
        <time>2020-07-13T08:39:14Z</time>
      </trkpt>
      <trkpt lat="45.65005" lon="6.25884">
        <ele>-6.263</ele>
        <time>2020-07-13T08:39:24Z</time>
      </trkpt>
      <trkpt lat="45.65011" lon="6.25888">
        <ele>-6.263</ele>
        <time>2020-07-13T08:39:33Z</time>
      </trkpt>
      <trkpt lat="45.65014" lon="6.25894">
        <ele>-6.263</ele>
        <time>2020-07-13T08:39:49Z</time>
      </trkpt>
      <trkpt lat="45.65022" lon="6.25902">
        <ele>-6.263</ele>
        <time>2020-07-13T08:39:59Z</time>
      </trkpt>
      <trkpt lat="45.65032" lon="6.259">
        <ele>-6.263</ele>
        <time>2020-07-13T08:40:09Z</time>
      </trkpt>
      <trkpt lat="45.65035" lon="6.25904">
        <ele>-6.263</ele>
        <time>2020-07-13T08:40:14Z</time>
      </trkpt>
      <trkpt lat="45.65045" lon="6.25903">
        <ele>-6.263</ele>
        <time>2020-07-13T08:40:24Z</time>
      </trkpt>
      <trkpt lat="45.65052" lon="6.25905">
        <ele>-6.263</ele>
        <time>2020-07-13T08:40:34Z</time>
      </trkpt>
      <trkpt lat="45.65061" lon="6.25905">
        <ele>-6.263</ele>
        <time>2020-07-13T08:40:44Z</time>
      </trkpt>
      <trkpt lat="45.65067" lon="6.25904">
        <ele>-6.263</ele>
        <time>2020-07-13T08:40:49Z</time>
      </trkpt>
      <trkpt lat="45.65073" lon="6.25903">
        <ele>-6.263</ele>
        <time>2020-07-13T08:40:54Z</time>
      </trkpt>
      <trkpt lat="45.65078" lon="6.259">
        <ele>-6.263</ele>
        <time>2020-07-13T08:40:59Z</time>
      </trkpt>
      <trkpt lat="45.65087" lon="6.25897">
        <ele>-6.263</ele>
        <time>2020-07-13T08:41:09Z</time>
      </trkpt>
      <trkpt lat="45.65093" lon="6.25891">
        <ele>-6.263</ele>
        <time>2020-07-13T08:41:19Z</time>
      </trkpt>
      <trkpt lat="45.65098" lon="6.25883">
        <ele>-6.263</ele>
        <time>2020-07-13T08:41:29Z</time>
      </trkpt>
      <trkpt lat="45.65099" lon="6.25881">
        <ele>-6.263</ele>
        <time>2020-07-13T08:41:39Z</time>
      </trkpt>
      <trkpt lat="45.65102" lon="6.25875">
        <ele>-6.263</ele>
        <time>2020-07-13T08:41:48Z</time>
      </trkpt>
      <trkpt lat="45.65107" lon="6.25869">
        <ele>-6.263</ele>
        <time>2020-07-13T08:41:58Z</time>
      </trkpt>
      <trkpt lat="45.6511" lon="6.25863">
        <ele>-6.263</ele>
        <time>2020-07-13T08:42:08Z</time>
      </trkpt>
      <trkpt lat="45.65117" lon="6.25856">
        <ele>-6.263</ele>
        <time>2020-07-13T08:42:18Z</time>
      </trkpt>
      <trkpt lat="45.65122" lon="6.25853">
        <ele>-6.263</ele>
        <time>2020-07-13T08:42:24Z</time>
      </trkpt>
      <trkpt lat="45.65128" lon="6.25849">
        <ele>-6.263</ele>
        <time>2020-07-13T08:42:29Z</time>
      </trkpt>
      <trkpt lat="45.65139" lon="6.25855">
        <ele>-6.263</ele>
        <time>2020-07-13T08:42:39Z</time>
      </trkpt>
      <trkpt lat="45.65144" lon="6.25856">
        <ele>-6.263</ele>
        <time>2020-07-13T08:42:49Z</time>
      </trkpt>
      <trkpt lat="45.65146" lon="6.25858">
        <ele>-6.263</ele>
        <time>2020-07-13T08:43:18Z</time>
      </trkpt>
      <trkpt lat="45.65151" lon="6.25856">
        <ele>-6.263</ele>
        <time>2020-07-13T08:43:38Z</time>
      </trkpt>
      <trkpt lat="45.65157" lon="6.25858">
        <ele>-6.263</ele>
        <time>2020-07-13T08:43:44Z</time>
      </trkpt>
      <trkpt lat="45.65166" lon="6.25854">
        <ele>-6.263</ele>
        <time>2020-07-13T08:43:53Z</time>
      </trkpt>
      <trkpt lat="45.65173" lon="6.2585">
        <ele>-6.263</ele>
        <time>2020-07-13T08:43:59Z</time>
      </trkpt>
      <trkpt lat="45.65184" lon="6.2584">
        <ele>-6.263</ele>
        <time>2020-07-13T08:44:09Z</time>
      </trkpt>
      <trkpt lat="45.65193" lon="6.25832">
        <ele>-6.263</ele>
        <time>2020-07-13T08:44:19Z</time>
      </trkpt>
      <trkpt lat="45.65202" lon="6.25829">
        <ele>-6.263</ele>
        <time>2020-07-13T08:44:29Z</time>
      </trkpt>
      <trkpt lat="45.65208" lon="6.2583">
        <ele>-6.263</ele>
        <time>2020-07-13T08:44:38Z</time>
      </trkpt>
      <trkpt lat="45.65214" lon="6.25827">
        <ele>-6.263</ele>
        <time>2020-07-13T08:44:44Z</time>
      </trkpt>
      <trkpt lat="45.65223" lon="6.25821">
        <ele>-6.263</ele>
        <time>2020-07-13T08:44:54Z</time>
      </trkpt>
      <trkpt lat="45.65237" lon="6.25817">
        <ele>-6.263</ele>
        <time>2020-07-13T08:45:04Z</time>
      </trkpt>
      <trkpt lat="45.65243" lon="6.25817">
        <ele>-6.263</ele>
        <time>2020-07-13T08:45:09Z</time>
      </trkpt>
      <trkpt lat="45.65249" lon="6.25819">
        <ele>-6.263</ele>
        <time>2020-07-13T08:45:14Z</time>
      </trkpt>
      <trkpt lat="45.65255" lon="6.25824">
        <ele>-6.263</ele>
        <time>2020-07-13T08:45:23Z</time>
      </trkpt>
      <trkpt lat="45.65258" lon="6.25829">
        <ele>-6.263</ele>
        <time>2020-07-13T08:45:29Z</time>
      </trkpt>
      <trkpt lat="45.65263" lon="6.25837">
        <ele>-6.263</ele>
        <time>2020-07-13T08:45:39Z</time>
      </trkpt>
      <trkpt lat="45.65268" lon="6.25833">
        <ele>-6.263</ele>
        <time>2020-07-13T08:45:49Z</time>
      </trkpt>
      <trkpt lat="45.65269" lon="6.25838">
        <ele>-6.263</ele>
        <time>2020-07-13T08:45:58Z</time>
      </trkpt>
      <trkpt lat="45.65271" lon="6.25844">
        <ele>-6.263</ele>
        <time>2020-07-13T08:46:04Z</time>
      </trkpt>
      <trkpt lat="45.65275" lon="6.25854">
        <ele>-6.263</ele>
        <time>2020-07-13T08:46:14Z</time>
      </trkpt>
      <trkpt lat="45.65284" lon="6.25862">
        <ele>-6.263</ele>
        <time>2020-07-13T08:46:24Z</time>
      </trkpt>
      <trkpt lat="45.65292" lon="6.25862">
        <ele>-6.263</ele>
        <time>2020-07-13T08:46:34Z</time>
      </trkpt>
      <trkpt lat="45.653" lon="6.25865">
        <ele>-6.263</ele>
        <time>2020-07-13T08:46:43Z</time>
      </trkpt>
      <trkpt lat="45.65305" lon="6.2587">
        <ele>-6.263</ele>
        <time>2020-07-13T08:46:49Z</time>
      </trkpt>
      <trkpt lat="45.65308" lon="6.25877">
        <ele>-6.263</ele>
        <time>2020-07-13T08:46:59Z</time>
      </trkpt>
      <trkpt lat="45.65315" lon="6.2589">
        <ele>-6.263</ele>
        <time>2020-07-13T08:47:09Z</time>
      </trkpt>
      <trkpt lat="45.65321" lon="6.259">
        <ele>-6.263</ele>
        <time>2020-07-13T08:47:19Z</time>
      </trkpt>
      <trkpt lat="45.65324" lon="6.25904">
        <ele>-6.263</ele>
        <time>2020-07-13T08:47:24Z</time>
      </trkpt>
      <trkpt lat="45.65329" lon="6.25909">
        <ele>-6.263</ele>
        <time>2020-07-13T08:47:34Z</time>
      </trkpt>
      <trkpt lat="45.65336" lon="6.2591">
        <ele>-6.263</ele>
        <time>2020-07-13T08:47:44Z</time>
      </trkpt>
      <trkpt lat="45.65346" lon="6.25908">
        <ele>-6.263</ele>
        <time>2020-07-13T08:47:54Z</time>
      </trkpt>
      <trkpt lat="45.65352" lon="6.25904">
        <ele>-6.263</ele>
        <time>2020-07-13T08:47:59Z</time>
      </trkpt>
      <trkpt lat="45.65357" lon="6.25902">
        <ele>-6.263</ele>
        <time>2020-07-13T08:48:04Z</time>
      </trkpt>
      <trkpt lat="45.65365" lon="6.25897">
        <ele>-6.263</ele>
        <time>2020-07-13T08:48:13Z</time>
      </trkpt>
      <trkpt lat="45.65371" lon="6.25895">
        <ele>-6.263</ele>
        <time>2020-07-13T08:48:19Z</time>
      </trkpt>
      <trkpt lat="45.65375" lon="6.2589">
        <ele>-6.263</ele>
        <time>2020-07-13T08:48:29Z</time>
      </trkpt>
      <trkpt lat="45.65383" lon="6.2589">
        <ele>-6.263</ele>
        <time>2020-07-13T08:48:39Z</time>
      </trkpt>
      <trkpt lat="45.65387" lon="6.25886">
        <ele>-6.263</ele>
        <time>2020-07-13T08:48:44Z</time>
      </trkpt>
      <trkpt lat="45.65393" lon="6.25885">
        <ele>-6.263</ele>
        <time>2020-07-13T08:48:54Z</time>
      </trkpt>
      <trkpt lat="45.65403" lon="6.25887">
        <ele>-6.263</ele>
        <time>2020-07-13T08:49:04Z</time>
      </trkpt>
      <trkpt lat="45.6541" lon="6.25886">
        <ele>-6.263</ele>
        <time>2020-07-13T08:49:14Z</time>
      </trkpt>
      <trkpt lat="45.65416" lon="6.25882">
        <ele>-6.263</ele>
        <time>2020-07-13T08:49:24Z</time>
      </trkpt>
      <trkpt lat="45.65422" lon="6.25877">
        <ele>-6.263</ele>
        <time>2020-07-13T08:49:29Z</time>
      </trkpt>
      <trkpt lat="45.65427" lon="6.25872">
        <ele>-6.263</ele>
        <time>2020-07-13T08:49:34Z</time>
      </trkpt>
      <trkpt lat="45.65432" lon="6.25871">
        <ele>-6.263</ele>
        <time>2020-07-13T08:49:43Z</time>
      </trkpt>
      <trkpt lat="45.65437" lon="6.25867">
        <ele>-6.263</ele>
        <time>2020-07-13T08:49:49Z</time>
      </trkpt>
      <trkpt lat="45.65446" lon="6.25864">
        <ele>-6.263</ele>
        <time>2020-07-13T08:49:59Z</time>
      </trkpt>
      <trkpt lat="45.65455" lon="6.25858">
        <ele>-6.263</ele>
        <time>2020-07-13T08:50:09Z</time>
      </trkpt>
      <trkpt lat="45.65458" lon="6.25853">
        <ele>-6.263</ele>
        <time>2020-07-13T08:50:14Z</time>
      </trkpt>
      <trkpt lat="45.65464" lon="6.25846">
        <ele>-6.263</ele>
        <time>2020-07-13T08:50:24Z</time>
      </trkpt>
      <trkpt lat="45.6547" lon="6.25838">
        <ele>-6.263</ele>
        <time>2020-07-13T08:50:34Z</time>
      </trkpt>
      <trkpt lat="45.65475" lon="6.25821">
        <ele>-6.263</ele>
        <time>2020-07-13T08:50:44Z</time>
      </trkpt>
      <trkpt lat="45.65483" lon="6.2581">
        <ele>-6.263</ele>
        <time>2020-07-13T08:50:54Z</time>
      </trkpt>
      <trkpt lat="45.65485" lon="6.25805">
        <ele>-6.263</ele>
        <time>2020-07-13T08:51:03Z</time>
      </trkpt>
      <trkpt lat="45.6549" lon="6.258">
        <ele>-6.263</ele>
        <time>2020-07-13T08:51:13Z</time>
      </trkpt>
      <trkpt lat="45.65495" lon="6.258">
        <ele>-6.263</ele>
        <time>2020-07-13T08:51:19Z</time>
      </trkpt>
      <trkpt lat="45.65504" lon="6.25801">
        <ele>-6.263</ele>
        <time>2020-07-13T08:51:29Z</time>
      </trkpt>
      <trkpt lat="45.65517" lon="6.258">
        <ele>-6.263</ele>
        <time>2020-07-13T08:51:39Z</time>
      </trkpt>
      <trkpt lat="45.65523" lon="6.25799">
        <ele>-6.263</ele>
        <time>2020-07-13T08:51:44Z</time>
      </trkpt>
      <trkpt lat="45.65533" lon="6.25799">
        <ele>-6.263</ele>
        <time>2020-07-13T08:51:54Z</time>
      </trkpt>
      <trkpt lat="45.6554" lon="6.25805">
        <ele>-6.263</ele>
        <time>2020-07-13T08:52:04Z</time>
      </trkpt>
      <trkpt lat="45.65546" lon="6.25806">
        <ele>-6.263</ele>
        <time>2020-07-13T08:52:14Z</time>
      </trkpt>
      <trkpt lat="45.65554" lon="6.25804">
        <ele>-6.263</ele>
        <time>2020-07-13T08:52:24Z</time>
      </trkpt>
      <trkpt lat="45.65559" lon="6.25802">
        <ele>-6.263</ele>
        <time>2020-07-13T08:52:29Z</time>
      </trkpt>
      <trkpt lat="45.65564" lon="6.25796">
        <ele>-6.263</ele>
        <time>2020-07-13T08:52:39Z</time>
      </trkpt>
      <trkpt lat="45.65583" lon="6.25797">
        <ele>-6.263</ele>
        <time>2020-07-13T08:52:49Z</time>
      </trkpt>
      <trkpt lat="45.65595" lon="6.25793">
        <ele>-6.263</ele>
        <time>2020-07-13T08:52:59Z</time>
      </trkpt>
      <trkpt lat="45.65599" lon="6.2579">
        <ele>-6.263</ele>
        <time>2020-07-13T08:53:04Z</time>
      </trkpt>
      <trkpt lat="45.65604" lon="6.25787">
        <ele>-6.263</ele>
        <time>2020-07-13T08:53:09Z</time>
      </trkpt>
      <trkpt lat="45.6561" lon="6.25786">
        <ele>-6.263</ele>
        <time>2020-07-13T08:53:14Z</time>
      </trkpt>
      <trkpt lat="45.6562" lon="6.25786">
        <ele>-6.263</ele>
        <time>2020-07-13T08:53:24Z</time>
      </trkpt>
      <trkpt lat="45.65631" lon="6.25795">
        <ele>-6.263</ele>
        <time>2020-07-13T08:53:34Z</time>
      </trkpt>
      <trkpt lat="45.65636" lon="6.25803">
        <ele>-6.263</ele>
        <time>2020-07-13T08:53:44Z</time>
      </trkpt>
      <trkpt lat="45.65644" lon="6.25815">
        <ele>-6.263</ele>
        <time>2020-07-13T08:53:54Z</time>
      </trkpt>
      <trkpt lat="45.65647" lon="6.2582">
        <ele>-6.263</ele>
        <time>2020-07-13T08:53:59Z</time>
      </trkpt>
      <trkpt lat="45.65651" lon="6.25824">
        <ele>-6.263</ele>
        <time>2020-07-13T08:54:09Z</time>
      </trkpt>
      <trkpt lat="45.65652" lon="6.25827">
        <ele>-6.263</ele>
        <time>2020-07-13T08:54:29Z</time>
      </trkpt>
      <trkpt lat="45.65656" lon="6.25832">
        <ele>-6.263</ele>
        <time>2020-07-13T08:54:39Z</time>
      </trkpt>
      <trkpt lat="45.65662" lon="6.25834">
        <ele>-6.263</ele>
        <time>2020-07-13T08:54:44Z</time>
      </trkpt>
      <trkpt lat="45.65679" lon="6.25834">
        <ele>-6.263</ele>
        <time>2020-07-13T08:54:54Z</time>
      </trkpt>
      <trkpt lat="45.6569" lon="6.25831">
        <ele>-6.263</ele>
        <time>2020-07-13T08:55:04Z</time>
      </trkpt>
      <trkpt lat="45.65697" lon="6.25824">
        <ele>-6.263</ele>
        <time>2020-07-13T08:55:14Z</time>
      </trkpt>
      <trkpt lat="45.65701" lon="6.25818">
        <ele>-6.263</ele>
        <time>2020-07-13T08:55:19Z</time>
      </trkpt>
      <trkpt lat="45.65706" lon="6.25817">
        <ele>-6.263</ele>
        <time>2020-07-13T08:55:29Z</time>
      </trkpt>
      <trkpt lat="45.65712" lon="6.25817">
        <ele>-6.263</ele>
        <time>2020-07-13T08:55:39Z</time>
      </trkpt>
      <trkpt lat="45.65721" lon="6.25817">
        <ele>-6.263</ele>
        <time>2020-07-13T08:55:49Z</time>
      </trkpt>
      <trkpt lat="45.65736" lon="6.25812">
        <ele>-6.263</ele>
        <time>2020-07-13T08:55:59Z</time>
      </trkpt>
      <trkpt lat="45.65743" lon="6.25809">
        <ele>-6.263</ele>
        <time>2020-07-13T08:56:04Z</time>
      </trkpt>
      <trkpt lat="45.65749" lon="6.25805">
        <ele>-6.263</ele>
        <time>2020-07-13T08:56:09Z</time>
      </trkpt>
      <trkpt lat="45.65753" lon="6.25805">
        <ele>-6.263</ele>
        <time>2020-07-13T08:56:18Z</time>
      </trkpt>
      <trkpt lat="45.65758" lon="6.25804">
        <ele>-6.263</ele>
        <time>2020-07-13T08:56:24Z</time>
      </trkpt>
      <trkpt lat="45.65768" lon="6.25799">
        <ele>-6.263</ele>
        <time>2020-07-13T08:56:34Z</time>
      </trkpt>
      <trkpt lat="45.6578" lon="6.25792">
        <ele>-6.263</ele>
        <time>2020-07-13T08:56:44Z</time>
      </trkpt>
      <trkpt lat="45.65787" lon="6.25788">
        <ele>-6.263</ele>
        <time>2020-07-13T08:56:49Z</time>
      </trkpt>
      <trkpt lat="45.65797" lon="6.25783">
        <ele>-6.263</ele>
        <time>2020-07-13T08:56:59Z</time>
      </trkpt>
      <trkpt lat="45.65803" lon="6.25783">
        <ele>-6.263</ele>
        <time>2020-07-13T08:57:09Z</time>
      </trkpt>
      <trkpt lat="45.65809" lon="6.25786">
        <ele>-6.263</ele>
        <time>2020-07-13T08:57:19Z</time>
      </trkpt>
      <trkpt lat="45.65814" lon="6.25785">
        <ele>-6.263</ele>
        <time>2020-07-13T08:57:29Z</time>
      </trkpt>
      <trkpt lat="45.65819" lon="6.25785">
        <ele>-6.263</ele>
        <time>2020-07-13T08:57:44Z</time>
      </trkpt>
      <trkpt lat="45.65825" lon="6.25788">
        <ele>-6.263</ele>
        <time>2020-07-13T08:57:54Z</time>
      </trkpt>
      <trkpt lat="45.65831" lon="6.25791">
        <ele>-6.263</ele>
        <time>2020-07-13T08:58:04Z</time>
      </trkpt>
      <trkpt lat="45.65841" lon="6.25789">
        <ele>-6.263</ele>
        <time>2020-07-13T08:58:14Z</time>
      </trkpt>
      <trkpt lat="45.65849" lon="6.25786">
        <ele>-6.263</ele>
        <time>2020-07-13T08:58:19Z</time>
      </trkpt>
      <trkpt lat="45.65862" lon="6.25782">
        <ele>-6.263</ele>
        <time>2020-07-13T08:58:29Z</time>
      </trkpt>
      <trkpt lat="45.65874" lon="6.25779">
        <ele>-6.263</ele>
        <time>2020-07-13T08:58:39Z</time>
      </trkpt>
      <trkpt lat="45.65886" lon="6.25782">
        <ele>-6.263</ele>
        <time>2020-07-13T08:58:49Z</time>
      </trkpt>
      <trkpt lat="45.65897" lon="6.25779">
        <ele>-6.263</ele>
        <time>2020-07-13T08:58:59Z</time>
      </trkpt>
      <trkpt lat="45.65902" lon="6.25779">
        <ele>-6.263</ele>
        <time>2020-07-13T08:59:04Z</time>
      </trkpt>
      <trkpt lat="45.65911" lon="6.25777">
        <ele>-6.263</ele>
        <time>2020-07-13T08:59:14Z</time>
      </trkpt>
      <trkpt lat="45.65918" lon="6.25776">
        <ele>-6.263</ele>
        <time>2020-07-13T08:59:24Z</time>
      </trkpt>
      <trkpt lat="45.65926" lon="6.25771">
        <ele>-6.263</ele>
        <time>2020-07-13T08:59:34Z</time>
      </trkpt>
      <trkpt lat="45.65939" lon="6.25774">
        <ele>-6.263</ele>
        <time>2020-07-13T08:59:44Z</time>
      </trkpt>
      <trkpt lat="45.65944" lon="6.25768">
        <ele>-6.263</ele>
        <time>2020-07-13T08:59:49Z</time>
      </trkpt>
      <trkpt lat="45.65958" lon="6.25768">
        <ele>-6.263</ele>
        <time>2020-07-13T08:59:59Z</time>
      </trkpt>
      <trkpt lat="45.65976" lon="6.2577">
        <ele>-6.263</ele>
        <time>2020-07-13T09:00:09Z</time>
      </trkpt>
      <trkpt lat="45.65987" lon="6.25764">
        <ele>-6.263</ele>
        <time>2020-07-13T09:00:19Z</time>
      </trkpt>
      <trkpt lat="45.65999" lon="6.25756">
        <ele>-6.263</ele>
        <time>2020-07-13T09:00:29Z</time>
      </trkpt>
      <trkpt lat="45.66003" lon="6.25752">
        <ele>-6.263</ele>
        <time>2020-07-13T09:00:34Z</time>
      </trkpt>
      <trkpt lat="45.66012" lon="6.25746">
        <ele>-6.263</ele>
        <time>2020-07-13T09:00:44Z</time>
      </trkpt>
      <trkpt lat="45.66019" lon="6.25745">
        <ele>-6.263</ele>
        <time>2020-07-13T09:00:54Z</time>
      </trkpt>
      <trkpt lat="45.66024" lon="6.25744">
        <ele>-6.263</ele>
        <time>2020-07-13T09:01:04Z</time>
      </trkpt>
      <trkpt lat="45.66028" lon="6.25744">
        <ele>-6.263</ele>
        <time>2020-07-13T09:01:14Z</time>
      </trkpt>
      <trkpt lat="45.66032" lon="6.25743">
        <ele>-6.263</ele>
        <time>2020-07-13T09:01:19Z</time>
      </trkpt>
      <trkpt lat="45.66042" lon="6.25749">
        <ele>-6.263</ele>
        <time>2020-07-13T09:01:29Z</time>
      </trkpt>
      <trkpt lat="45.66056" lon="6.25766">
        <ele>-6.263</ele>
        <time>2020-07-13T09:01:39Z</time>
      </trkpt>
      <trkpt lat="45.66069" lon="6.25779">
        <ele>-6.263</ele>
        <time>2020-07-13T09:01:49Z</time>
      </trkpt>
      <trkpt lat="45.66074" lon="6.25784">
        <ele>-6.263</ele>
        <time>2020-07-13T09:01:54Z</time>
      </trkpt>
      <trkpt lat="45.66079" lon="6.25795">
        <ele>-6.263</ele>
        <time>2020-07-13T09:01:59Z</time>
      </trkpt>
      <trkpt lat="45.66084" lon="6.258">
        <ele>-6.263</ele>
        <time>2020-07-13T09:02:04Z</time>
      </trkpt>
      <trkpt lat="45.6609" lon="6.2581">
        <ele>-6.263</ele>
        <time>2020-07-13T09:02:14Z</time>
      </trkpt>
      <trkpt lat="45.66098" lon="6.25826">
        <ele>-6.263</ele>
        <time>2020-07-13T09:02:24Z</time>
      </trkpt>
      <trkpt lat="45.66106" lon="6.25835">
        <ele>-6.263</ele>
        <time>2020-07-13T09:02:34Z</time>
      </trkpt>
      <trkpt lat="45.66112" lon="6.25843">
        <ele>-6.263</ele>
        <time>2020-07-13T09:02:39Z</time>
      </trkpt>
      <trkpt lat="45.66121" lon="6.2585">
        <ele>-6.263</ele>
        <time>2020-07-13T09:02:44Z</time>
      </trkpt>
      <trkpt lat="45.66125" lon="6.25855">
        <ele>-6.263</ele>
        <time>2020-07-13T09:02:49Z</time>
      </trkpt>
      <trkpt lat="45.6613" lon="6.2586">
        <ele>-6.263</ele>
        <time>2020-07-13T09:02:59Z</time>
      </trkpt>
      <trkpt lat="45.66137" lon="6.25858">
        <ele>-6.263</ele>
        <time>2020-07-13T09:03:09Z</time>
      </trkpt>
      <trkpt lat="45.66146" lon="6.25852">
        <ele>-6.263</ele>
        <time>2020-07-13T09:03:48Z</time>
      </trkpt>
      <trkpt lat="45.66147" lon="6.25856">
        <ele>-6.263</ele>
        <time>2020-07-13T09:06:09Z</time>
      </trkpt>
      <trkpt lat="45.66149" lon="6.25862">
        <ele>-6.263</ele>
        <time>2020-07-13T09:06:23Z</time>
      </trkpt>
      <trkpt lat="45.66149" lon="6.25869">
        <ele>-6.263</ele>
        <time>2020-07-13T09:06:28Z</time>
      </trkpt>
      <trkpt lat="45.66149" lon="6.25877">
        <ele>-6.263</ele>
        <time>2020-07-13T09:06:34Z</time>
      </trkpt>
      <trkpt lat="45.66152" lon="6.25888">
        <ele>-6.263</ele>
        <time>2020-07-13T09:06:44Z</time>
      </trkpt>
      <trkpt lat="45.66157" lon="6.25899">
        <ele>-6.263</ele>
        <time>2020-07-13T09:06:54Z</time>
      </trkpt>
      <trkpt lat="45.66155" lon="6.25906">
        <ele>-6.263</ele>
        <time>2020-07-13T09:07:13Z</time>
      </trkpt>
      <trkpt lat="45.66161" lon="6.2591">
        <ele>-6.263</ele>
        <time>2020-07-13T09:07:29Z</time>
      </trkpt>
      <trkpt lat="45.66168" lon="6.25923">
        <ele>-6.263</ele>
        <time>2020-07-13T09:07:39Z</time>
      </trkpt>
      <trkpt lat="45.66178" lon="6.25924">
        <ele>-6.263</ele>
        <time>2020-07-13T09:07:49Z</time>
      </trkpt>
      <trkpt lat="45.66187" lon="6.25926">
        <ele>-6.263</ele>
        <time>2020-07-13T09:07:54Z</time>
      </trkpt>
      <trkpt lat="45.66195" lon="6.25925">
        <ele>-6.263</ele>
        <time>2020-07-13T09:08:04Z</time>
      </trkpt>
      <trkpt lat="45.66209" lon="6.25943">
        <ele>-6.263</ele>
        <time>2020-07-13T09:08:14Z</time>
      </trkpt>
      <trkpt lat="45.66222" lon="6.25957">
        <ele>-6.263</ele>
        <time>2020-07-13T09:08:24Z</time>
      </trkpt>
      <trkpt lat="45.66232" lon="6.25968">
        <ele>-6.263</ele>
        <time>2020-07-13T09:08:34Z</time>
      </trkpt>
      <trkpt lat="45.66237" lon="6.25974">
        <ele>-6.263</ele>
        <time>2020-07-13T09:08:39Z</time>
      </trkpt>
      <trkpt lat="45.66242" lon="6.2598">
        <ele>-6.263</ele>
        <time>2020-07-13T09:08:49Z</time>
      </trkpt>
      <trkpt lat="45.66256" lon="6.25998">
        <ele>-6.263</ele>
        <time>2020-07-13T09:08:59Z</time>
      </trkpt>
      <trkpt lat="45.66263" lon="6.26008">
        <ele>-6.263</ele>
        <time>2020-07-13T09:09:09Z</time>
      </trkpt>
      <trkpt lat="45.6627" lon="6.26014">
        <ele>-6.263</ele>
        <time>2020-07-13T09:09:19Z</time>
      </trkpt>
      <trkpt lat="45.66275" lon="6.26023">
        <ele>-6.263</ele>
        <time>2020-07-13T09:09:28Z</time>
      </trkpt>
      <trkpt lat="45.66277" lon="6.2603">
        <ele>-6.263</ele>
        <time>2020-07-13T09:09:34Z</time>
      </trkpt>
      <trkpt lat="45.66281" lon="6.26041">
        <ele>-6.263</ele>
        <time>2020-07-13T09:09:44Z</time>
      </trkpt>
      <trkpt lat="45.6629" lon="6.2605">
        <ele>-6.263</ele>
        <time>2020-07-13T09:09:54Z</time>
      </trkpt>
      <trkpt lat="45.66298" lon="6.2605">
        <ele>-6.263</ele>
        <time>2020-07-13T09:10:04Z</time>
      </trkpt>
      <trkpt lat="45.66304" lon="6.26047">
        <ele>-6.263</ele>
        <time>2020-07-13T09:10:13Z</time>
      </trkpt>
      <trkpt lat="45.66308" lon="6.26049">
        <ele>-6.263</ele>
        <time>2020-07-13T09:10:19Z</time>
      </trkpt>
      <trkpt lat="45.66321" lon="6.26058">
        <ele>-6.263</ele>
        <time>2020-07-13T09:10:29Z</time>
      </trkpt>
      <trkpt lat="45.66333" lon="6.26058">
        <ele>-6.263</ele>
        <time>2020-07-13T09:10:39Z</time>
      </trkpt>
      <trkpt lat="45.66346" lon="6.26062">
        <ele>-6.263</ele>
        <time>2020-07-13T09:10:49Z</time>
      </trkpt>
      <trkpt lat="45.66351" lon="6.26064">
        <ele>-6.263</ele>
        <time>2020-07-13T09:10:54Z</time>
      </trkpt>
      <trkpt lat="45.66364" lon="6.2607">
        <ele>-6.263</ele>
        <time>2020-07-13T09:11:04Z</time>
      </trkpt>
      <trkpt lat="45.66374" lon="6.26073">
        <ele>-6.263</ele>
        <time>2020-07-13T09:11:14Z</time>
      </trkpt>
      <trkpt lat="45.66383" lon="6.26078">
        <ele>-6.263</ele>
        <time>2020-07-13T09:11:24Z</time>
      </trkpt>
      <trkpt lat="45.66387" lon="6.26081">
        <ele>-6.263</ele>
        <time>2020-07-13T09:11:34Z</time>
      </trkpt>
      <trkpt lat="45.6639" lon="6.26085">
        <ele>-6.263</ele>
        <time>2020-07-13T09:11:43Z</time>
      </trkpt>
      <trkpt lat="45.66394" lon="6.26087">
        <ele>-6.263</ele>
        <time>2020-07-13T09:11:53Z</time>
      </trkpt>
      <trkpt lat="45.66403" lon="6.26091">
        <ele>-6.263</ele>
        <time>2020-07-13T09:12:03Z</time>
      </trkpt>
      <trkpt lat="45.66409" lon="6.2609">
        <ele>-6.263</ele>
        <time>2020-07-13T09:12:09Z</time>
      </trkpt>
      <trkpt lat="45.66416" lon="6.26095">
        <ele>-6.263</ele>
        <time>2020-07-13T09:12:19Z</time>
      </trkpt>
      <trkpt lat="45.66429" lon="6.26101">
        <ele>-6.263</ele>
        <time>2020-07-13T09:12:28Z</time>
      </trkpt>
      <trkpt lat="45.66433" lon="6.26105">
        <ele>-6.263</ele>
        <time>2020-07-13T09:12:34Z</time>
      </trkpt>
      <trkpt lat="45.66446" lon="6.26116">
        <ele>-6.263</ele>
        <time>2020-07-13T09:12:44Z</time>
      </trkpt>
      <trkpt lat="45.66469" lon="6.26145">
        <ele>-6.263</ele>
        <time>2020-07-13T09:12:54Z</time>
      </trkpt>
      <trkpt lat="45.66472" lon="6.26153">
        <ele>-6.263</ele>
        <time>2020-07-13T09:12:59Z</time>
      </trkpt>
      <trkpt lat="45.66479" lon="6.26153">
        <ele>-6.263</ele>
        <time>2020-07-13T09:13:13Z</time>
      </trkpt>
      <trkpt lat="45.66483" lon="6.26154">
        <ele>-6.263</ele>
        <time>2020-07-13T09:13:19Z</time>
      </trkpt>
      <trkpt lat="45.66493" lon="6.26166">
        <ele>-6.263</ele>
        <time>2020-07-13T09:13:29Z</time>
      </trkpt>
      <trkpt lat="45.66505" lon="6.26181">
        <ele>-6.263</ele>
        <time>2020-07-13T09:13:39Z</time>
      </trkpt>
      <trkpt lat="45.66511" lon="6.26183">
        <ele>-6.263</ele>
        <time>2020-07-13T09:13:44Z</time>
      </trkpt>
      <trkpt lat="45.66525" lon="6.26197">
        <ele>-6.263</ele>
        <time>2020-07-13T09:13:54Z</time>
      </trkpt>
      <trkpt lat="45.6653" lon="6.26206">
        <ele>-6.263</ele>
        <time>2020-07-13T09:14:04Z</time>
      </trkpt>
      <trkpt lat="45.66536" lon="6.26213">
        <ele>-6.263</ele>
        <time>2020-07-13T09:14:14Z</time>
      </trkpt>
      <trkpt lat="45.66554" lon="6.26222">
        <ele>-6.263</ele>
        <time>2020-07-13T09:14:24Z</time>
      </trkpt>
      <trkpt lat="45.66563" lon="6.26228">
        <ele>-6.263</ele>
        <time>2020-07-13T09:14:29Z</time>
      </trkpt>
      <trkpt lat="45.66569" lon="6.26235">
        <ele>-6.263</ele>
        <time>2020-07-13T09:14:34Z</time>
      </trkpt>
      <trkpt lat="45.66571" lon="6.26241">
        <ele>-6.263</ele>
        <time>2020-07-13T09:14:39Z</time>
      </trkpt>
      <trkpt lat="45.66581" lon="6.26246">
        <ele>-6.263</ele>
        <time>2020-07-13T09:14:49Z</time>
      </trkpt>
      <trkpt lat="45.66592" lon="6.26249">
        <ele>-6.263</ele>
        <time>2020-07-13T09:14:59Z</time>
      </trkpt>
      <trkpt lat="45.66601" lon="6.26258">
        <ele>-6.263</ele>
        <time>2020-07-13T09:15:09Z</time>
      </trkpt>
      <trkpt lat="45.66607" lon="6.26264">
        <ele>-6.263</ele>
        <time>2020-07-13T09:15:19Z</time>
      </trkpt>
      <trkpt lat="45.66612" lon="6.26267">
        <ele>-6.263</ele>
        <time>2020-07-13T09:15:24Z</time>
      </trkpt>
      <trkpt lat="45.66618" lon="6.26268">
        <ele>-6.263</ele>
        <time>2020-07-13T09:15:34Z</time>
      </trkpt>
      <trkpt lat="45.66621" lon="6.26271">
        <ele>-6.263</ele>
        <time>2020-07-13T09:15:44Z</time>
      </trkpt>
      <trkpt lat="45.66627" lon="6.26281">
        <ele>-6.263</ele>
        <time>2020-07-13T09:15:54Z</time>
      </trkpt>
      <trkpt lat="45.66631" lon="6.26291">
        <ele>-6.263</ele>
        <time>2020-07-13T09:15:59Z</time>
      </trkpt>
      <trkpt lat="45.66632" lon="6.26298">
        <ele>-6.263</ele>
        <time>2020-07-13T09:16:04Z</time>
      </trkpt>
      <trkpt lat="45.6664" lon="6.26307">
        <ele>-6.263</ele>
        <time>2020-07-13T09:16:09Z</time>
      </trkpt>
      <trkpt lat="45.66648" lon="6.26319">
        <ele>-6.263</ele>
        <time>2020-07-13T09:16:19Z</time>
      </trkpt>
      <trkpt lat="45.66657" lon="6.26327">
        <ele>-6.263</ele>
        <time>2020-07-13T09:16:29Z</time>
      </trkpt>
      <trkpt lat="45.66667" lon="6.26333">
        <ele>-6.263</ele>
        <time>2020-07-13T09:16:39Z</time>
      </trkpt>
      <trkpt lat="45.66672" lon="6.26339">
        <ele>-6.263</ele>
        <time>2020-07-13T09:16:44Z</time>
      </trkpt>
      <trkpt lat="45.66676" lon="6.26341">
        <ele>-6.263</ele>
        <time>2020-07-13T09:16:49Z</time>
      </trkpt>
      <trkpt lat="45.66681" lon="6.26348">
        <ele>-6.263</ele>
        <time>2020-07-13T09:16:54Z</time>
      </trkpt>
      <trkpt lat="45.6669" lon="6.26357">
        <ele>-6.263</ele>
        <time>2020-07-13T09:17:04Z</time>
      </trkpt>
      <trkpt lat="45.66699" lon="6.26367">
        <ele>-6.263</ele>
        <time>2020-07-13T09:17:14Z</time>
      </trkpt>
      <trkpt lat="45.66707" lon="6.26377">
        <ele>-6.263</ele>
        <time>2020-07-13T09:17:24Z</time>
      </trkpt>
      <trkpt lat="45.66712" lon="6.26382">
        <ele>-6.263</ele>
        <time>2020-07-13T09:17:29Z</time>
      </trkpt>
      <trkpt lat="45.66716" lon="6.26388">
        <ele>-6.263</ele>
        <time>2020-07-13T09:17:34Z</time>
      </trkpt>
      <trkpt lat="45.66722" lon="6.26395">
        <ele>-6.263</ele>
        <time>2020-07-13T09:17:43Z</time>
      </trkpt>
      <trkpt lat="45.66726" lon="6.26401">
        <ele>-6.263</ele>
        <time>2020-07-13T09:17:49Z</time>
      </trkpt>
      <trkpt lat="45.66731" lon="6.26411">
        <ele>-6.263</ele>
        <time>2020-07-13T09:17:59Z</time>
      </trkpt>
      <trkpt lat="45.66736" lon="6.26422">
        <ele>-6.263</ele>
        <time>2020-07-13T09:18:09Z</time>
      </trkpt>
      <trkpt lat="45.66739" lon="6.26427">
        <ele>-6.263</ele>
        <time>2020-07-13T09:18:14Z</time>
      </trkpt>
      <trkpt lat="45.66744" lon="6.26433">
        <ele>-6.263</ele>
        <time>2020-07-13T09:18:19Z</time>
      </trkpt>
      <trkpt lat="45.66747" lon="6.26442">
        <ele>-6.263</ele>
        <time>2020-07-13T09:18:24Z</time>
      </trkpt>
      <trkpt lat="45.66752" lon="6.26452">
        <ele>-6.263</ele>
        <time>2020-07-13T09:18:34Z</time>
      </trkpt>
      <trkpt lat="45.66756" lon="6.26466">
        <ele>-6.263</ele>
        <time>2020-07-13T09:18:44Z</time>
      </trkpt>
      <trkpt lat="45.66761" lon="6.26476">
        <ele>-6.263</ele>
        <time>2020-07-13T09:18:54Z</time>
      </trkpt>
      <trkpt lat="45.66766" lon="6.26483">
        <ele>-6.263</ele>
        <time>2020-07-13T09:19:04Z</time>
      </trkpt>
      <trkpt lat="45.6677" lon="6.2649">
        <ele>-6.263</ele>
        <time>2020-07-13T09:19:13Z</time>
      </trkpt>
      <trkpt lat="45.66771" lon="6.26499">
        <ele>-6.263</ele>
        <time>2020-07-13T09:19:23Z</time>
      </trkpt>
      <trkpt lat="45.66775" lon="6.26508">
        <ele>-6.263</ele>
        <time>2020-07-13T09:19:33Z</time>
      </trkpt>
      <trkpt lat="45.66777" lon="6.26516">
        <ele>-6.263</ele>
        <time>2020-07-13T09:19:39Z</time>
      </trkpt>
      <trkpt lat="45.66778" lon="6.26523">
        <ele>-6.263</ele>
        <time>2020-07-13T09:19:49Z</time>
      </trkpt>
      <trkpt lat="45.6678" lon="6.2653">
        <ele>-6.263</ele>
        <time>2020-07-13T09:19:54Z</time>
      </trkpt>
      <trkpt lat="45.66781" lon="6.26536">
        <ele>-6.263</ele>
        <time>2020-07-13T09:20:04Z</time>
      </trkpt>
      <trkpt lat="45.66784" lon="6.2654">
        <ele>-6.263</ele>
        <time>2020-07-13T09:20:14Z</time>
      </trkpt>
      <trkpt lat="45.66786" lon="6.26548">
        <ele>-6.263</ele>
        <time>2020-07-13T09:20:24Z</time>
      </trkpt>
      <trkpt lat="45.66791" lon="6.26554">
        <ele>-6.263</ele>
        <time>2020-07-13T09:20:34Z</time>
      </trkpt>
      <trkpt lat="45.66792" lon="6.2656">
        <ele>-6.263</ele>
        <time>2020-07-13T09:20:43Z</time>
      </trkpt>
      <trkpt lat="45.66794" lon="6.26567">
        <ele>-6.263</ele>
        <time>2020-07-13T09:20:53Z</time>
      </trkpt>
      <trkpt lat="45.66795" lon="6.26576">
        <ele>-6.263</ele>
        <time>2020-07-13T09:20:59Z</time>
      </trkpt>
      <trkpt lat="45.66793" lon="6.26584">
        <ele>-6.263</ele>
        <time>2020-07-13T09:21:09Z</time>
      </trkpt>
      <trkpt lat="45.66795" lon="6.2659">
        <ele>-6.263</ele>
        <time>2020-07-13T09:21:14Z</time>
      </trkpt>
      <trkpt lat="45.66797" lon="6.26599">
        <ele>-6.263</ele>
        <time>2020-07-13T09:21:24Z</time>
      </trkpt>
      <trkpt lat="45.66797" lon="6.26603">
        <ele>-6.263</ele>
        <time>2020-07-13T09:21:38Z</time>
      </trkpt>
      <trkpt lat="45.66793" lon="6.26616">
        <ele>-6.263</ele>
        <time>2020-07-13T09:21:48Z</time>
      </trkpt>
      <trkpt lat="45.66789" lon="6.26626">
        <ele>-6.263</ele>
        <time>2020-07-13T09:21:54Z</time>
      </trkpt>
      <trkpt lat="45.66786" lon="6.26635">
        <ele>-6.263</ele>
        <time>2020-07-13T09:21:59Z</time>
      </trkpt>
      <trkpt lat="45.66788" lon="6.2665">
        <ele>-6.263</ele>
        <time>2020-07-13T09:22:09Z</time>
      </trkpt>
      <trkpt lat="45.66787" lon="6.2666">
        <ele>-6.263</ele>
        <time>2020-07-13T09:22:19Z</time>
      </trkpt>
      <trkpt lat="45.66785" lon="6.2667">
        <ele>-6.263</ele>
        <time>2020-07-13T09:22:29Z</time>
      </trkpt>
      <trkpt lat="45.66787" lon="6.26669">
        <ele>-6.263</ele>
        <time>2020-07-13T09:23:04Z</time>
      </trkpt>
      <trkpt lat="45.66787" lon="6.26673">
        <ele>-6.263</ele>
        <time>2020-07-13T09:23:39Z</time>
      </trkpt>
      <trkpt lat="45.66787" lon="6.26676">
        <ele>-6.263</ele>
        <time>2020-07-13T09:24:03Z</time>
      </trkpt>
      <trkpt lat="45.66786" lon="6.26682">
        <ele>-6.263</ele>
        <time>2020-07-13T09:24:18Z</time>
      </trkpt>
      <trkpt lat="45.66787" lon="6.26684">
        <ele>-6.263</ele>
        <time>2020-07-13T09:24:58Z</time>
      </trkpt>
      <trkpt lat="45.66788" lon="6.26701">
        <ele>-6.263</ele>
        <time>2020-07-13T09:25:09Z</time>
      </trkpt>
      <trkpt lat="45.66795" lon="6.2671">
        <ele>-6.263</ele>
        <time>2020-07-13T09:25:19Z</time>
      </trkpt>
      <trkpt lat="45.66796" lon="6.26715">
        <ele>-6.263</ele>
        <time>2020-07-13T09:25:29Z</time>
      </trkpt>
      <trkpt lat="45.66798" lon="6.26721">
        <ele>-6.263</ele>
        <time>2020-07-13T09:25:39Z</time>
      </trkpt>
      <trkpt lat="45.66801" lon="6.26727">
        <ele>-6.263</ele>
        <time>2020-07-13T09:26:14Z</time>
      </trkpt>
      <trkpt lat="45.66803" lon="6.26735">
        <ele>-6.263</ele>
        <time>2020-07-13T09:26:19Z</time>
      </trkpt>
      <trkpt lat="45.66803" lon="6.26742">
        <ele>-6.263</ele>
        <time>2020-07-13T09:26:24Z</time>
      </trkpt>
      <trkpt lat="45.66805" lon="6.2675">
        <ele>-6.263</ele>
        <time>2020-07-13T09:26:29Z</time>
      </trkpt>
      <trkpt lat="45.66806" lon="6.26767">
        <ele>-6.263</ele>
        <time>2020-07-13T09:26:39Z</time>
      </trkpt>
      <trkpt lat="45.66806" lon="6.26787">
        <ele>-6.263</ele>
        <time>2020-07-13T09:26:49Z</time>
      </trkpt>
      <trkpt lat="45.66815" lon="6.26799">
        <ele>-6.263</ele>
        <time>2020-07-13T09:26:59Z</time>
      </trkpt>
      <trkpt lat="45.66819" lon="6.26804">
        <ele>-6.263</ele>
        <time>2020-07-13T09:27:04Z</time>
      </trkpt>
      <trkpt lat="45.66825" lon="6.26807">
        <ele>-6.263</ele>
        <time>2020-07-13T09:27:09Z</time>
      </trkpt>
      <trkpt lat="45.6683" lon="6.26812">
        <ele>-6.263</ele>
        <time>2020-07-13T09:27:14Z</time>
      </trkpt>
      <trkpt lat="45.66838" lon="6.26818">
        <ele>-6.263</ele>
        <time>2020-07-13T09:27:24Z</time>
      </trkpt>
      <trkpt lat="45.66844" lon="6.26824">
        <ele>-6.263</ele>
        <time>2020-07-13T09:27:34Z</time>
      </trkpt>
      <trkpt lat="45.66849" lon="6.26831">
        <ele>-6.263</ele>
        <time>2020-07-13T09:27:44Z</time>
      </trkpt>
      <trkpt lat="45.66854" lon="6.26839">
        <ele>-6.263</ele>
        <time>2020-07-13T09:27:53Z</time>
      </trkpt>
      <trkpt lat="45.66858" lon="6.26845">
        <ele>-6.263</ele>
        <time>2020-07-13T09:27:59Z</time>
      </trkpt>
      <trkpt lat="45.66864" lon="6.26852">
        <ele>-6.263</ele>
        <time>2020-07-13T09:28:09Z</time>
      </trkpt>
      <trkpt lat="45.66869" lon="6.26861">
        <ele>-6.263</ele>
        <time>2020-07-13T09:28:19Z</time>
      </trkpt>
      <trkpt lat="45.66872" lon="6.26873">
        <ele>-6.263</ele>
        <time>2020-07-13T09:28:29Z</time>
      </trkpt>
      <trkpt lat="45.66874" lon="6.26879">
        <ele>-6.263</ele>
        <time>2020-07-13T09:28:34Z</time>
      </trkpt>
      <trkpt lat="45.66876" lon="6.26898">
        <ele>-6.263</ele>
        <time>2020-07-13T09:28:44Z</time>
      </trkpt>
      <trkpt lat="45.66878" lon="6.26912">
        <ele>-6.263</ele>
        <time>2020-07-13T09:28:54Z</time>
      </trkpt>
      <trkpt lat="45.66881" lon="6.26924">
        <ele>-6.263</ele>
        <time>2020-07-13T09:29:04Z</time>
      </trkpt>
      <trkpt lat="45.66882" lon="6.26935">
        <ele>-6.263</ele>
        <time>2020-07-13T09:29:14Z</time>
      </trkpt>
      <trkpt lat="45.66886" lon="6.26939">
        <ele>-6.263</ele>
        <time>2020-07-13T09:29:19Z</time>
      </trkpt>
      <trkpt lat="45.66888" lon="6.26951">
        <ele>-6.263</ele>
        <time>2020-07-13T09:29:29Z</time>
      </trkpt>
      <trkpt lat="45.66891" lon="6.26963">
        <ele>-6.263</ele>
        <time>2020-07-13T09:29:39Z</time>
      </trkpt>
      <trkpt lat="45.66892" lon="6.26977">
        <ele>-6.263</ele>
        <time>2020-07-13T09:29:49Z</time>
      </trkpt>
      <trkpt lat="45.66892" lon="6.26987">
        <ele>-6.263</ele>
        <time>2020-07-13T09:29:59Z</time>
      </trkpt>
      <trkpt lat="45.66893" lon="6.26987">
        <ele>-6.263</ele>
        <time>2020-07-13T09:30:24Z</time>
      </trkpt>
      <trkpt lat="45.6689" lon="6.26991">
        <ele>-6.263</ele>
        <time>2020-07-13T09:30:59Z</time>
      </trkpt>
      <trkpt lat="45.66889" lon="6.2699">
        <ele>-6.263</ele>
        <time>2020-07-13T09:32:08Z</time>
      </trkpt>
      <trkpt lat="45.6689" lon="6.26991">
        <ele>-6.263</ele>
        <time>2020-07-13T09:35:54Z</time>
      </trkpt>
      <trkpt lat="45.66889" lon="6.26991">
        <ele>-6.263</ele>
        <time>2020-07-13T09:37:24Z</time>
      </trkpt>
      <trkpt lat="45.66889" lon="6.26989">
        <ele>-6.263</ele>
        <time>2020-07-13T09:40:24Z</time>
      </trkpt>
      <trkpt lat="45.66887" lon="6.26985">
        <ele>-6.263</ele>
        <time>2020-07-13T09:41:39Z</time>
      </trkpt>
      <trkpt lat="45.66887" lon="6.26979">
        <ele>-6.263</ele>
        <time>2020-07-13T09:41:48Z</time>
      </trkpt>
      <trkpt lat="45.6689" lon="6.26969">
        <ele>-6.263</ele>
        <time>2020-07-13T09:41:58Z</time>
      </trkpt>
      <trkpt lat="45.66888" lon="6.26969">
        <ele>-6.263</ele>
        <time>2020-07-13T09:42:04Z</time>
      </trkpt>
      <trkpt lat="45.66889" lon="6.26965">
        <ele>-6.263</ele>
        <time>2020-07-13T09:42:39Z</time>
      </trkpt>
      <trkpt lat="45.66887" lon="6.26953">
        <ele>-6.263</ele>
        <time>2020-07-13T09:42:49Z</time>
      </trkpt>
      <trkpt lat="45.66884" lon="6.26941">
        <ele>-6.263</ele>
        <time>2020-07-13T09:42:59Z</time>
      </trkpt>
      <trkpt lat="45.66882" lon="6.26935">
        <ele>-6.263</ele>
        <time>2020-07-13T09:43:04Z</time>
      </trkpt>
      <trkpt lat="45.66879" lon="6.26922">
        <ele>-6.263</ele>
        <time>2020-07-13T09:43:14Z</time>
      </trkpt>
      <trkpt lat="45.66876" lon="6.26908">
        <ele>-6.263</ele>
        <time>2020-07-13T09:43:24Z</time>
      </trkpt>
      <trkpt lat="45.66873" lon="6.26885">
        <ele>-6.263</ele>
        <time>2020-07-13T09:43:34Z</time>
      </trkpt>
      <trkpt lat="45.66872" lon="6.26877">
        <ele>-6.263</ele>
        <time>2020-07-13T09:43:44Z</time>
      </trkpt>
      <trkpt lat="45.6687" lon="6.26867">
        <ele>-6.263</ele>
        <time>2020-07-13T09:43:53Z</time>
      </trkpt>
      <trkpt lat="45.66869" lon="6.26858">
        <ele>-6.263</ele>
        <time>2020-07-13T09:43:59Z</time>
      </trkpt>
      <trkpt lat="45.66866" lon="6.26854">
        <ele>-6.263</ele>
        <time>2020-07-13T09:44:09Z</time>
      </trkpt>
      <trkpt lat="45.66869" lon="6.26854">
        <ele>-6.263</ele>
        <time>2020-07-13T09:44:19Z</time>
      </trkpt>
      <trkpt lat="45.66877" lon="6.26846">
        <ele>-6.263</ele>
        <time>2020-07-13T09:44:29Z</time>
      </trkpt>
      <trkpt lat="45.66882" lon="6.26846">
        <ele>-6.263</ele>
        <time>2020-07-13T09:44:34Z</time>
      </trkpt>
      <trkpt lat="45.6689" lon="6.26846">
        <ele>-6.263</ele>
        <time>2020-07-13T09:44:44Z</time>
      </trkpt>
      <trkpt lat="45.669" lon="6.26845">
        <ele>-6.263</ele>
        <time>2020-07-13T09:44:54Z</time>
      </trkpt>
      <trkpt lat="45.66909" lon="6.2685">
        <ele>-6.263</ele>
        <time>2020-07-13T09:45:04Z</time>
      </trkpt>
      <trkpt lat="45.66909" lon="6.26851">
        <ele>-6.263</ele>
        <time>2020-07-13T09:45:19Z</time>
      </trkpt>
      <trkpt lat="45.66917" lon="6.26855">
        <ele>-6.263</ele>
        <time>2020-07-13T09:45:29Z</time>
      </trkpt>
      <trkpt lat="45.66928" lon="6.2686">
        <ele>-6.263</ele>
        <time>2020-07-13T09:45:39Z</time>
      </trkpt>
      <trkpt lat="45.6693" lon="6.26858">
        <ele>-6.263</ele>
        <time>2020-07-13T09:45:53Z</time>
      </trkpt>
      <trkpt lat="45.66931" lon="6.26863">
        <ele>-6.263</ele>
        <time>2020-07-13T09:46:03Z</time>
      </trkpt>
      <trkpt lat="45.66938" lon="6.26869">
        <ele>-6.263</ele>
        <time>2020-07-13T09:46:14Z</time>
      </trkpt>
      <trkpt lat="45.6695" lon="6.26877">
        <ele>-6.263</ele>
        <time>2020-07-13T09:46:24Z</time>
      </trkpt>
      <trkpt lat="45.66963" lon="6.26879">
        <ele>-6.263</ele>
        <time>2020-07-13T09:46:34Z</time>
      </trkpt>
      <trkpt lat="45.66975" lon="6.2688">
        <ele>-6.263</ele>
        <time>2020-07-13T09:46:44Z</time>
      </trkpt>
      <trkpt lat="45.66981" lon="6.26881">
        <ele>-6.263</ele>
        <time>2020-07-13T09:46:49Z</time>
      </trkpt>
      <trkpt lat="45.66986" lon="6.26885">
        <ele>-6.263</ele>
        <time>2020-07-13T09:46:59Z</time>
      </trkpt>
      <trkpt lat="45.66987" lon="6.26883">
        <ele>-6.263</ele>
        <time>2020-07-13T09:47:19Z</time>
      </trkpt>
      <trkpt lat="45.66991" lon="6.26886">
        <ele>-6.263</ele>
        <time>2020-07-13T09:48:33Z</time>
      </trkpt>
      <trkpt lat="45.66997" lon="6.26886">
        <ele>-6.263</ele>
        <time>2020-07-13T09:48:39Z</time>
      </trkpt>
      <trkpt lat="45.67004" lon="6.2688">
        <ele>-6.263</ele>
        <time>2020-07-13T09:48:49Z</time>
      </trkpt>
      <trkpt lat="45.67006" lon="6.2687">
        <ele>-6.263</ele>
        <time>2020-07-13T09:48:58Z</time>
      </trkpt>
      <trkpt lat="45.67007" lon="6.26859">
        <ele>-6.263</ele>
        <time>2020-07-13T09:49:04Z</time>
      </trkpt>
      <trkpt lat="45.67006" lon="6.26851">
        <ele>-6.263</ele>
        <time>2020-07-13T09:49:14Z</time>
      </trkpt>
      <trkpt lat="45.67003" lon="6.26843">
        <ele>-6.263</ele>
        <time>2020-07-13T09:49:24Z</time>
      </trkpt>
      <trkpt lat="45.66998" lon="6.26831">
        <ele>-6.263</ele>
        <time>2020-07-13T09:49:34Z</time>
      </trkpt>
      <trkpt lat="45.66993" lon="6.26823">
        <ele>-6.263</ele>
        <time>2020-07-13T09:49:39Z</time>
      </trkpt>
      <trkpt lat="45.66986" lon="6.26814">
        <ele>-6.263</ele>
        <time>2020-07-13T09:49:49Z</time>
      </trkpt>
      <trkpt lat="45.6698" lon="6.26816">
        <ele>-6.263</ele>
        <time>2020-07-13T09:49:59Z</time>
      </trkpt>
      <trkpt lat="45.66972" lon="6.26809">
        <ele>-6.263</ele>
        <time>2020-07-13T09:50:09Z</time>
      </trkpt>
      <trkpt lat="45.66962" lon="6.26802">
        <ele>-6.263</ele>
        <time>2020-07-13T09:50:19Z</time>
      </trkpt>
      <trkpt lat="45.66964" lon="6.26799">
        <ele>-6.263</ele>
        <time>2020-07-13T09:50:34Z</time>
      </trkpt>
      <trkpt lat="45.66962" lon="6.26797">
        <ele>-6.263</ele>
        <time>2020-07-13T09:50:48Z</time>
      </trkpt>
      <trkpt lat="45.66955" lon="6.26791">
        <ele>-6.263</ele>
        <time>2020-07-13T09:50:58Z</time>
      </trkpt>
      <trkpt lat="45.66948" lon="6.26787">
        <ele>-6.263</ele>
        <time>2020-07-13T09:51:04Z</time>
      </trkpt>
      <trkpt lat="45.66943" lon="6.26781">
        <ele>-6.263</ele>
        <time>2020-07-13T09:51:09Z</time>
      </trkpt>
      <trkpt lat="45.66934" lon="6.26775">
        <ele>-6.263</ele>
        <time>2020-07-13T09:51:19Z</time>
      </trkpt>
      <trkpt lat="45.66923" lon="6.2677">
        <ele>-6.263</ele>
        <time>2020-07-13T09:51:29Z</time>
      </trkpt>
      <trkpt lat="45.66916" lon="6.26764">
        <ele>-6.263</ele>
        <time>2020-07-13T09:51:39Z</time>
      </trkpt>
      <trkpt lat="45.66908" lon="6.2676">
        <ele>-6.263</ele>
        <time>2020-07-13T09:51:49Z</time>
      </trkpt>
      <trkpt lat="45.66903" lon="6.26757">
        <ele>-6.263</ele>
        <time>2020-07-13T09:51:54Z</time>
      </trkpt>
      <trkpt lat="45.66894" lon="6.26746">
        <ele>-6.263</ele>
        <time>2020-07-13T09:52:04Z</time>
      </trkpt>
      <trkpt lat="45.66884" lon="6.26732">
        <ele>-6.263</ele>
        <time>2020-07-13T09:52:14Z</time>
      </trkpt>
      <trkpt lat="45.6688" lon="6.26716">
        <ele>-6.263</ele>
        <time>2020-07-13T09:52:24Z</time>
      </trkpt>
      <trkpt lat="45.66879" lon="6.26699">
        <ele>-6.263</ele>
        <time>2020-07-13T09:52:34Z</time>
      </trkpt>
      <trkpt lat="45.66879" lon="6.26685">
        <ele>-6.263</ele>
        <time>2020-07-13T09:52:43Z</time>
      </trkpt>
      <trkpt lat="45.6688" lon="6.26679">
        <ele>-6.263</ele>
        <time>2020-07-13T09:52:49Z</time>
      </trkpt>
      <trkpt lat="45.66887" lon="6.26671">
        <ele>-6.263</ele>
        <time>2020-07-13T09:52:59Z</time>
      </trkpt>
      <trkpt lat="45.66893" lon="6.26662">
        <ele>-6.263</ele>
        <time>2020-07-13T09:53:09Z</time>
      </trkpt>
      <trkpt lat="45.66903" lon="6.26658">
        <ele>-6.263</ele>
        <time>2020-07-13T09:53:19Z</time>
      </trkpt>
      <trkpt lat="45.66909" lon="6.26657">
        <ele>-6.263</ele>
        <time>2020-07-13T09:53:24Z</time>
      </trkpt>
      <trkpt lat="45.66917" lon="6.26654">
        <ele>-6.263</ele>
        <time>2020-07-13T09:53:34Z</time>
      </trkpt>
      <trkpt lat="45.66923" lon="6.26646">
        <ele>-6.263</ele>
        <time>2020-07-13T09:53:44Z</time>
      </trkpt>
      <trkpt lat="45.66926" lon="6.26638">
        <ele>-6.263</ele>
        <time>2020-07-13T09:53:54Z</time>
      </trkpt>
      <trkpt lat="45.66932" lon="6.26638">
        <ele>-6.263</ele>
        <time>2020-07-13T09:53:59Z</time>
      </trkpt>
      <trkpt lat="45.66943" lon="6.26637">
        <ele>-6.263</ele>
        <time>2020-07-13T09:54:09Z</time>
      </trkpt>
      <trkpt lat="45.66955" lon="6.26639">
        <ele>-6.263</ele>
        <time>2020-07-13T09:54:19Z</time>
      </trkpt>
      <trkpt lat="45.66967" lon="6.26645">
        <ele>-6.263</ele>
        <time>2020-07-13T09:54:29Z</time>
      </trkpt>
      <trkpt lat="45.6698" lon="6.26649">
        <ele>-6.263</ele>
        <time>2020-07-13T09:54:39Z</time>
      </trkpt>
      <trkpt lat="45.66984" lon="6.26645">
        <ele>-6.263</ele>
        <time>2020-07-13T09:54:48Z</time>
      </trkpt>
      <trkpt lat="45.66988" lon="6.26646">
        <ele>-6.263</ele>
        <time>2020-07-13T09:54:58Z</time>
      </trkpt>
      <trkpt lat="45.66992" lon="6.26644">
        <ele>-6.263</ele>
        <time>2020-07-13T09:55:04Z</time>
      </trkpt>
      <trkpt lat="45.66999" lon="6.26644">
        <ele>-6.263</ele>
        <time>2020-07-13T09:55:14Z</time>
      </trkpt>
      <trkpt lat="45.67007" lon="6.2664">
        <ele>-6.263</ele>
        <time>2020-07-13T09:55:24Z</time>
      </trkpt>
      <trkpt lat="45.67011" lon="6.26638">
        <ele>-6.263</ele>
        <time>2020-07-13T09:55:29Z</time>
      </trkpt>
      <trkpt lat="45.67016" lon="6.26635">
        <ele>-6.263</ele>
        <time>2020-07-13T09:55:39Z</time>
      </trkpt>
      <trkpt lat="45.67019" lon="6.26634">
        <ele>-6.263</ele>
        <time>2020-07-13T09:55:49Z</time>
      </trkpt>
      <trkpt lat="45.67031" lon="6.26632">
        <ele>-6.263</ele>
        <time>2020-07-13T09:55:59Z</time>
      </trkpt>
      <trkpt lat="45.6704" lon="6.2663">
        <ele>-6.263</ele>
        <time>2020-07-13T09:56:09Z</time>
      </trkpt>
      <trkpt lat="45.67044" lon="6.26634">
        <ele>-6.263</ele>
        <time>2020-07-13T09:56:18Z</time>
      </trkpt>
      <trkpt lat="45.67048" lon="6.26638">
        <ele>-6.263</ele>
        <time>2020-07-13T09:56:24Z</time>
      </trkpt>
      <trkpt lat="45.67057" lon="6.26643">
        <ele>-6.263</ele>
        <time>2020-07-13T09:56:34Z</time>
      </trkpt>
      <trkpt lat="45.67065" lon="6.26645">
        <ele>-6.263</ele>
        <time>2020-07-13T09:56:44Z</time>
      </trkpt>
      <trkpt lat="45.6707" lon="6.26649">
        <ele>-6.263</ele>
        <time>2020-07-13T09:56:54Z</time>
      </trkpt>
      <trkpt lat="45.67079" lon="6.2665">
        <ele>-6.263</ele>
        <time>2020-07-13T09:57:03Z</time>
      </trkpt>
      <trkpt lat="45.67085" lon="6.26655">
        <ele>-6.263</ele>
        <time>2020-07-13T09:57:09Z</time>
      </trkpt>
      <trkpt lat="45.67094" lon="6.26658">
        <ele>-6.263</ele>
        <time>2020-07-13T09:57:19Z</time>
      </trkpt>
      <trkpt lat="45.67104" lon="6.26656">
        <ele>-6.263</ele>
        <time>2020-07-13T09:57:29Z</time>
      </trkpt>
      <trkpt lat="45.67109" lon="6.26657">
        <ele>-6.263</ele>
        <time>2020-07-13T09:57:39Z</time>
      </trkpt>
      <trkpt lat="45.67114" lon="6.26662">
        <ele>-6.263</ele>
        <time>2020-07-13T09:57:48Z</time>
      </trkpt>
      <trkpt lat="45.6712" lon="6.26663">
        <ele>-6.263</ele>
        <time>2020-07-13T09:57:54Z</time>
      </trkpt>
      <trkpt lat="45.67128" lon="6.26663">
        <ele>-6.263</ele>
        <time>2020-07-13T09:58:04Z</time>
      </trkpt>
      <trkpt lat="45.67136" lon="6.26653">
        <ele>-6.263</ele>
        <time>2020-07-13T09:58:14Z</time>
      </trkpt>
      <trkpt lat="45.67146" lon="6.26653">
        <ele>-6.263</ele>
        <time>2020-07-13T09:58:24Z</time>
      </trkpt>
      <trkpt lat="45.67149" lon="6.26655">
        <ele>-6.263</ele>
        <time>2020-07-13T09:58:33Z</time>
      </trkpt>
      <trkpt lat="45.67154" lon="6.26648">
        <ele>-6.263</ele>
        <time>2020-07-13T09:58:39Z</time>
      </trkpt>
      <trkpt lat="45.67157" lon="6.26648">
        <ele>-6.263</ele>
        <time>2020-07-13T09:58:49Z</time>
      </trkpt>
      <trkpt lat="45.67161" lon="6.26646">
        <ele>-6.263</ele>
        <time>2020-07-13T09:58:59Z</time>
      </trkpt>
      <trkpt lat="45.67166" lon="6.26639">
        <ele>-6.263</ele>
        <time>2020-07-13T09:59:09Z</time>
      </trkpt>
      <trkpt lat="45.6717" lon="6.2663">
        <ele>-6.263</ele>
        <time>2020-07-13T09:59:24Z</time>
      </trkpt>
      <trkpt lat="45.67178" lon="6.26626">
        <ele>-6.263</ele>
        <time>2020-07-13T09:59:34Z</time>
      </trkpt>
      <trkpt lat="45.67185" lon="6.26621">
        <ele>-6.263</ele>
        <time>2020-07-13T09:59:44Z</time>
      </trkpt>
      <trkpt lat="45.6719" lon="6.2662">
        <ele>-6.263</ele>
        <time>2020-07-13T09:59:54Z</time>
      </trkpt>
      <trkpt lat="45.67194" lon="6.26616">
        <ele>-6.263</ele>
        <time>2020-07-13T10:00:09Z</time>
      </trkpt>
      <trkpt lat="45.672" lon="6.26617">
        <ele>-6.263</ele>
        <time>2020-07-13T10:00:19Z</time>
      </trkpt>
      <trkpt lat="45.67195" lon="6.2661">
        <ele>-6.263</ele>
        <time>2020-07-13T10:00:29Z</time>
      </trkpt>
      <trkpt lat="45.67195" lon="6.26604">
        <ele>-6.263</ele>
        <time>2020-07-13T10:00:44Z</time>
      </trkpt>
      <trkpt lat="45.67195" lon="6.26598">
        <ele>-6.263</ele>
        <time>2020-07-13T10:00:54Z</time>
      </trkpt>
      <trkpt lat="45.67193" lon="6.26597">
        <ele>-6.263</ele>
        <time>2020-07-13T10:01:04Z</time>
      </trkpt>
      <trkpt lat="45.67188" lon="6.2659">
        <ele>-6.263</ele>
        <time>2020-07-13T10:01:39Z</time>
      </trkpt>
      <trkpt lat="45.67184" lon="6.26584">
        <ele>-6.263</ele>
        <time>2020-07-13T10:01:49Z</time>
      </trkpt>
      <trkpt lat="45.67179" lon="6.26576">
        <ele>-6.263</ele>
        <time>2020-07-13T10:01:59Z</time>
      </trkpt>
      <trkpt lat="45.67175" lon="6.2657">
        <ele>-6.263</ele>
        <time>2020-07-13T10:02:14Z</time>
      </trkpt>
      <trkpt lat="45.67172" lon="6.26567">
        <ele>-6.263</ele>
        <time>2020-07-13T10:02:24Z</time>
      </trkpt>
      <trkpt lat="45.67169" lon="6.26563">
        <ele>-6.263</ele>
        <time>2020-07-13T10:02:38Z</time>
      </trkpt>
      <trkpt lat="45.67168" lon="6.26557">
        <ele>-6.263</ele>
        <time>2020-07-13T10:02:48Z</time>
      </trkpt>
      <trkpt lat="45.67163" lon="6.26553">
        <ele>-6.263</ele>
        <time>2020-07-13T10:02:59Z</time>
      </trkpt>
      <trkpt lat="45.67161" lon="6.26545">
        <ele>-6.263</ele>
        <time>2020-07-13T10:03:09Z</time>
      </trkpt>
      <trkpt lat="45.67161" lon="6.26538">
        <ele>-6.263</ele>
        <time>2020-07-13T10:03:19Z</time>
      </trkpt>
      <trkpt lat="45.67157" lon="6.2653">
        <ele>-6.263</ele>
        <time>2020-07-13T10:03:29Z</time>
      </trkpt>
      <trkpt lat="45.67156" lon="6.26523">
        <ele>-6.263</ele>
        <time>2020-07-13T10:03:38Z</time>
      </trkpt>
      <trkpt lat="45.67154" lon="6.26517">
        <ele>-6.263</ele>
        <time>2020-07-13T10:03:44Z</time>
      </trkpt>
      <trkpt lat="45.67151" lon="6.26512">
        <ele>-6.263</ele>
        <time>2020-07-13T10:03:54Z</time>
      </trkpt>
      <trkpt lat="45.67152" lon="6.26498">
        <ele>-6.263</ele>
        <time>2020-07-13T10:04:04Z</time>
      </trkpt>
      <trkpt lat="45.67147" lon="6.26486">
        <ele>-6.263</ele>
        <time>2020-07-13T10:04:14Z</time>
      </trkpt>
      <trkpt lat="45.67146" lon="6.26479">
        <ele>-6.263</ele>
        <time>2020-07-13T10:04:19Z</time>
      </trkpt>
      <trkpt lat="45.67141" lon="6.26466">
        <ele>-6.263</ele>
        <time>2020-07-13T10:04:29Z</time>
      </trkpt>
      <trkpt lat="45.67139" lon="6.26449">
        <ele>-6.263</ele>
        <time>2020-07-13T10:04:39Z</time>
      </trkpt>
      <trkpt lat="45.67138" lon="6.26434">
        <ele>-6.263</ele>
        <time>2020-07-13T10:04:49Z</time>
      </trkpt>
      <trkpt lat="45.67137" lon="6.2642">
        <ele>-6.263</ele>
        <time>2020-07-13T10:04:59Z</time>
      </trkpt>
      <trkpt lat="45.67136" lon="6.26411">
        <ele>-6.263</ele>
        <time>2020-07-13T10:05:04Z</time>
      </trkpt>
      <trkpt lat="45.67135" lon="6.26399">
        <ele>-6.263</ele>
        <time>2020-07-13T10:05:14Z</time>
      </trkpt>
      <trkpt lat="45.67137" lon="6.26384">
        <ele>-6.263</ele>
        <time>2020-07-13T10:05:24Z</time>
      </trkpt>
      <trkpt lat="45.67137" lon="6.26368">
        <ele>-6.263</ele>
        <time>2020-07-13T10:05:34Z</time>
      </trkpt>
      <trkpt lat="45.67138" lon="6.26356">
        <ele>-6.263</ele>
        <time>2020-07-13T10:05:43Z</time>
      </trkpt>
      <trkpt lat="45.6714" lon="6.26347">
        <ele>-6.263</ele>
        <time>2020-07-13T10:05:49Z</time>
      </trkpt>
      <trkpt lat="45.67141" lon="6.26338">
        <ele>-6.263</ele>
        <time>2020-07-13T10:05:59Z</time>
      </trkpt>
      <trkpt lat="45.67139" lon="6.2633">
        <ele>-6.263</ele>
        <time>2020-07-13T10:06:09Z</time>
      </trkpt>
      <trkpt lat="45.6714" lon="6.26317">
        <ele>-6.263</ele>
        <time>2020-07-13T10:06:19Z</time>
      </trkpt>
      <trkpt lat="45.6714" lon="6.26306">
        <ele>-6.263</ele>
        <time>2020-07-13T10:06:24Z</time>
      </trkpt>
      <trkpt lat="45.67138" lon="6.26286">
        <ele>-6.263</ele>
        <time>2020-07-13T10:06:34Z</time>
      </trkpt>
      <trkpt lat="45.67138" lon="6.26265">
        <ele>-6.263</ele>
        <time>2020-07-13T10:06:44Z</time>
      </trkpt>
      <trkpt lat="45.67135" lon="6.26249">
        <ele>-6.263</ele>
        <time>2020-07-13T10:06:54Z</time>
      </trkpt>
      <trkpt lat="45.67133" lon="6.26233">
        <ele>-6.263</ele>
        <time>2020-07-13T10:07:04Z</time>
      </trkpt>
      <trkpt lat="45.67132" lon="6.26225">
        <ele>-6.263</ele>
        <time>2020-07-13T10:07:09Z</time>
      </trkpt>
      <trkpt lat="45.67127" lon="6.26209">
        <ele>-6.263</ele>
        <time>2020-07-13T10:07:19Z</time>
      </trkpt>
      <trkpt lat="45.67125" lon="6.26198">
        <ele>-6.263</ele>
        <time>2020-07-13T10:07:29Z</time>
      </trkpt>
      <trkpt lat="45.67117" lon="6.26179">
        <ele>-6.263</ele>
        <time>2020-07-13T10:07:39Z</time>
      </trkpt>
      <trkpt lat="45.67112" lon="6.26166">
        <ele>-6.263</ele>
        <time>2020-07-13T10:07:49Z</time>
      </trkpt>
      <trkpt lat="45.67109" lon="6.26157">
        <ele>-6.263</ele>
        <time>2020-07-13T10:07:54Z</time>
      </trkpt>
      <trkpt lat="45.67098" lon="6.26141">
        <ele>-6.263</ele>
        <time>2020-07-13T10:08:04Z</time>
      </trkpt>
      <trkpt lat="45.6709" lon="6.26131">
        <ele>-6.263</ele>
        <time>2020-07-13T10:08:14Z</time>
      </trkpt>
      <trkpt lat="45.67085" lon="6.26129">
        <ele>-6.263</ele>
        <time>2020-07-13T10:08:24Z</time>
      </trkpt>
      <trkpt lat="45.67079" lon="6.26127">
        <ele>-6.263</ele>
        <time>2020-07-13T10:08:34Z</time>
      </trkpt>
      <trkpt lat="45.67073" lon="6.26122">
        <ele>-6.263</ele>
        <time>2020-07-13T10:08:43Z</time>
      </trkpt>
      <trkpt lat="45.67069" lon="6.26115">
        <ele>-6.263</ele>
        <time>2020-07-13T10:08:53Z</time>
      </trkpt>
      <trkpt lat="45.67065" lon="6.26112">
        <ele>-6.263</ele>
        <time>2020-07-13T10:08:59Z</time>
      </trkpt>
      <trkpt lat="45.67057" lon="6.261">
        <ele>-6.263</ele>
        <time>2020-07-13T10:09:09Z</time>
      </trkpt>
      <trkpt lat="45.67049" lon="6.26084">
        <ele>-6.263</ele>
        <time>2020-07-13T10:09:19Z</time>
      </trkpt>
      <trkpt lat="45.67043" lon="6.26076">
        <ele>-6.263</ele>
        <time>2020-07-13T10:09:24Z</time>
      </trkpt>
      <trkpt lat="45.6703" lon="6.26061">
        <ele>-6.263</ele>
        <time>2020-07-13T10:09:34Z</time>
      </trkpt>
      <trkpt lat="45.6702" lon="6.26056">
        <ele>-6.263</ele>
        <time>2020-07-13T10:09:44Z</time>
      </trkpt>
      <trkpt lat="45.67008" lon="6.26052">
        <ele>-6.263</ele>
        <time>2020-07-13T10:09:54Z</time>
      </trkpt>
      <trkpt lat="45.66996" lon="6.26043">
        <ele>-6.263</ele>
        <time>2020-07-13T10:10:04Z</time>
      </trkpt>
      <trkpt lat="45.66992" lon="6.26042">
        <ele>-6.263</ele>
        <time>2020-07-13T10:10:09Z</time>
      </trkpt>
      <trkpt lat="45.66983" lon="6.26038">
        <ele>-6.263</ele>
        <time>2020-07-13T10:10:19Z</time>
      </trkpt>
      <trkpt lat="45.66971" lon="6.2603">
        <ele>-6.263</ele>
        <time>2020-07-13T10:10:29Z</time>
      </trkpt>
      <trkpt lat="45.6696" lon="6.26023">
        <ele>-6.263</ele>
        <time>2020-07-13T10:10:39Z</time>
      </trkpt>
      <trkpt lat="45.66936" lon="6.2601">
        <ele>-6.263</ele>
        <time>2020-07-13T10:10:49Z</time>
      </trkpt>
      <trkpt lat="45.66928" lon="6.26016">
        <ele>-6.263</ele>
        <time>2020-07-13T10:10:54Z</time>
      </trkpt>
      <trkpt lat="45.66919" lon="6.26028">
        <ele>-6.263</ele>
        <time>2020-07-13T10:11:04Z</time>
      </trkpt>
      <trkpt lat="45.66912" lon="6.26029">
        <ele>-6.263</ele>
        <time>2020-07-13T10:11:14Z</time>
      </trkpt>
      <trkpt lat="45.66906" lon="6.26017">
        <ele>-6.263</ele>
        <time>2020-07-13T10:11:24Z</time>
      </trkpt>
      <trkpt lat="45.66901" lon="6.26008">
        <ele>-6.263</ele>
        <time>2020-07-13T10:11:33Z</time>
      </trkpt>
      <trkpt lat="45.66895" lon="6.26004">
        <ele>-6.263</ele>
        <time>2020-07-13T10:11:39Z</time>
      </trkpt>
      <trkpt lat="45.66885" lon="6.25996">
        <ele>-6.263</ele>
        <time>2020-07-13T10:11:49Z</time>
      </trkpt>
      <trkpt lat="45.66869" lon="6.25995">
        <ele>-6.263</ele>
        <time>2020-07-13T10:11:59Z</time>
      </trkpt>
      <trkpt lat="45.66858" lon="6.25995">
        <ele>-6.263</ele>
        <time>2020-07-13T10:12:09Z</time>
      </trkpt>
      <trkpt lat="45.66851" lon="6.25992">
        <ele>-6.263</ele>
        <time>2020-07-13T10:12:18Z</time>
      </trkpt>
      <trkpt lat="45.66843" lon="6.25991">
        <ele>-6.263</ele>
        <time>2020-07-13T10:12:24Z</time>
      </trkpt>
      <trkpt lat="45.66832" lon="6.25981">
        <ele>-6.263</ele>
        <time>2020-07-13T10:12:34Z</time>
      </trkpt>
      <trkpt lat="45.66818" lon="6.25977">
        <ele>-6.263</ele>
        <time>2020-07-13T10:12:44Z</time>
      </trkpt>
      <trkpt lat="45.66814" lon="6.25974">
        <ele>-6.263</ele>
        <time>2020-07-13T10:12:54Z</time>
      </trkpt>
      <trkpt lat="45.66814" lon="6.25974">
        <ele>-6.263</ele>
        <time>2020-07-13T10:13:23Z</time>
      </trkpt>
      <trkpt lat="45.66815" lon="6.25979">
        <ele>-6.263</ele>
        <time>2020-07-13T10:14:04Z</time>
      </trkpt>
      <trkpt lat="45.6681" lon="6.25977">
        <ele>-6.263</ele>
        <time>2020-07-13T10:14:18Z</time>
      </trkpt>
      <trkpt lat="45.66803" lon="6.25977">
        <ele>-6.263</ele>
        <time>2020-07-13T10:14:28Z</time>
      </trkpt>
      <trkpt lat="45.66797" lon="6.25978">
        <ele>-6.263</ele>
        <time>2020-07-13T10:14:33Z</time>
      </trkpt>
      <trkpt lat="45.66791" lon="6.25978">
        <ele>-6.263</ele>
        <time>2020-07-13T10:14:39Z</time>
      </trkpt>
      <trkpt lat="45.66781" lon="6.25973">
        <ele>-6.263</ele>
        <time>2020-07-13T10:14:49Z</time>
      </trkpt>
      <trkpt lat="45.6677" lon="6.25967">
        <ele>-6.263</ele>
        <time>2020-07-13T10:14:59Z</time>
      </trkpt>
      <trkpt lat="45.66758" lon="6.25958">
        <ele>-6.263</ele>
        <time>2020-07-13T10:15:09Z</time>
      </trkpt>
      <trkpt lat="45.66754" lon="6.25956">
        <ele>-6.263</ele>
        <time>2020-07-13T10:15:14Z</time>
      </trkpt>
      <trkpt lat="45.66744" lon="6.25951">
        <ele>-6.263</ele>
        <time>2020-07-13T10:15:24Z</time>
      </trkpt>
      <trkpt lat="45.66734" lon="6.25945">
        <ele>-6.263</ele>
        <time>2020-07-13T10:15:34Z</time>
      </trkpt>
      <trkpt lat="45.66726" lon="6.25936">
        <ele>-6.263</ele>
        <time>2020-07-13T10:15:44Z</time>
      </trkpt>
      <trkpt lat="45.66726" lon="6.25929">
        <ele>-6.263</ele>
        <time>2020-07-13T10:15:49Z</time>
      </trkpt>
      <trkpt lat="45.66717" lon="6.2592">
        <ele>-6.263</ele>
        <time>2020-07-13T10:15:59Z</time>
      </trkpt>
      <trkpt lat="45.6671" lon="6.25911">
        <ele>-6.263</ele>
        <time>2020-07-13T10:16:09Z</time>
      </trkpt>
      <trkpt lat="45.66698" lon="6.25903">
        <ele>-6.263</ele>
        <time>2020-07-13T10:16:19Z</time>
      </trkpt>
      <trkpt lat="45.66686" lon="6.25891">
        <ele>-6.263</ele>
        <time>2020-07-13T10:16:29Z</time>
      </trkpt>
      <trkpt lat="45.66682" lon="6.25884">
        <ele>-6.263</ele>
        <time>2020-07-13T10:16:34Z</time>
      </trkpt>
      <trkpt lat="45.66675" lon="6.25872">
        <ele>-6.263</ele>
        <time>2020-07-13T10:16:44Z</time>
      </trkpt>
      <trkpt lat="45.66668" lon="6.25859">
        <ele>-6.263</ele>
        <time>2020-07-13T10:16:54Z</time>
      </trkpt>
      <trkpt lat="45.66663" lon="6.25842">
        <ele>-6.263</ele>
        <time>2020-07-13T10:17:04Z</time>
      </trkpt>
      <trkpt lat="45.66657" lon="6.25826">
        <ele>-6.263</ele>
        <time>2020-07-13T10:17:14Z</time>
      </trkpt>
      <trkpt lat="45.66653" lon="6.25818">
        <ele>-6.263</ele>
        <time>2020-07-13T10:17:19Z</time>
      </trkpt>
      <trkpt lat="45.66643" lon="6.25806">
        <ele>-6.263</ele>
        <time>2020-07-13T10:17:29Z</time>
      </trkpt>
      <trkpt lat="45.66636" lon="6.25797">
        <ele>-6.263</ele>
        <time>2020-07-13T10:17:39Z</time>
      </trkpt>
      <trkpt lat="45.66626" lon="6.25796">
        <ele>-6.263</ele>
        <time>2020-07-13T10:17:49Z</time>
      </trkpt>
      <trkpt lat="45.66613" lon="6.25785">
        <ele>-6.263</ele>
        <time>2020-07-13T10:17:59Z</time>
      </trkpt>
      <trkpt lat="45.66607" lon="6.25778">
        <ele>-6.263</ele>
        <time>2020-07-13T10:18:04Z</time>
      </trkpt>
      <trkpt lat="45.66594" lon="6.2577">
        <ele>-6.263</ele>
        <time>2020-07-13T10:18:14Z</time>
      </trkpt>
      <trkpt lat="45.66584" lon="6.25765">
        <ele>-6.263</ele>
        <time>2020-07-13T10:18:24Z</time>
      </trkpt>
      <trkpt lat="45.66574" lon="6.2576">
        <ele>-6.263</ele>
        <time>2020-07-13T10:18:34Z</time>
      </trkpt>
      <trkpt lat="45.66564" lon="6.25751">
        <ele>-6.263</ele>
        <time>2020-07-13T10:18:44Z</time>
      </trkpt>
      <trkpt lat="45.66559" lon="6.25746">
        <ele>-6.263</ele>
        <time>2020-07-13T10:18:49Z</time>
      </trkpt>
      <trkpt lat="45.66546" lon="6.25739">
        <ele>-6.263</ele>
        <time>2020-07-13T10:18:59Z</time>
      </trkpt>
      <trkpt lat="45.66534" lon="6.25735">
        <ele>-6.263</ele>
        <time>2020-07-13T10:19:09Z</time>
      </trkpt>
      <trkpt lat="45.66523" lon="6.25732">
        <ele>-6.263</ele>
        <time>2020-07-13T10:19:19Z</time>
      </trkpt>
      <trkpt lat="45.66514" lon="6.2573">
        <ele>-6.263</ele>
        <time>2020-07-13T10:19:28Z</time>
      </trkpt>
      <trkpt lat="45.66507" lon="6.25727">
        <ele>-6.263</ele>
        <time>2020-07-13T10:19:34Z</time>
      </trkpt>
      <trkpt lat="45.66495" lon="6.25718">
        <ele>-6.263</ele>
        <time>2020-07-13T10:19:44Z</time>
      </trkpt>
      <trkpt lat="45.66489" lon="6.25709">
        <ele>-6.263</ele>
        <time>2020-07-13T10:19:54Z</time>
      </trkpt>
      <trkpt lat="45.66481" lon="6.25694">
        <ele>-6.263</ele>
        <time>2020-07-13T10:20:04Z</time>
      </trkpt>
      <trkpt lat="45.66479" lon="6.25685">
        <ele>-6.263</ele>
        <time>2020-07-13T10:20:09Z</time>
      </trkpt>
      <trkpt lat="45.66476" lon="6.25672">
        <ele>-6.263</ele>
        <time>2020-07-13T10:20:19Z</time>
      </trkpt>
      <trkpt lat="45.66468" lon="6.25659">
        <ele>-6.263</ele>
        <time>2020-07-13T10:20:29Z</time>
      </trkpt>
      <trkpt lat="45.66458" lon="6.25648">
        <ele>-6.263</ele>
        <time>2020-07-13T10:20:39Z</time>
      </trkpt>
      <trkpt lat="45.66448" lon="6.25636">
        <ele>-6.263</ele>
        <time>2020-07-13T10:20:49Z</time>
      </trkpt>
      <trkpt lat="45.66444" lon="6.25631">
        <ele>-6.263</ele>
        <time>2020-07-13T10:20:54Z</time>
      </trkpt>
      <trkpt lat="45.66435" lon="6.25617">
        <ele>-6.263</ele>
        <time>2020-07-13T10:21:04Z</time>
      </trkpt>
      <trkpt lat="45.66425" lon="6.25606">
        <ele>-6.263</ele>
        <time>2020-07-13T10:21:14Z</time>
      </trkpt>
      <trkpt lat="45.66418" lon="6.25593">
        <ele>-6.263</ele>
        <time>2020-07-13T10:21:24Z</time>
      </trkpt>
      <trkpt lat="45.66407" lon="6.25586">
        <ele>-6.263</ele>
        <time>2020-07-13T10:21:34Z</time>
      </trkpt>
      <trkpt lat="45.66402" lon="6.25583">
        <ele>-6.263</ele>
        <time>2020-07-13T10:21:39Z</time>
      </trkpt>
      <trkpt lat="45.66391" lon="6.25575">
        <ele>-6.263</ele>
        <time>2020-07-13T10:21:49Z</time>
      </trkpt>
      <trkpt lat="45.66383" lon="6.25568">
        <ele>-6.263</ele>
        <time>2020-07-13T10:21:59Z</time>
      </trkpt>
      <trkpt lat="45.66372" lon="6.25552">
        <ele>-6.263</ele>
        <time>2020-07-13T10:22:09Z</time>
      </trkpt>
      <trkpt lat="45.66365" lon="6.25539">
        <ele>-6.263</ele>
        <time>2020-07-13T10:22:19Z</time>
      </trkpt>
      <trkpt lat="45.6636" lon="6.25533">
        <ele>-6.263</ele>
        <time>2020-07-13T10:22:24Z</time>
      </trkpt>
      <trkpt lat="45.6635" lon="6.25517">
        <ele>-6.263</ele>
        <time>2020-07-13T10:22:34Z</time>
      </trkpt>
      <trkpt lat="45.66341" lon="6.25507">
        <ele>-6.263</ele>
        <time>2020-07-13T10:22:44Z</time>
      </trkpt>
      <trkpt lat="45.66331" lon="6.25499">
        <ele>-6.263</ele>
        <time>2020-07-13T10:22:54Z</time>
      </trkpt>
      <trkpt lat="45.66323" lon="6.25489">
        <ele>-6.263</ele>
        <time>2020-07-13T10:23:03Z</time>
      </trkpt>
      <trkpt lat="45.66319" lon="6.25482">
        <ele>-6.263</ele>
        <time>2020-07-13T10:23:08Z</time>
      </trkpt>
      <trkpt lat="45.66314" lon="6.25476">
        <ele>-6.263</ele>
        <time>2020-07-13T10:23:13Z</time>
      </trkpt>
      <trkpt lat="45.66307" lon="6.25468">
        <ele>-6.263</ele>
        <time>2020-07-13T10:23:19Z</time>
      </trkpt>
      <trkpt lat="45.66296" lon="6.25458">
        <ele>-6.263</ele>
        <time>2020-07-13T10:23:29Z</time>
      </trkpt>
      <trkpt lat="45.66288" lon="6.25447">
        <ele>-6.263</ele>
        <time>2020-07-13T10:23:39Z</time>
      </trkpt>
      <trkpt lat="45.66282" lon="6.25443">
        <ele>-6.263</ele>
        <time>2020-07-13T10:23:44Z</time>
      </trkpt>
      <trkpt lat="45.6627" lon="6.25431">
        <ele>-6.263</ele>
        <time>2020-07-13T10:23:54Z</time>
      </trkpt>
      <trkpt lat="45.66261" lon="6.2542">
        <ele>-6.263</ele>
        <time>2020-07-13T10:24:04Z</time>
      </trkpt>
      <trkpt lat="45.66252" lon="6.25409">
        <ele>-6.263</ele>
        <time>2020-07-13T10:24:14Z</time>
      </trkpt>
      <trkpt lat="45.66246" lon="6.25398">
        <ele>-6.263</ele>
        <time>2020-07-13T10:24:24Z</time>
      </trkpt>
      <trkpt lat="45.6624" lon="6.25394">
        <ele>-6.263</ele>
        <time>2020-07-13T10:24:29Z</time>
      </trkpt>
      <trkpt lat="45.66229" lon="6.25386">
        <ele>-6.263</ele>
        <time>2020-07-13T10:24:39Z</time>
      </trkpt>
      <trkpt lat="45.66215" lon="6.25377">
        <ele>-6.263</ele>
        <time>2020-07-13T10:24:49Z</time>
      </trkpt>
      <trkpt lat="45.66204" lon="6.25363">
        <ele>-6.263</ele>
        <time>2020-07-13T10:24:59Z</time>
      </trkpt>
      <trkpt lat="45.66196" lon="6.25349">
        <ele>-6.263</ele>
        <time>2020-07-13T10:25:09Z</time>
      </trkpt>
      <trkpt lat="45.6619" lon="6.25352">
        <ele>-6.263</ele>
        <time>2020-07-13T10:25:14Z</time>
      </trkpt>
      <trkpt lat="45.66187" lon="6.25363">
        <ele>-6.263</ele>
        <time>2020-07-13T10:25:23Z</time>
      </trkpt>
      <trkpt lat="45.66192" lon="6.25371">
        <ele>-6.263</ele>
        <time>2020-07-13T10:25:28Z</time>
      </trkpt>
      <trkpt lat="45.66199" lon="6.25378">
        <ele>-6.263</ele>
        <time>2020-07-13T10:25:34Z</time>
      </trkpt>
      <trkpt lat="45.66207" lon="6.25385">
        <ele>-6.263</ele>
        <time>2020-07-13T10:25:44Z</time>
      </trkpt>
      <trkpt lat="45.66213" lon="6.25394">
        <ele>-6.263</ele>
        <time>2020-07-13T10:25:54Z</time>
      </trkpt>
      <trkpt lat="45.66216" lon="6.25401">
        <ele>-6.263</ele>
        <time>2020-07-13T10:25:59Z</time>
      </trkpt>
      <trkpt lat="45.66225" lon="6.25416">
        <ele>-6.263</ele>
        <time>2020-07-13T10:26:09Z</time>
      </trkpt>
      <trkpt lat="45.66236" lon="6.2543">
        <ele>-6.263</ele>
        <time>2020-07-13T10:26:19Z</time>
      </trkpt>
      <trkpt lat="45.66241" lon="6.25442">
        <ele>-6.263</ele>
        <time>2020-07-13T10:26:29Z</time>
      </trkpt>
      <trkpt lat="45.66248" lon="6.25454">
        <ele>-6.263</ele>
        <time>2020-07-13T10:26:39Z</time>
      </trkpt>
      <trkpt lat="45.66254" lon="6.2546">
        <ele>-6.263</ele>
        <time>2020-07-13T10:26:44Z</time>
      </trkpt>
      <trkpt lat="45.6626" lon="6.25475">
        <ele>-6.263</ele>
        <time>2020-07-13T10:26:54Z</time>
      </trkpt>
      <trkpt lat="45.66253" lon="6.25479">
        <ele>-6.263</ele>
        <time>2020-07-13T10:27:04Z</time>
      </trkpt>
      <trkpt lat="45.66243" lon="6.25471">
        <ele>-6.263</ele>
        <time>2020-07-13T10:27:14Z</time>
      </trkpt>
      <trkpt lat="45.66232" lon="6.25463">
        <ele>-6.263</ele>
        <time>2020-07-13T10:27:24Z</time>
      </trkpt>
      <trkpt lat="45.66227" lon="6.25457">
        <ele>-6.263</ele>
        <time>2020-07-13T10:27:29Z</time>
      </trkpt>
      <trkpt lat="45.66217" lon="6.25445">
        <ele>-6.263</ele>
        <time>2020-07-13T10:27:39Z</time>
      </trkpt>
      <trkpt lat="45.66208" lon="6.25435">
        <ele>-6.263</ele>
        <time>2020-07-13T10:27:49Z</time>
      </trkpt>
      <trkpt lat="45.66197" lon="6.25427">
        <ele>-6.263</ele>
        <time>2020-07-13T10:27:59Z</time>
      </trkpt>
      <trkpt lat="45.66188" lon="6.25415">
        <ele>-6.263</ele>
        <time>2020-07-13T10:28:09Z</time>
      </trkpt>
      <trkpt lat="45.66178" lon="6.25408">
        <ele>-6.263</ele>
        <time>2020-07-13T10:28:14Z</time>
      </trkpt>
      <trkpt lat="45.66166" lon="6.25396">
        <ele>-6.263</ele>
        <time>2020-07-13T10:28:24Z</time>
      </trkpt>
      <trkpt lat="45.66157" lon="6.25392">
        <ele>-6.263</ele>
        <time>2020-07-13T10:28:34Z</time>
      </trkpt>
      <trkpt lat="45.66145" lon="6.25391">
        <ele>-6.263</ele>
        <time>2020-07-13T10:28:44Z</time>
      </trkpt>
      <trkpt lat="45.66133" lon="6.2539">
        <ele>-6.263</ele>
        <time>2020-07-13T10:28:53Z</time>
      </trkpt>
      <trkpt lat="45.66127" lon="6.25387">
        <ele>-6.263</ele>
        <time>2020-07-13T10:28:58Z</time>
      </trkpt>
      <trkpt lat="45.66124" lon="6.2538">
        <ele>-6.263</ele>
        <time>2020-07-13T10:29:03Z</time>
      </trkpt>
      <trkpt lat="45.66122" lon="6.25369">
        <ele>-6.263</ele>
        <time>2020-07-13T10:29:09Z</time>
      </trkpt>
      <trkpt lat="45.66119" lon="6.25353">
        <ele>-6.263</ele>
        <time>2020-07-13T10:29:19Z</time>
      </trkpt>
      <trkpt lat="45.66116" lon="6.2535">
        <ele>-6.263</ele>
        <time>2020-07-13T10:29:29Z</time>
      </trkpt>
      <trkpt lat="45.66115" lon="6.25349">
        <ele>-6.263</ele>
        <time>2020-07-13T10:29:38Z</time>
      </trkpt>
      <trkpt lat="45.66118" lon="6.25352">
        <ele>-6.263</ele>
        <time>2020-07-13T10:29:44Z</time>
      </trkpt>
      <trkpt lat="45.66117" lon="6.25348">
        <ele>-6.263</ele>
        <time>2020-07-13T10:29:54Z</time>
      </trkpt>
      <trkpt lat="45.66118" lon="6.25331">
        <ele>-6.263</ele>
        <time>2020-07-13T10:30:04Z</time>
      </trkpt>
      <trkpt lat="45.66124" lon="6.25314">
        <ele>-6.263</ele>
        <time>2020-07-13T10:30:14Z</time>
      </trkpt>
      <trkpt lat="45.66128" lon="6.25307">
        <ele>-6.263</ele>
        <time>2020-07-13T10:30:19Z</time>
      </trkpt>
      <trkpt lat="45.66138" lon="6.25296">
        <ele>-6.263</ele>
        <time>2020-07-13T10:30:29Z</time>
      </trkpt>
      <trkpt lat="45.66146" lon="6.25286">
        <ele>-6.263</ele>
        <time>2020-07-13T10:30:39Z</time>
      </trkpt>
      <trkpt lat="45.66147" lon="6.25277">
        <ele>-6.263</ele>
        <time>2020-07-13T10:30:49Z</time>
      </trkpt>
      <trkpt lat="45.66133" lon="6.25273">
        <ele>-6.263</ele>
        <time>2020-07-13T10:30:59Z</time>
      </trkpt>
      <trkpt lat="45.66127" lon="6.25274">
        <ele>-6.263</ele>
        <time>2020-07-13T10:31:04Z</time>
      </trkpt>
      <trkpt lat="45.66115" lon="6.25267">
        <ele>-6.263</ele>
        <time>2020-07-13T10:31:14Z</time>
      </trkpt>
      <trkpt lat="45.66103" lon="6.25268">
        <ele>-6.263</ele>
        <time>2020-07-13T10:31:24Z</time>
      </trkpt>
      <trkpt lat="45.66094" lon="6.25272">
        <ele>-6.263</ele>
        <time>2020-07-13T10:31:34Z</time>
      </trkpt>
      <trkpt lat="45.66084" lon="6.25287">
        <ele>-6.263</ele>
        <time>2020-07-13T10:31:44Z</time>
      </trkpt>
      <trkpt lat="45.66079" lon="6.25293">
        <ele>-6.263</ele>
        <time>2020-07-13T10:31:49Z</time>
      </trkpt>
      <trkpt lat="45.66071" lon="6.25306">
        <ele>-6.263</ele>
        <time>2020-07-13T10:31:59Z</time>
      </trkpt>
      <trkpt lat="45.66061" lon="6.25318">
        <ele>-6.263</ele>
        <time>2020-07-13T10:32:09Z</time>
      </trkpt>
      <trkpt lat="45.66052" lon="6.2532">
        <ele>-6.263</ele>
        <time>2020-07-13T10:32:19Z</time>
      </trkpt>
      <trkpt lat="45.66044" lon="6.25318">
        <ele>-6.263</ele>
        <time>2020-07-13T10:32:28Z</time>
      </trkpt>
      <trkpt lat="45.6604" lon="6.25316">
        <ele>-6.263</ele>
        <time>2020-07-13T10:32:33Z</time>
      </trkpt>
      <trkpt lat="45.66031" lon="6.25316">
        <ele>-6.263</ele>
        <time>2020-07-13T10:32:44Z</time>
      </trkpt>
      <trkpt lat="45.66018" lon="6.25317">
        <ele>-6.263</ele>
        <time>2020-07-13T10:32:54Z</time>
      </trkpt>
      <trkpt lat="45.66005" lon="6.25318">
        <ele>-6.263</ele>
        <time>2020-07-13T10:33:04Z</time>
      </trkpt>
      <trkpt lat="45.65997" lon="6.25317">
        <ele>-6.263</ele>
        <time>2020-07-13T10:33:09Z</time>
      </trkpt>
      <trkpt lat="45.65983" lon="6.25317">
        <ele>-6.263</ele>
        <time>2020-07-13T10:33:19Z</time>
      </trkpt>
      <trkpt lat="45.65973" lon="6.25317">
        <ele>-6.263</ele>
        <time>2020-07-13T10:33:29Z</time>
      </trkpt>
      <trkpt lat="45.65961" lon="6.25313">
        <ele>-6.263</ele>
        <time>2020-07-13T10:33:39Z</time>
      </trkpt>
      <trkpt lat="45.65945" lon="6.2531">
        <ele>-6.263</ele>
        <time>2020-07-13T10:33:49Z</time>
      </trkpt>
      <trkpt lat="45.65937" lon="6.25309">
        <ele>-6.263</ele>
        <time>2020-07-13T10:33:54Z</time>
      </trkpt>
      <trkpt lat="45.65929" lon="6.25312">
        <ele>-6.263</ele>
        <time>2020-07-13T10:34:04Z</time>
      </trkpt>
      <trkpt lat="45.65918" lon="6.25314">
        <ele>-6.263</ele>
        <time>2020-07-13T10:34:14Z</time>
      </trkpt>
      <trkpt lat="45.65907" lon="6.2532">
        <ele>-6.263</ele>
        <time>2020-07-13T10:34:24Z</time>
      </trkpt>
      <trkpt lat="45.65897" lon="6.25323">
        <ele>-6.263</ele>
        <time>2020-07-13T10:34:34Z</time>
      </trkpt>
      <trkpt lat="45.6589" lon="6.25325">
        <ele>-6.263</ele>
        <time>2020-07-13T10:34:39Z</time>
      </trkpt>
      <trkpt lat="45.65879" lon="6.25329">
        <ele>-6.263</ele>
        <time>2020-07-13T10:34:49Z</time>
      </trkpt>
      <trkpt lat="45.65862" lon="6.2533">
        <ele>-6.263</ele>
        <time>2020-07-13T10:34:59Z</time>
      </trkpt>
      <trkpt lat="45.65844" lon="6.25331">
        <ele>-6.263</ele>
        <time>2020-07-13T10:35:09Z</time>
      </trkpt>
      <trkpt lat="45.6583" lon="6.25335">
        <ele>-6.263</ele>
        <time>2020-07-13T10:35:18Z</time>
      </trkpt>
      <trkpt lat="45.65825" lon="6.25336">
        <ele>-6.263</ele>
        <time>2020-07-13T10:35:24Z</time>
      </trkpt>
      <trkpt lat="45.65814" lon="6.25334">
        <ele>-6.263</ele>
        <time>2020-07-13T10:35:34Z</time>
      </trkpt>
      <trkpt lat="45.65796" lon="6.25331">
        <ele>-6.263</ele>
        <time>2020-07-13T10:35:44Z</time>
      </trkpt>
      <trkpt lat="45.65783" lon="6.25323">
        <ele>-6.263</ele>
        <time>2020-07-13T10:35:54Z</time>
      </trkpt>
      <trkpt lat="45.65778" lon="6.25319">
        <ele>-6.263</ele>
        <time>2020-07-13T10:35:59Z</time>
      </trkpt>
      <trkpt lat="45.65769" lon="6.25307">
        <ele>-6.263</ele>
        <time>2020-07-13T10:36:09Z</time>
      </trkpt>
      <trkpt lat="45.6576" lon="6.25298">
        <ele>-6.263</ele>
        <time>2020-07-13T10:36:19Z</time>
      </trkpt>
      <trkpt lat="45.65751" lon="6.2529">
        <ele>-6.263</ele>
        <time>2020-07-13T10:36:29Z</time>
      </trkpt>
      <trkpt lat="45.6574" lon="6.25283">
        <ele>-6.263</ele>
        <time>2020-07-13T10:36:39Z</time>
      </trkpt>
      <trkpt lat="45.6573" lon="6.25281">
        <ele>-6.263</ele>
        <time>2020-07-13T10:36:48Z</time>
      </trkpt>
      <trkpt lat="45.65724" lon="6.25279">
        <ele>-6.263</ele>
        <time>2020-07-13T10:36:54Z</time>
      </trkpt>
      <trkpt lat="45.65713" lon="6.25274">
        <ele>-6.263</ele>
        <time>2020-07-13T10:37:04Z</time>
      </trkpt>
      <trkpt lat="45.65702" lon="6.25267">
        <ele>-6.263</ele>
        <time>2020-07-13T10:37:14Z</time>
      </trkpt>
      <trkpt lat="45.6569" lon="6.25259">
        <ele>-6.263</ele>
        <time>2020-07-13T10:37:24Z</time>
      </trkpt>
      <trkpt lat="45.65683" lon="6.25253">
        <ele>-6.263</ele>
        <time>2020-07-13T10:37:29Z</time>
      </trkpt>
      <trkpt lat="45.65668" lon="6.25251">
        <ele>-6.263</ele>
        <time>2020-07-13T10:37:39Z</time>
      </trkpt>
      <trkpt lat="45.65656" lon="6.25243">
        <ele>-6.263</ele>
        <time>2020-07-13T10:37:49Z</time>
      </trkpt>
      <trkpt lat="45.65644" lon="6.25232">
        <ele>-6.263</ele>
        <time>2020-07-13T10:37:59Z</time>
      </trkpt>
      <trkpt lat="45.65632" lon="6.25217">
        <ele>-6.263</ele>
        <time>2020-07-13T10:38:09Z</time>
      </trkpt>
      <trkpt lat="45.65629" lon="6.25212">
        <ele>-6.263</ele>
        <time>2020-07-13T10:38:14Z</time>
      </trkpt>
      <trkpt lat="45.65621" lon="6.25205">
        <ele>-6.263</ele>
        <time>2020-07-13T10:38:24Z</time>
      </trkpt>
      <trkpt lat="45.6561" lon="6.25192">
        <ele>-6.263</ele>
        <time>2020-07-13T10:38:34Z</time>
      </trkpt>
      <trkpt lat="45.65598" lon="6.25182">
        <ele>-6.263</ele>
        <time>2020-07-13T10:38:44Z</time>
      </trkpt>
      <trkpt lat="45.65588" lon="6.25174">
        <ele>-6.263</ele>
        <time>2020-07-13T10:38:53Z</time>
      </trkpt>
      <trkpt lat="45.65583" lon="6.2517">
        <ele>-6.263</ele>
        <time>2020-07-13T10:38:58Z</time>
      </trkpt>
      <trkpt lat="45.65576" lon="6.25164">
        <ele>-6.263</ele>
        <time>2020-07-13T10:39:03Z</time>
      </trkpt>
      <trkpt lat="45.65569" lon="6.25156">
        <ele>-6.263</ele>
        <time>2020-07-13T10:39:09Z</time>
      </trkpt>
      <trkpt lat="45.65553" lon="6.25143">
        <ele>-6.263</ele>
        <time>2020-07-13T10:39:19Z</time>
      </trkpt>
      <trkpt lat="45.65542" lon="6.25133">
        <ele>-6.263</ele>
        <time>2020-07-13T10:39:29Z</time>
      </trkpt>
      <trkpt lat="45.65532" lon="6.25124">
        <ele>-6.263</ele>
        <time>2020-07-13T10:39:38Z</time>
      </trkpt>
      <trkpt lat="45.65527" lon="6.25119">
        <ele>-6.263</ele>
        <time>2020-07-13T10:39:43Z</time>
      </trkpt>
      <trkpt lat="45.65522" lon="6.25115">
        <ele>-6.263</ele>
        <time>2020-07-13T10:39:48Z</time>
      </trkpt>
      <trkpt lat="45.65517" lon="6.25109">
        <ele>-6.263</ele>
        <time>2020-07-13T10:39:54Z</time>
      </trkpt>
      <trkpt lat="45.65509" lon="6.25097">
        <ele>-6.263</ele>
        <time>2020-07-13T10:40:04Z</time>
      </trkpt>
      <trkpt lat="45.655" lon="6.25086">
        <ele>-6.263</ele>
        <time>2020-07-13T10:40:14Z</time>
      </trkpt>
      <trkpt lat="45.65495" lon="6.25082">
        <ele>-6.263</ele>
        <time>2020-07-13T10:40:19Z</time>
      </trkpt>
      <trkpt lat="45.65488" lon="6.25073">
        <ele>-6.263</ele>
        <time>2020-07-13T10:40:29Z</time>
      </trkpt>
      <trkpt lat="45.65483" lon="6.25067">
        <ele>-6.263</ele>
        <time>2020-07-13T10:40:39Z</time>
      </trkpt>
      <trkpt lat="45.65472" lon="6.25057">
        <ele>-6.263</ele>
        <time>2020-07-13T10:40:49Z</time>
      </trkpt>
      <trkpt lat="45.65462" lon="6.25047">
        <ele>-6.263</ele>
        <time>2020-07-13T10:40:59Z</time>
      </trkpt>
      <trkpt lat="45.65456" lon="6.2504">
        <ele>-6.263</ele>
        <time>2020-07-13T10:41:08Z</time>
      </trkpt>
      <trkpt lat="45.6545" lon="6.25032">
        <ele>-6.263</ele>
        <time>2020-07-13T10:41:14Z</time>
      </trkpt>
      <trkpt lat="45.65434" lon="6.25022">
        <ele>-6.263</ele>
        <time>2020-07-13T10:41:24Z</time>
      </trkpt>
      <trkpt lat="45.65421" lon="6.25021">
        <ele>-6.263</ele>
        <time>2020-07-13T10:41:34Z</time>
      </trkpt>
      <trkpt lat="45.6541" lon="6.25006">
        <ele>-6.263</ele>
        <time>2020-07-13T10:41:44Z</time>
      </trkpt>
      <trkpt lat="45.65406" lon="6.24996">
        <ele>-6.263</ele>
        <time>2020-07-13T10:41:49Z</time>
      </trkpt>
      <trkpt lat="45.65396" lon="6.24984">
        <ele>-6.263</ele>
        <time>2020-07-13T10:41:59Z</time>
      </trkpt>
      <trkpt lat="45.65388" lon="6.24971">
        <ele>-6.263</ele>
        <time>2020-07-13T10:42:09Z</time>
      </trkpt>
      <trkpt lat="45.6538" lon="6.24955">
        <ele>-6.263</ele>
        <time>2020-07-13T10:42:19Z</time>
      </trkpt>
      <trkpt lat="45.65373" lon="6.2494">
        <ele>-6.263</ele>
        <time>2020-07-13T10:42:29Z</time>
      </trkpt>
      <trkpt lat="45.65369" lon="6.24931">
        <ele>-6.263</ele>
        <time>2020-07-13T10:42:34Z</time>
      </trkpt>
      <trkpt lat="45.65364" lon="6.24919">
        <ele>-6.263</ele>
        <time>2020-07-13T10:42:44Z</time>
      </trkpt>
      <trkpt lat="45.65357" lon="6.24906">
        <ele>-6.263</ele>
        <time>2020-07-13T10:42:54Z</time>
      </trkpt>
      <trkpt lat="45.65354" lon="6.24891">
        <ele>-6.263</ele>
        <time>2020-07-13T10:43:04Z</time>
      </trkpt>
      <trkpt lat="45.65351" lon="6.24878">
        <ele>-6.263</ele>
        <time>2020-07-13T10:43:13Z</time>
      </trkpt>
      <trkpt lat="45.65349" lon="6.24872">
        <ele>-6.263</ele>
        <time>2020-07-13T10:43:18Z</time>
      </trkpt>
      <trkpt lat="45.65348" lon="6.24864">
        <ele>-6.263</ele>
        <time>2020-07-13T10:43:23Z</time>
      </trkpt>
      <trkpt lat="45.65348" lon="6.24853">
        <ele>-6.263</ele>
        <time>2020-07-13T10:43:29Z</time>
      </trkpt>
      <trkpt lat="45.65342" lon="6.24831">
        <ele>-6.263</ele>
        <time>2020-07-13T10:43:39Z</time>
      </trkpt>
      <trkpt lat="45.65336" lon="6.24814">
        <ele>-6.263</ele>
        <time>2020-07-13T10:43:49Z</time>
      </trkpt>
      <trkpt lat="45.65327" lon="6.24797">
        <ele>-6.263</ele>
        <time>2020-07-13T10:43:58Z</time>
      </trkpt>
      <trkpt lat="45.6532" lon="6.24787">
        <ele>-6.263</ele>
        <time>2020-07-13T10:44:04Z</time>
      </trkpt>
      <trkpt lat="45.65315" lon="6.24771">
        <ele>-6.263</ele>
        <time>2020-07-13T10:44:14Z</time>
      </trkpt>
      <trkpt lat="45.65309" lon="6.24759">
        <ele>-6.263</ele>
        <time>2020-07-13T10:44:24Z</time>
      </trkpt>
      <trkpt lat="45.65305" lon="6.24744">
        <ele>-6.263</ele>
        <time>2020-07-13T10:44:34Z</time>
      </trkpt>
      <trkpt lat="45.65302" lon="6.24736">
        <ele>-6.263</ele>
        <time>2020-07-13T10:44:39Z</time>
      </trkpt>
      <trkpt lat="45.653" lon="6.24723">
        <ele>-6.263</ele>
        <time>2020-07-13T10:44:49Z</time>
      </trkpt>
      <trkpt lat="45.65295" lon="6.24704">
        <ele>-6.263</ele>
        <time>2020-07-13T10:44:59Z</time>
      </trkpt>
      <trkpt lat="45.65292" lon="6.24686">
        <ele>-6.263</ele>
        <time>2020-07-13T10:45:09Z</time>
      </trkpt>
      <trkpt lat="45.65291" lon="6.24664">
        <ele>-6.263</ele>
        <time>2020-07-13T10:45:19Z</time>
      </trkpt>
      <trkpt lat="45.65289" lon="6.24655">
        <ele>-6.263</ele>
        <time>2020-07-13T10:45:24Z</time>
      </trkpt>
      <trkpt lat="45.65286" lon="6.24646">
        <ele>-6.263</ele>
        <time>2020-07-13T10:45:34Z</time>
      </trkpt>
      <trkpt lat="45.65282" lon="6.24632">
        <ele>-6.263</ele>
        <time>2020-07-13T10:45:44Z</time>
      </trkpt>
      <trkpt lat="45.65278" lon="6.24622">
        <ele>-6.263</ele>
        <time>2020-07-13T10:45:54Z</time>
      </trkpt>
      <trkpt lat="45.65275" lon="6.24625">
        <ele>-6.263</ele>
        <time>2020-07-13T10:46:29Z</time>
      </trkpt>
      <trkpt lat="45.65271" lon="6.2464">
        <ele>-6.263</ele>
        <time>2020-07-13T10:46:39Z</time>
      </trkpt>
      <trkpt lat="45.65273" lon="6.24653">
        <ele>-6.263</ele>
        <time>2020-07-13T10:46:49Z</time>
      </trkpt>
      <trkpt lat="45.65272" lon="6.24662">
        <ele>-6.263</ele>
        <time>2020-07-13T10:46:54Z</time>
      </trkpt>
      <trkpt lat="45.65273" lon="6.24676">
        <ele>-6.263</ele>
        <time>2020-07-13T10:47:04Z</time>
      </trkpt>
      <trkpt lat="45.65275" lon="6.24686">
        <ele>-6.263</ele>
        <time>2020-07-13T10:47:14Z</time>
      </trkpt>
      <trkpt lat="45.65279" lon="6.24692">
        <ele>-6.263</ele>
        <time>2020-07-13T10:47:24Z</time>
      </trkpt>
      <trkpt lat="45.65279" lon="6.247">
        <ele>-6.263</ele>
        <time>2020-07-13T10:47:33Z</time>
      </trkpt>
      <trkpt lat="45.65278" lon="6.24711">
        <ele>-6.263</ele>
        <time>2020-07-13T10:47:38Z</time>
      </trkpt>
      <trkpt lat="45.65276" lon="6.24721">
        <ele>-6.263</ele>
        <time>2020-07-13T10:47:43Z</time>
      </trkpt>
      <trkpt lat="45.65275" lon="6.2473">
        <ele>-6.263</ele>
        <time>2020-07-13T10:47:49Z</time>
      </trkpt>
      <trkpt lat="45.65274" lon="6.24753">
        <ele>-6.263</ele>
        <time>2020-07-13T10:47:59Z</time>
      </trkpt>
      <trkpt lat="45.6528" lon="6.24767">
        <ele>-6.263</ele>
        <time>2020-07-13T10:48:09Z</time>
      </trkpt>
      <trkpt lat="45.65282" lon="6.24781">
        <ele>-6.263</ele>
        <time>2020-07-13T10:48:18Z</time>
      </trkpt>
      <trkpt lat="45.6528" lon="6.24793">
        <ele>-6.263</ele>
        <time>2020-07-13T10:48:24Z</time>
      </trkpt>
      <trkpt lat="45.65282" lon="6.24809">
        <ele>-6.263</ele>
        <time>2020-07-13T10:48:34Z</time>
      </trkpt>
      <trkpt lat="45.65287" lon="6.24834">
        <ele>-6.263</ele>
        <time>2020-07-13T10:48:44Z</time>
      </trkpt>
      <trkpt lat="45.65287" lon="6.24855">
        <ele>-6.263</ele>
        <time>2020-07-13T10:48:54Z</time>
      </trkpt>
      <trkpt lat="45.65286" lon="6.24865">
        <ele>-6.263</ele>
        <time>2020-07-13T10:48:59Z</time>
      </trkpt>
      <trkpt lat="45.6529" lon="6.2488">
        <ele>-6.263</ele>
        <time>2020-07-13T10:49:09Z</time>
      </trkpt>
      <trkpt lat="45.65288" lon="6.24898">
        <ele>-6.263</ele>
        <time>2020-07-13T10:49:19Z</time>
      </trkpt>
      <trkpt lat="45.65286" lon="6.24911">
        <ele>-6.263</ele>
        <time>2020-07-13T10:49:29Z</time>
      </trkpt>
      <trkpt lat="45.65281" lon="6.24904">
        <ele>-6.263</ele>
        <time>2020-07-13T10:49:39Z</time>
      </trkpt>
      <trkpt lat="45.65279" lon="6.24897">
        <ele>-6.263</ele>
        <time>2020-07-13T10:49:44Z</time>
      </trkpt>
      <trkpt lat="45.6528" lon="6.24882">
        <ele>-6.263</ele>
        <time>2020-07-13T10:49:54Z</time>
      </trkpt>
      <trkpt lat="45.65284" lon="6.2487">
        <ele>-6.263</ele>
        <time>2020-07-13T10:50:04Z</time>
      </trkpt>
      <trkpt lat="45.65287" lon="6.24858">
        <ele>-6.263</ele>
        <time>2020-07-13T10:50:14Z</time>
      </trkpt>
      <trkpt lat="45.65286" lon="6.24848">
        <ele>-6.263</ele>
        <time>2020-07-13T10:50:24Z</time>
      </trkpt>
      <trkpt lat="45.65279" lon="6.2484">
        <ele>-6.263</ele>
        <time>2020-07-13T10:50:33Z</time>
      </trkpt>
      <trkpt lat="45.65275" lon="6.24834">
        <ele>-6.263</ele>
        <time>2020-07-13T10:50:39Z</time>
      </trkpt>
      <trkpt lat="45.65266" lon="6.2482">
        <ele>-6.263</ele>
        <time>2020-07-13T10:50:49Z</time>
      </trkpt>
      <trkpt lat="45.65247" lon="6.24786">
        <ele>-6.263</ele>
        <time>2020-07-13T10:50:59Z</time>
      </trkpt>
      <trkpt lat="45.65236" lon="6.24769">
        <ele>-6.263</ele>
        <time>2020-07-13T10:51:08Z</time>
      </trkpt>
      <trkpt lat="45.65233" lon="6.2476">
        <ele>-6.263</ele>
        <time>2020-07-13T10:51:13Z</time>
      </trkpt>
      <trkpt lat="45.65232" lon="6.24753">
        <ele>-6.263</ele>
        <time>2020-07-13T10:51:18Z</time>
      </trkpt>
      <trkpt lat="45.65231" lon="6.24741">
        <ele>-6.263</ele>
        <time>2020-07-13T10:51:24Z</time>
      </trkpt>
      <trkpt lat="45.65228" lon="6.24729">
        <ele>-6.263</ele>
        <time>2020-07-13T10:51:34Z</time>
      </trkpt>
      <trkpt lat="45.65226" lon="6.2472">
        <ele>-6.263</ele>
        <time>2020-07-13T10:51:44Z</time>
      </trkpt>
      <trkpt lat="45.65227" lon="6.2471">
        <ele>-6.263</ele>
        <time>2020-07-13T10:51:49Z</time>
      </trkpt>
      <trkpt lat="45.65223" lon="6.24692">
        <ele>-6.263</ele>
        <time>2020-07-13T10:51:59Z</time>
      </trkpt>
      <trkpt lat="45.65217" lon="6.2468">
        <ele>-6.263</ele>
        <time>2020-07-13T10:52:09Z</time>
      </trkpt>
      <trkpt lat="45.6521" lon="6.24663">
        <ele>-6.263</ele>
        <time>2020-07-13T10:52:19Z</time>
      </trkpt>
      <trkpt lat="45.65207" lon="6.24655">
        <ele>-6.263</ele>
        <time>2020-07-13T10:52:29Z</time>
      </trkpt>
      <trkpt lat="45.65207" lon="6.24649">
        <ele>-6.263</ele>
        <time>2020-07-13T10:52:34Z</time>
      </trkpt>
      <trkpt lat="45.65203" lon="6.24634">
        <ele>-6.263</ele>
        <time>2020-07-13T10:52:44Z</time>
      </trkpt>
      <trkpt lat="45.65198" lon="6.24621">
        <ele>-6.263</ele>
        <time>2020-07-13T10:52:54Z</time>
      </trkpt>
      <trkpt lat="45.65194" lon="6.24603">
        <ele>-6.263</ele>
        <time>2020-07-13T10:53:04Z</time>
      </trkpt>
      <trkpt lat="45.65177" lon="6.24574">
        <ele>-6.263</ele>
        <time>2020-07-13T10:53:14Z</time>
      </trkpt>
      <trkpt lat="45.65172" lon="6.24567">
        <ele>-6.263</ele>
        <time>2020-07-13T10:53:19Z</time>
      </trkpt>
      <trkpt lat="45.65166" lon="6.24551">
        <ele>-6.263</ele>
        <time>2020-07-13T10:53:29Z</time>
      </trkpt>
      <trkpt lat="45.65159" lon="6.24539">
        <ele>-6.263</ele>
        <time>2020-07-13T10:53:39Z</time>
      </trkpt>
      <trkpt lat="45.65154" lon="6.24527">
        <ele>-6.263</ele>
        <time>2020-07-13T10:53:49Z</time>
      </trkpt>
      <trkpt lat="45.65149" lon="6.24515">
        <ele>-6.263</ele>
        <time>2020-07-13T10:53:59Z</time>
      </trkpt>
      <trkpt lat="45.65146" lon="6.24507">
        <ele>-6.263</ele>
        <time>2020-07-13T10:54:08Z</time>
      </trkpt>
      <trkpt lat="45.65147" lon="6.245">
        <ele>-6.263</ele>
        <time>2020-07-13T10:54:14Z</time>
      </trkpt>
      <trkpt lat="45.65146" lon="6.24484">
        <ele>-6.263</ele>
        <time>2020-07-13T10:54:24Z</time>
      </trkpt>
      <trkpt lat="45.65148" lon="6.24473">
        <ele>-6.263</ele>
        <time>2020-07-13T10:54:34Z</time>
      </trkpt>
      <trkpt lat="45.65147" lon="6.24464">
        <ele>-6.263</ele>
        <time>2020-07-13T10:54:43Z</time>
      </trkpt>
      <trkpt lat="45.65146" lon="6.24453">
        <ele>-6.263</ele>
        <time>2020-07-13T10:54:48Z</time>
      </trkpt>
      <trkpt lat="45.65145" lon="6.24443">
        <ele>-6.263</ele>
        <time>2020-07-13T10:54:53Z</time>
      </trkpt>
      <trkpt lat="45.6514" lon="6.24413">
        <ele>-6.263</ele>
        <time>2020-07-13T10:54:59Z</time>
      </trkpt>
      <trkpt lat="45.65134" lon="6.24392">
        <ele>-6.263</ele>
        <time>2020-07-13T10:55:09Z</time>
      </trkpt>
      <trkpt lat="45.65133" lon="6.24373">
        <ele>-6.263</ele>
        <time>2020-07-13T10:55:19Z</time>
      </trkpt>
      <trkpt lat="45.65129" lon="6.24358">
        <ele>-6.263</ele>
        <time>2020-07-13T10:55:28Z</time>
      </trkpt>
      <trkpt lat="45.65129" lon="6.2435">
        <ele>-6.263</ele>
        <time>2020-07-13T10:55:33Z</time>
      </trkpt>
      <trkpt lat="45.6513" lon="6.24336">
        <ele>-6.263</ele>
        <time>2020-07-13T10:55:44Z</time>
      </trkpt>
      <trkpt lat="45.65129" lon="6.24326">
        <ele>-6.263</ele>
        <time>2020-07-13T10:55:54Z</time>
      </trkpt>
      <trkpt lat="45.65125" lon="6.24315">
        <ele>-6.263</ele>
        <time>2020-07-13T10:56:04Z</time>
      </trkpt>
      <trkpt lat="45.65115" lon="6.24303">
        <ele>-6.263</ele>
        <time>2020-07-13T10:56:13Z</time>
      </trkpt>
      <trkpt lat="45.65107" lon="6.24296">
        <ele>-6.263</ele>
        <time>2020-07-13T10:56:19Z</time>
      </trkpt>
      <trkpt lat="45.6509" lon="6.24278">
        <ele>-6.263</ele>
        <time>2020-07-13T10:56:29Z</time>
      </trkpt>
      <trkpt lat="45.65083" lon="6.24284">
        <ele>-6.263</ele>
        <time>2020-07-13T10:56:39Z</time>
      </trkpt>
      <trkpt lat="45.6509" lon="6.24299">
        <ele>-6.263</ele>
        <time>2020-07-13T10:56:49Z</time>
      </trkpt>
      <trkpt lat="45.65097" lon="6.24304">
        <ele>-6.263</ele>
        <time>2020-07-13T10:56:54Z</time>
      </trkpt>
      <trkpt lat="45.65103" lon="6.2432">
        <ele>-6.263</ele>
        <time>2020-07-13T10:57:04Z</time>
      </trkpt>
      <trkpt lat="45.65098" lon="6.24331">
        <ele>-6.263</ele>
        <time>2020-07-13T10:57:14Z</time>
      </trkpt>
      <trkpt lat="45.65094" lon="6.24331">
        <ele>-6.263</ele>
        <time>2020-07-13T10:57:24Z</time>
      </trkpt>
      <trkpt lat="45.65083" lon="6.24317">
        <ele>-6.263</ele>
        <time>2020-07-13T10:57:34Z</time>
      </trkpt>
      <trkpt lat="45.65078" lon="6.24308">
        <ele>-6.263</ele>
        <time>2020-07-13T10:57:39Z</time>
      </trkpt>
      <trkpt lat="45.65068" lon="6.24295">
        <ele>-6.263</ele>
        <time>2020-07-13T10:57:49Z</time>
      </trkpt>
      <trkpt lat="45.65062" lon="6.2428">
        <ele>-6.263</ele>
        <time>2020-07-13T10:57:59Z</time>
      </trkpt>
      <trkpt lat="45.65063" lon="6.24265">
        <ele>-6.263</ele>
        <time>2020-07-13T10:58:09Z</time>
      </trkpt>
      <trkpt lat="45.65061" lon="6.24253">
        <ele>-6.263</ele>
        <time>2020-07-13T10:58:19Z</time>
      </trkpt>
      <trkpt lat="45.65058" lon="6.24251">
        <ele>-6.263</ele>
        <time>2020-07-13T10:58:28Z</time>
      </trkpt>
      <trkpt lat="45.65059" lon="6.24245">
        <ele>-6.263</ele>
        <time>2020-07-13T10:58:34Z</time>
      </trkpt>
      <trkpt lat="45.65062" lon="6.24239">
        <ele>-6.263</ele>
        <time>2020-07-13T10:58:48Z</time>
      </trkpt>
      <trkpt lat="45.65059" lon="6.24236">
        <ele>-6.263</ele>
        <time>2020-07-13T10:59:13Z</time>
      </trkpt>
      <trkpt lat="45.65052" lon="6.2423">
        <ele>-6.263</ele>
        <time>2020-07-13T10:59:29Z</time>
      </trkpt>
      <trkpt lat="45.65052" lon="6.24239">
        <ele>-6.263</ele>
        <time>2020-07-13T10:59:48Z</time>
      </trkpt>
      <trkpt lat="45.65048" lon="6.24244">
        <ele>-6.263</ele>
        <time>2020-07-13T10:59:53Z</time>
      </trkpt>
      <trkpt lat="45.65044" lon="6.24251">
        <ele>-6.263</ele>
        <time>2020-07-13T10:59:58Z</time>
      </trkpt>
      <trkpt lat="45.65039" lon="6.24258">
        <ele>-6.263</ele>
        <time>2020-07-13T11:00:04Z</time>
      </trkpt>
      <trkpt lat="45.65033" lon="6.24274">
        <ele>-6.263</ele>
        <time>2020-07-13T11:00:14Z</time>
      </trkpt>
      <trkpt lat="45.65029" lon="6.24289">
        <ele>-6.263</ele>
        <time>2020-07-13T11:00:24Z</time>
      </trkpt>
      <trkpt lat="45.6503" lon="6.24304">
        <ele>-6.263</ele>
        <time>2020-07-13T11:00:33Z</time>
      </trkpt>
      <trkpt lat="45.65025" lon="6.24304">
        <ele>-6.263</ele>
        <time>2020-07-13T11:00:49Z</time>
      </trkpt>
      <trkpt lat="45.65014" lon="6.243">
        <ele>-6.263</ele>
        <time>2020-07-13T11:00:59Z</time>
      </trkpt>
      <trkpt lat="45.65008" lon="6.24291">
        <ele>-6.263</ele>
        <time>2020-07-13T11:01:09Z</time>
      </trkpt>
      <trkpt lat="45.65011" lon="6.24274">
        <ele>-6.263</ele>
        <time>2020-07-13T11:01:18Z</time>
      </trkpt>
      <trkpt lat="45.65013" lon="6.24264">
        <ele>-6.263</ele>
        <time>2020-07-13T11:01:23Z</time>
      </trkpt>
      <trkpt lat="45.65017" lon="6.24257">
        <ele>-6.263</ele>
        <time>2020-07-13T11:01:28Z</time>
      </trkpt>
      <trkpt lat="45.6502" lon="6.24249">
        <ele>-6.263</ele>
        <time>2020-07-13T11:01:34Z</time>
      </trkpt>
      <trkpt lat="45.65017" lon="6.24239">
        <ele>-6.263</ele>
        <time>2020-07-13T11:01:44Z</time>
      </trkpt>
      <trkpt lat="45.65012" lon="6.24235">
        <ele>-6.263</ele>
        <time>2020-07-13T11:01:54Z</time>
      </trkpt>
      <trkpt lat="45.65006" lon="6.24238">
        <ele>-6.263</ele>
        <time>2020-07-13T11:01:59Z</time>
      </trkpt>
      <trkpt lat="45.64994" lon="6.24238">
        <ele>-6.263</ele>
        <time>2020-07-13T11:02:09Z</time>
      </trkpt>
      <trkpt lat="45.64987" lon="6.24233">
        <ele>-6.263</ele>
        <time>2020-07-13T11:02:19Z</time>
      </trkpt>
      <trkpt lat="45.6498" lon="6.24241">
        <ele>-6.263</ele>
        <time>2020-07-13T11:02:29Z</time>
      </trkpt>
      <trkpt lat="45.64977" lon="6.24241">
        <ele>-6.263</ele>
        <time>2020-07-13T11:02:39Z</time>
      </trkpt>
      <trkpt lat="45.64976" lon="6.24231">
        <ele>-6.263</ele>
        <time>2020-07-13T11:02:48Z</time>
      </trkpt>
      <trkpt lat="45.64973" lon="6.24225">
        <ele>-6.263</ele>
        <time>2020-07-13T11:02:54Z</time>
      </trkpt>
      <trkpt lat="45.64968" lon="6.24216">
        <ele>-6.263</ele>
        <time>2020-07-13T11:03:04Z</time>
      </trkpt>
      <trkpt lat="45.64959" lon="6.24204">
        <ele>-6.263</ele>
        <time>2020-07-13T11:03:14Z</time>
      </trkpt>
      <trkpt lat="45.64953" lon="6.24196">
        <ele>-6.263</ele>
        <time>2020-07-13T11:03:24Z</time>
      </trkpt>
      <trkpt lat="45.64947" lon="6.24192">
        <ele>-6.263</ele>
        <time>2020-07-13T11:03:29Z</time>
      </trkpt>
      <trkpt lat="45.64935" lon="6.24179">
        <ele>-6.263</ele>
        <time>2020-07-13T11:03:39Z</time>
      </trkpt>
      <trkpt lat="45.64921" lon="6.24172">
        <ele>-6.263</ele>
        <time>2020-07-13T11:03:49Z</time>
      </trkpt>
      <trkpt lat="45.64902" lon="6.2416">
        <ele>-6.263</ele>
        <time>2020-07-13T11:03:59Z</time>
      </trkpt>
      <trkpt lat="45.64893" lon="6.2415">
        <ele>-6.263</ele>
        <time>2020-07-13T11:04:08Z</time>
      </trkpt>
      <trkpt lat="45.64891" lon="6.24144">
        <ele>-6.263</ele>
        <time>2020-07-13T11:04:13Z</time>
      </trkpt>
      <trkpt lat="45.64881" lon="6.24133">
        <ele>-6.263</ele>
        <time>2020-07-13T11:04:24Z</time>
      </trkpt>
      <trkpt lat="45.6487" lon="6.24124">
        <ele>-6.263</ele>
        <time>2020-07-13T11:04:34Z</time>
      </trkpt>
      <trkpt lat="45.64862" lon="6.24112">
        <ele>-6.263</ele>
        <time>2020-07-13T11:04:44Z</time>
      </trkpt>
      <trkpt lat="45.64858" lon="6.24097">
        <ele>-6.263</ele>
        <time>2020-07-13T11:04:53Z</time>
      </trkpt>
      <trkpt lat="45.64854" lon="6.24094">
        <ele>-6.263</ele>
        <time>2020-07-13T11:04:58Z</time>
      </trkpt>
      <trkpt lat="45.64848" lon="6.24086">
        <ele>-6.263</ele>
        <time>2020-07-13T11:05:03Z</time>
      </trkpt>
      <trkpt lat="45.64843" lon="6.24077">
        <ele>-6.263</ele>
        <time>2020-07-13T11:05:09Z</time>
      </trkpt>
      <trkpt lat="45.64834" lon="6.24061">
        <ele>-6.263</ele>
        <time>2020-07-13T11:05:19Z</time>
      </trkpt>
      <trkpt lat="45.64829" lon="6.24038">
        <ele>-6.263</ele>
        <time>2020-07-13T11:05:29Z</time>
      </trkpt>
      <trkpt lat="45.64821" lon="6.24018">
        <ele>-6.263</ele>
        <time>2020-07-13T11:05:38Z</time>
      </trkpt>
      <trkpt lat="45.64815" lon="6.24011">
        <ele>-6.263</ele>
        <time>2020-07-13T11:05:43Z</time>
      </trkpt>
      <trkpt lat="45.6481" lon="6.24007">
        <ele>-6.263</ele>
        <time>2020-07-13T11:05:48Z</time>
      </trkpt>
      <trkpt lat="45.64805" lon="6.24004">
        <ele>-6.263</ele>
        <time>2020-07-13T11:05:54Z</time>
      </trkpt>
      <trkpt lat="45.64794" lon="6.23995">
        <ele>-6.263</ele>
        <time>2020-07-13T11:06:04Z</time>
      </trkpt>
      <trkpt lat="45.64784" lon="6.23988">
        <ele>-6.263</ele>
        <time>2020-07-13T11:06:14Z</time>
      </trkpt>
      <trkpt lat="45.6477" lon="6.23978">
        <ele>-6.263</ele>
        <time>2020-07-13T11:06:23Z</time>
      </trkpt>
      <trkpt lat="45.64766" lon="6.23973">
        <ele>-6.263</ele>
        <time>2020-07-13T11:06:28Z</time>
      </trkpt>
      <trkpt lat="45.64763" lon="6.23966">
        <ele>-6.263</ele>
        <time>2020-07-13T11:06:33Z</time>
      </trkpt>
      <trkpt lat="45.64763" lon="6.23954">
        <ele>-6.263</ele>
        <time>2020-07-13T11:06:39Z</time>
      </trkpt>
      <trkpt lat="45.64758" lon="6.23936">
        <ele>-6.263</ele>
        <time>2020-07-13T11:06:49Z</time>
      </trkpt>
      <trkpt lat="45.6475" lon="6.23923">
        <ele>-6.263</ele>
        <time>2020-07-13T11:06:59Z</time>
      </trkpt>
      <trkpt lat="45.64739" lon="6.23915">
        <ele>-6.263</ele>
        <time>2020-07-13T11:07:08Z</time>
      </trkpt>
      <trkpt lat="45.64734" lon="6.23909">
        <ele>-6.263</ele>
        <time>2020-07-13T11:07:14Z</time>
      </trkpt>
      <trkpt lat="45.64726" lon="6.23894">
        <ele>-6.263</ele>
        <time>2020-07-13T11:07:24Z</time>
      </trkpt>
      <trkpt lat="45.64719" lon="6.23878">
        <ele>-6.263</ele>
        <time>2020-07-13T11:07:34Z</time>
      </trkpt>
      <trkpt lat="45.64714" lon="6.23863">
        <ele>-6.263</ele>
        <time>2020-07-13T11:07:44Z</time>
      </trkpt>
      <trkpt lat="45.64709" lon="6.23856">
        <ele>-6.263</ele>
        <time>2020-07-13T11:07:49Z</time>
      </trkpt>
      <trkpt lat="45.64698" lon="6.23844">
        <ele>-6.263</ele>
        <time>2020-07-13T11:07:59Z</time>
      </trkpt>
      <trkpt lat="45.64689" lon="6.23831">
        <ele>-6.263</ele>
        <time>2020-07-13T11:08:09Z</time>
      </trkpt>
      <trkpt lat="45.6468" lon="6.23824">
        <ele>-6.263</ele>
        <time>2020-07-13T11:08:19Z</time>
      </trkpt>
      <trkpt lat="45.64669" lon="6.2382">
        <ele>-6.263</ele>
        <time>2020-07-13T11:08:29Z</time>
      </trkpt>
      <trkpt lat="45.64663" lon="6.23815">
        <ele>-6.263</ele>
        <time>2020-07-13T11:08:34Z</time>
      </trkpt>
      <trkpt lat="45.64652" lon="6.23811">
        <ele>-6.263</ele>
        <time>2020-07-13T11:08:44Z</time>
      </trkpt>
      <trkpt lat="45.64644" lon="6.23805">
        <ele>-6.263</ele>
        <time>2020-07-13T11:08:54Z</time>
      </trkpt>
      <trkpt lat="45.64636" lon="6.23798">
        <ele>-6.263</ele>
        <time>2020-07-13T11:09:04Z</time>
      </trkpt>
      <trkpt lat="45.64628" lon="6.23787">
        <ele>-6.263</ele>
        <time>2020-07-13T11:09:14Z</time>
      </trkpt>
      <trkpt lat="45.64623" lon="6.23782">
        <ele>-6.263</ele>
        <time>2020-07-13T11:09:19Z</time>
      </trkpt>
      <trkpt lat="45.64615" lon="6.23766">
        <ele>-6.263</ele>
        <time>2020-07-13T11:09:29Z</time>
      </trkpt>
      <trkpt lat="45.64609" lon="6.2375">
        <ele>-6.263</ele>
        <time>2020-07-13T11:09:39Z</time>
      </trkpt>
      <trkpt lat="45.64603" lon="6.23741">
        <ele>-6.263</ele>
        <time>2020-07-13T11:09:49Z</time>
      </trkpt>
      <trkpt lat="45.64596" lon="6.23726">
        <ele>-6.263</ele>
        <time>2020-07-13T11:09:59Z</time>
      </trkpt>
      <trkpt lat="45.64592" lon="6.23723">
        <ele>-6.263</ele>
        <time>2020-07-13T11:10:04Z</time>
      </trkpt>
      <trkpt lat="45.64582" lon="6.23718">
        <ele>-6.263</ele>
        <time>2020-07-13T11:10:14Z</time>
      </trkpt>
      <trkpt lat="45.64574" lon="6.23705">
        <ele>-6.263</ele>
        <time>2020-07-13T11:10:24Z</time>
      </trkpt>
      <trkpt lat="45.64565" lon="6.2369">
        <ele>-6.263</ele>
        <time>2020-07-13T11:10:34Z</time>
      </trkpt>
      <trkpt lat="45.64555" lon="6.23675">
        <ele>-6.263</ele>
        <time>2020-07-13T11:10:43Z</time>
      </trkpt>
      <trkpt lat="45.64551" lon="6.23669">
        <ele>-6.263</ele>
        <time>2020-07-13T11:10:53Z</time>
      </trkpt>
      <trkpt lat="45.6455" lon="6.2367">
        <ele>-6.263</ele>
        <time>2020-07-13T11:11:09Z</time>
      </trkpt>
      <trkpt lat="45.6455" lon="6.23672">
        <ele>-6.263</ele>
        <time>2020-07-13T11:11:28Z</time>
      </trkpt>
    </trkseg>
  </trk>
</gpx>